<?xml version="1.0" encoding="UTF-8" standalone="no" ?>
<gpx xmlns="http://www.topografix.com/GPX/1/1" xmlns:xsi="http://www.w3.org/2001/XMLSchema-instance" xsi:schemaLocation="http://www.topografix.com/GPX/1/1 http://www.topografix.com/GPX/1/1/gpx.xsd" version="1.1" creator="VisuGPX - https://www.visugpx.com">
  <metadata>
    <name>Mercredi 4 mars 2026</name>
  </metadata>
  <trk>
    <name><![CDATA[Itxassou-rte cîmes-Villefranque-Ustaritz-20193388]]></name>
    <trkseg>
      <trkpt lat="43.38309" lon="-1.65903">
        <ele>5</ele>
        <time>2026-02-28T09:03:20Z</time>
      </trkpt>
      <trkpt lat="43.38309" lon="-1.65902">
        <ele>5</ele>
        <time>2026-02-28T09:03:20Z</time>
      </trkpt>
      <trkpt lat="43.38305" lon="-1.65894">
        <ele>4</ele>
        <time>2026-02-28T09:03:21Z</time>
      </trkpt>
      <trkpt lat="43.38298" lon="-1.65877">
        <ele>4</ele>
        <time>2026-02-28T09:03:24Z</time>
      </trkpt>
      <trkpt lat="43.38275" lon="-1.65815">
        <ele>3</ele>
        <time>2026-02-28T09:03:33Z</time>
      </trkpt>
      <trkpt lat="43.38262" lon="-1.65781">
        <ele>4</ele>
        <time>2026-02-28T09:03:38Z</time>
      </trkpt>
      <trkpt lat="43.38234" lon="-1.65703">
        <ele>4</ele>
        <time>2026-02-28T09:03:49Z</time>
      </trkpt>
      <trkpt lat="43.38233" lon="-1.65695">
        <ele>4</ele>
        <time>2026-02-28T09:03:50Z</time>
      </trkpt>
      <trkpt lat="43.38233" lon="-1.65687">
        <ele>4</ele>
        <time>2026-02-28T09:03:51Z</time>
      </trkpt>
      <trkpt lat="43.38236" lon="-1.65679">
        <ele>4</ele>
        <time>2026-02-28T09:03:52Z</time>
      </trkpt>
      <trkpt lat="43.38252" lon="-1.65655">
        <ele>4</ele>
        <time>2026-02-28T09:03:57Z</time>
      </trkpt>
      <trkpt lat="43.3828" lon="-1.65617">
        <ele>3</ele>
        <time>2026-02-28T09:04:04Z</time>
      </trkpt>
      <trkpt lat="43.38286" lon="-1.65609">
        <ele>3</ele>
        <time>2026-02-28T09:04:05Z</time>
      </trkpt>
      <trkpt lat="43.38296" lon="-1.65596">
        <ele>3</ele>
        <time>2026-02-28T09:04:08Z</time>
      </trkpt>
      <trkpt lat="43.383" lon="-1.65591">
        <ele>3</ele>
        <time>2026-02-28T09:04:08Z</time>
      </trkpt>
      <trkpt lat="43.38307" lon="-1.65581">
        <ele>3</ele>
        <time>2026-02-28T09:04:10Z</time>
      </trkpt>
      <trkpt lat="43.38329" lon="-1.65551">
        <ele>3</ele>
        <time>2026-02-28T09:04:16Z</time>
      </trkpt>
      <trkpt lat="43.38352" lon="-1.65519">
        <ele>4</ele>
        <time>2026-02-28T09:04:22Z</time>
      </trkpt>
      <trkpt lat="43.38357" lon="-1.65509">
        <ele>4</ele>
        <time>2026-02-28T09:04:23Z</time>
      </trkpt>
      <trkpt lat="43.38352" lon="-1.65508">
        <ele>4</ele>
        <time>2026-02-28T09:04:24Z</time>
      </trkpt>
      <trkpt lat="43.38328" lon="-1.65473">
        <ele>4</ele>
        <time>2026-02-28T09:04:30Z</time>
      </trkpt>
      <trkpt lat="43.38325" lon="-1.65465">
        <ele>4</ele>
        <time>2026-02-28T09:04:31Z</time>
      </trkpt>
      <trkpt lat="43.38326" lon="-1.65462">
        <ele>4</ele>
        <time>2026-02-28T09:04:32Z</time>
      </trkpt>
      <trkpt lat="43.38327" lon="-1.65457">
        <ele>4</ele>
        <time>2026-02-28T09:04:33Z</time>
      </trkpt>
      <trkpt lat="43.38331" lon="-1.65453">
        <ele>5</ele>
        <time>2026-02-28T09:04:33Z</time>
      </trkpt>
      <trkpt lat="43.38338" lon="-1.6544">
        <ele>5</ele>
        <time>2026-02-28T09:04:36Z</time>
      </trkpt>
      <trkpt lat="43.38366" lon="-1.65383">
        <ele>5</ele>
        <time>2026-02-28T09:04:44Z</time>
      </trkpt>
      <trkpt lat="43.3837" lon="-1.65376">
        <ele>5</ele>
        <time>2026-02-28T09:04:46Z</time>
      </trkpt>
      <trkpt lat="43.3839" lon="-1.65332">
        <ele>6</ele>
        <time>2026-02-28T09:04:52Z</time>
      </trkpt>
      <trkpt lat="43.38394" lon="-1.65317">
        <ele>8</ele>
        <time>2026-02-28T09:04:54Z</time>
      </trkpt>
      <trkpt lat="43.38392" lon="-1.65295">
        <ele>10</ele>
        <time>2026-02-28T09:04:57Z</time>
      </trkpt>
      <trkpt lat="43.38384" lon="-1.65266">
        <ele>13</ele>
        <time>2026-02-28T09:05:01Z</time>
      </trkpt>
      <trkpt lat="43.38365" lon="-1.65248">
        <ele>13</ele>
        <time>2026-02-28T09:05:05Z</time>
      </trkpt>
      <trkpt lat="43.3836" lon="-1.65239">
        <ele>13</ele>
        <time>2026-02-28T09:05:07Z</time>
      </trkpt>
      <trkpt lat="43.38356" lon="-1.65227">
        <ele>13</ele>
        <time>2026-02-28T09:05:09Z</time>
      </trkpt>
      <trkpt lat="43.38343" lon="-1.652">
        <ele>12</ele>
        <time>2026-02-28T09:05:13Z</time>
      </trkpt>
      <trkpt lat="43.38333" lon="-1.65173">
        <ele>12</ele>
        <time>2026-02-28T09:05:17Z</time>
      </trkpt>
      <trkpt lat="43.38302" lon="-1.65087">
        <ele>11</ele>
        <time>2026-02-28T09:05:29Z</time>
      </trkpt>
      <trkpt lat="43.38276" lon="-1.65016">
        <ele>9</ele>
        <time>2026-02-28T09:05:39Z</time>
      </trkpt>
      <trkpt lat="43.3826" lon="-1.64971">
        <ele>8</ele>
        <time>2026-02-28T09:05:46Z</time>
      </trkpt>
      <trkpt lat="43.38254" lon="-1.64945">
        <ele>8</ele>
        <time>2026-02-28T09:05:49Z</time>
      </trkpt>
      <trkpt lat="43.38252" lon="-1.64928">
        <ele>8</ele>
        <time>2026-02-28T09:05:52Z</time>
      </trkpt>
      <trkpt lat="43.38255" lon="-1.6488">
        <ele>9</ele>
        <time>2026-02-28T09:05:58Z</time>
      </trkpt>
      <trkpt lat="43.38264" lon="-1.64796">
        <ele>9</ele>
        <time>2026-02-28T09:06:09Z</time>
      </trkpt>
      <trkpt lat="43.3827" lon="-1.64732">
        <ele>7</ele>
        <time>2026-02-28T09:06:17Z</time>
      </trkpt>
      <trkpt lat="43.38273" lon="-1.64701">
        <ele>7</ele>
        <time>2026-02-28T09:06:21Z</time>
      </trkpt>
      <trkpt lat="43.38274" lon="-1.64685">
        <ele>7</ele>
        <time>2026-02-28T09:06:23Z</time>
      </trkpt>
      <trkpt lat="43.38279" lon="-1.64626">
        <ele>7</ele>
        <time>2026-02-28T09:06:31Z</time>
      </trkpt>
      <trkpt lat="43.3828" lon="-1.64566">
        <ele>9</ele>
        <time>2026-02-28T09:06:39Z</time>
      </trkpt>
      <trkpt lat="43.38278" lon="-1.64501">
        <ele>10</ele>
        <time>2026-02-28T09:06:47Z</time>
      </trkpt>
      <trkpt lat="43.38277" lon="-1.64488">
        <ele>10</ele>
        <time>2026-02-28T09:06:49Z</time>
      </trkpt>
      <trkpt lat="43.38272" lon="-1.64424">
        <ele>8</ele>
        <time>2026-02-28T09:06:57Z</time>
      </trkpt>
      <trkpt lat="43.38261" lon="-1.6437">
        <ele>6</ele>
        <time>2026-02-28T09:07:04Z</time>
      </trkpt>
      <trkpt lat="43.38257" lon="-1.64359">
        <ele>6</ele>
        <time>2026-02-28T09:07:06Z</time>
      </trkpt>
      <trkpt lat="43.38244" lon="-1.64328">
        <ele>5</ele>
        <time>2026-02-28T09:07:11Z</time>
      </trkpt>
      <trkpt lat="43.38233" lon="-1.64308">
        <ele>5</ele>
        <time>2026-02-28T09:07:14Z</time>
      </trkpt>
      <trkpt lat="43.38222" lon="-1.64295">
        <ele>5</ele>
        <time>2026-02-28T09:07:16Z</time>
      </trkpt>
      <trkpt lat="43.38212" lon="-1.64283">
        <ele>5</ele>
        <time>2026-02-28T09:07:19Z</time>
      </trkpt>
      <trkpt lat="43.38155" lon="-1.6423">
        <ele>6</ele>
        <time>2026-02-28T09:07:31Z</time>
      </trkpt>
      <trkpt lat="43.38124" lon="-1.64199">
        <ele>6</ele>
        <time>2026-02-28T09:07:38Z</time>
      </trkpt>
      <trkpt lat="43.38121" lon="-1.64194">
        <ele>6</ele>
        <time>2026-02-28T09:07:39Z</time>
      </trkpt>
      <trkpt lat="43.38109" lon="-1.64167">
        <ele>7</ele>
        <time>2026-02-28T09:07:43Z</time>
      </trkpt>
      <trkpt lat="43.38058" lon="-1.64061">
        <ele>9</ele>
        <time>2026-02-28T09:07:59Z</time>
      </trkpt>
      <trkpt lat="43.38049" lon="-1.64048">
        <ele>9</ele>
        <time>2026-02-28T09:08:02Z</time>
      </trkpt>
      <trkpt lat="43.37999" lon="-1.64003">
        <ele>8</ele>
        <time>2026-02-28T09:08:12Z</time>
      </trkpt>
      <trkpt lat="43.37994" lon="-1.63999">
        <ele>8</ele>
        <time>2026-02-28T09:08:13Z</time>
      </trkpt>
      <trkpt lat="43.37952" lon="-1.6396">
        <ele>7</ele>
        <time>2026-02-28T09:08:22Z</time>
      </trkpt>
      <trkpt lat="43.37908" lon="-1.63919">
        <ele>7</ele>
        <time>2026-02-28T09:08:32Z</time>
      </trkpt>
      <trkpt lat="43.37906" lon="-1.63917">
        <ele>6</ele>
        <time>2026-02-28T09:08:32Z</time>
      </trkpt>
      <trkpt lat="43.37802" lon="-1.63812">
        <ele>8</ele>
        <time>2026-02-28T09:08:55Z</time>
      </trkpt>
      <trkpt lat="43.37776" lon="-1.63786">
        <ele>8</ele>
        <time>2026-02-28T09:09:01Z</time>
      </trkpt>
      <trkpt lat="43.37767" lon="-1.63778">
        <ele>8</ele>
        <time>2026-02-28T09:09:03Z</time>
      </trkpt>
      <trkpt lat="43.37749" lon="-1.63773">
        <ele>8</ele>
        <time>2026-02-28T09:09:06Z</time>
      </trkpt>
      <trkpt lat="43.3772" lon="-1.63773">
        <ele>8</ele>
        <time>2026-02-28T09:09:11Z</time>
      </trkpt>
      <trkpt lat="43.37642" lon="-1.63776">
        <ele>6</ele>
        <time>2026-02-28T09:09:25Z</time>
      </trkpt>
      <trkpt lat="43.37604" lon="-1.63785">
        <ele>6</ele>
        <time>2026-02-28T09:09:32Z</time>
      </trkpt>
      <trkpt lat="43.37541" lon="-1.63786">
        <ele>5</ele>
        <time>2026-02-28T09:09:43Z</time>
      </trkpt>
      <trkpt lat="43.37526" lon="-1.63781">
        <ele>5</ele>
        <time>2026-02-28T09:09:46Z</time>
      </trkpt>
      <trkpt lat="43.37517" lon="-1.6379">
        <ele>4</ele>
        <time>2026-02-28T09:09:48Z</time>
      </trkpt>
      <trkpt lat="43.3751" lon="-1.63791">
        <ele>4</ele>
        <time>2026-02-28T09:09:49Z</time>
      </trkpt>
      <trkpt lat="43.37444" lon="-1.63791">
        <ele>4</ele>
        <time>2026-02-28T09:10:01Z</time>
      </trkpt>
      <trkpt lat="43.37409" lon="-1.63788">
        <ele>4</ele>
        <time>2026-02-28T09:10:07Z</time>
      </trkpt>
      <trkpt lat="43.37124" lon="-1.63805">
        <ele>5</ele>
        <time>2026-02-28T09:10:58Z</time>
      </trkpt>
      <trkpt lat="43.37111" lon="-1.63806">
        <ele>5</ele>
        <time>2026-02-28T09:11:00Z</time>
      </trkpt>
      <trkpt lat="43.37085" lon="-1.63801">
        <ele>6</ele>
        <time>2026-02-28T09:11:05Z</time>
      </trkpt>
      <trkpt lat="43.37067" lon="-1.63794">
        <ele>6</ele>
        <time>2026-02-28T09:11:08Z</time>
      </trkpt>
      <trkpt lat="43.36893" lon="-1.63685">
        <ele>4</ele>
        <time>2026-02-28T09:11:42Z</time>
      </trkpt>
      <trkpt lat="43.36753" lon="-1.63597">
        <ele>7</ele>
        <time>2026-02-28T09:12:09Z</time>
      </trkpt>
      <trkpt lat="43.36709" lon="-1.63582">
        <ele>8</ele>
        <time>2026-02-28T09:12:18Z</time>
      </trkpt>
      <trkpt lat="43.36675" lon="-1.63576">
        <ele>8</ele>
        <time>2026-02-28T09:12:24Z</time>
      </trkpt>
      <trkpt lat="43.36658" lon="-1.63577">
        <ele>8</ele>
        <time>2026-02-28T09:12:27Z</time>
      </trkpt>
      <trkpt lat="43.36638" lon="-1.63578">
        <ele>7</ele>
        <time>2026-02-28T09:12:30Z</time>
      </trkpt>
      <trkpt lat="43.36595" lon="-1.63589">
        <ele>5</ele>
        <time>2026-02-28T09:12:38Z</time>
      </trkpt>
      <trkpt lat="43.36401" lon="-1.63651">
        <ele>7</ele>
        <time>2026-02-28T09:13:13Z</time>
      </trkpt>
      <trkpt lat="43.36365" lon="-1.63663">
        <ele>7</ele>
        <time>2026-02-28T09:13:20Z</time>
      </trkpt>
      <trkpt lat="43.36323" lon="-1.63671">
        <ele>7</ele>
        <time>2026-02-28T09:13:28Z</time>
      </trkpt>
      <trkpt lat="43.36288" lon="-1.63671">
        <ele>6</ele>
        <time>2026-02-28T09:13:34Z</time>
      </trkpt>
      <trkpt lat="43.36269" lon="-1.63668">
        <ele>6</ele>
        <time>2026-02-28T09:13:37Z</time>
      </trkpt>
      <trkpt lat="43.36254" lon="-1.63665">
        <ele>6</ele>
        <time>2026-02-28T09:13:40Z</time>
      </trkpt>
      <trkpt lat="43.36233" lon="-1.63657">
        <ele>6</ele>
        <time>2026-02-28T09:13:44Z</time>
      </trkpt>
      <trkpt lat="43.36097" lon="-1.63603">
        <ele>5</ele>
        <time>2026-02-28T09:14:09Z</time>
      </trkpt>
      <trkpt lat="43.36075" lon="-1.63589">
        <ele>5</ele>
        <time>2026-02-28T09:14:13Z</time>
      </trkpt>
      <trkpt lat="43.36061" lon="-1.63577">
        <ele>5</ele>
        <time>2026-02-28T09:14:16Z</time>
      </trkpt>
      <trkpt lat="43.36039" lon="-1.63549">
        <ele>6</ele>
        <time>2026-02-28T09:14:22Z</time>
      </trkpt>
      <trkpt lat="43.36029" lon="-1.63531">
        <ele>6</ele>
        <time>2026-02-28T09:14:24Z</time>
      </trkpt>
      <trkpt lat="43.36014" lon="-1.63501">
        <ele>6</ele>
        <time>2026-02-28T09:14:29Z</time>
      </trkpt>
      <trkpt lat="43.35995" lon="-1.63453">
        <ele>8</ele>
        <time>2026-02-28T09:14:36Z</time>
      </trkpt>
      <trkpt lat="43.35984" lon="-1.63434">
        <ele>8</ele>
        <time>2026-02-28T09:14:39Z</time>
      </trkpt>
      <trkpt lat="43.35935" lon="-1.63358">
        <ele>9</ele>
        <time>2026-02-28T09:14:53Z</time>
      </trkpt>
      <trkpt lat="43.35921" lon="-1.63341">
        <ele>8</ele>
        <time>2026-02-28T09:14:56Z</time>
      </trkpt>
      <trkpt lat="43.35859" lon="-1.6328">
        <ele>9</ele>
        <time>2026-02-28T09:15:09Z</time>
      </trkpt>
      <trkpt lat="43.35853" lon="-1.63275">
        <ele>9</ele>
        <time>2026-02-28T09:15:11Z</time>
      </trkpt>
      <trkpt lat="43.35789" lon="-1.63219">
        <ele>9</ele>
        <time>2026-02-28T09:15:24Z</time>
      </trkpt>
      <trkpt lat="43.3575" lon="-1.63192">
        <ele>7</ele>
        <time>2026-02-28T09:15:32Z</time>
      </trkpt>
      <trkpt lat="43.35728" lon="-1.63183">
        <ele>7</ele>
        <time>2026-02-28T09:15:36Z</time>
      </trkpt>
      <trkpt lat="43.35699" lon="-1.63173">
        <ele>6</ele>
        <time>2026-02-28T09:15:41Z</time>
      </trkpt>
      <trkpt lat="43.35678" lon="-1.63165">
        <ele>6</ele>
        <time>2026-02-28T09:15:45Z</time>
      </trkpt>
      <trkpt lat="43.35667" lon="-1.63163">
        <ele>6</ele>
        <time>2026-02-28T09:15:47Z</time>
      </trkpt>
      <trkpt lat="43.35663" lon="-1.63166">
        <ele>6</ele>
        <time>2026-02-28T09:15:48Z</time>
      </trkpt>
      <trkpt lat="43.35657" lon="-1.63166">
        <ele>6</ele>
        <time>2026-02-28T09:15:49Z</time>
      </trkpt>
      <trkpt lat="43.35652" lon="-1.63164">
        <ele>6</ele>
        <time>2026-02-28T09:15:50Z</time>
      </trkpt>
      <trkpt lat="43.35648" lon="-1.63159">
        <ele>6</ele>
        <time>2026-02-28T09:15:51Z</time>
      </trkpt>
      <trkpt lat="43.3564" lon="-1.63155">
        <ele>6</ele>
        <time>2026-02-28T09:15:52Z</time>
      </trkpt>
      <trkpt lat="43.35614" lon="-1.63148">
        <ele>5</ele>
        <time>2026-02-28T09:15:57Z</time>
      </trkpt>
      <trkpt lat="43.3561" lon="-1.63147">
        <ele>5</ele>
        <time>2026-02-28T09:15:58Z</time>
      </trkpt>
      <trkpt lat="43.3544" lon="-1.63097">
        <ele>6</ele>
        <time>2026-02-28T09:16:29Z</time>
      </trkpt>
      <trkpt lat="43.35415" lon="-1.63087">
        <ele>7</ele>
        <time>2026-02-28T09:16:33Z</time>
      </trkpt>
      <trkpt lat="43.35403" lon="-1.63082">
        <ele>7</ele>
        <time>2026-02-28T09:16:36Z</time>
      </trkpt>
      <trkpt lat="43.35386" lon="-1.63073">
        <ele>7</ele>
        <time>2026-02-28T09:16:39Z</time>
      </trkpt>
      <trkpt lat="43.3535" lon="-1.63044">
        <ele>7</ele>
        <time>2026-02-28T09:16:46Z</time>
      </trkpt>
      <trkpt lat="43.35306" lon="-1.62998">
        <ele>6</ele>
        <time>2026-02-28T09:16:56Z</time>
      </trkpt>
      <trkpt lat="43.35289" lon="-1.62974">
        <ele>6</ele>
        <time>2026-02-28T09:17:01Z</time>
      </trkpt>
      <trkpt lat="43.35268" lon="-1.62932">
        <ele>6</ele>
        <time>2026-02-28T09:17:07Z</time>
      </trkpt>
      <trkpt lat="43.35255" lon="-1.629">
        <ele>6</ele>
        <time>2026-02-28T09:17:12Z</time>
      </trkpt>
      <trkpt lat="43.35207" lon="-1.62759">
        <ele>8</ele>
        <time>2026-02-28T09:17:32Z</time>
      </trkpt>
      <trkpt lat="43.3519" lon="-1.62714">
        <ele>8</ele>
        <time>2026-02-28T09:17:39Z</time>
      </trkpt>
      <trkpt lat="43.35142" lon="-1.62592">
        <ele>12</ele>
        <time>2026-02-28T09:17:57Z</time>
      </trkpt>
      <trkpt lat="43.35138" lon="-1.62581">
        <ele>12</ele>
        <time>2026-02-28T09:17:58Z</time>
      </trkpt>
      <trkpt lat="43.35123" lon="-1.62544">
        <ele>12</ele>
        <time>2026-02-28T09:18:04Z</time>
      </trkpt>
      <trkpt lat="43.35118" lon="-1.62528">
        <ele>12</ele>
        <time>2026-02-28T09:18:06Z</time>
      </trkpt>
      <trkpt lat="43.35115" lon="-1.62516">
        <ele>12</ele>
        <time>2026-02-28T09:18:08Z</time>
      </trkpt>
      <trkpt lat="43.35111" lon="-1.62501">
        <ele>11</ele>
        <time>2026-02-28T09:18:10Z</time>
      </trkpt>
      <trkpt lat="43.35103" lon="-1.62461">
        <ele>10</ele>
        <time>2026-02-28T09:18:15Z</time>
      </trkpt>
      <trkpt lat="43.35103" lon="-1.62402">
        <ele>11</ele>
        <time>2026-02-28T09:18:23Z</time>
      </trkpt>
      <trkpt lat="43.35106" lon="-1.62363">
        <ele>10</ele>
        <time>2026-02-28T09:18:28Z</time>
      </trkpt>
      <trkpt lat="43.35109" lon="-1.62334">
        <ele>10</ele>
        <time>2026-02-28T09:18:31Z</time>
      </trkpt>
      <trkpt lat="43.35113" lon="-1.62319">
        <ele>10</ele>
        <time>2026-02-28T09:18:34Z</time>
      </trkpt>
      <trkpt lat="43.35127" lon="-1.62289">
        <ele>11</ele>
        <time>2026-02-28T09:18:38Z</time>
      </trkpt>
      <trkpt lat="43.35181" lon="-1.62185">
        <ele>11</ele>
        <time>2026-02-28T09:18:55Z</time>
      </trkpt>
      <trkpt lat="43.35201" lon="-1.62157">
        <ele>12</ele>
        <time>2026-02-28T09:19:00Z</time>
      </trkpt>
      <trkpt lat="43.35214" lon="-1.62143">
        <ele>12</ele>
        <time>2026-02-28T09:19:03Z</time>
      </trkpt>
      <trkpt lat="43.3524" lon="-1.62126">
        <ele>14</ele>
        <time>2026-02-28T09:19:08Z</time>
      </trkpt>
      <trkpt lat="43.35384" lon="-1.6207">
        <ele>21</ele>
        <time>2026-02-28T09:19:34Z</time>
      </trkpt>
      <trkpt lat="43.35407" lon="-1.6206">
        <ele>21</ele>
        <time>2026-02-28T09:19:39Z</time>
      </trkpt>
      <trkpt lat="43.35432" lon="-1.62045">
        <ele>21</ele>
        <time>2026-02-28T09:19:44Z</time>
      </trkpt>
      <trkpt lat="43.35486" lon="-1.62001">
        <ele>18</ele>
        <time>2026-02-28T09:19:55Z</time>
      </trkpt>
      <trkpt lat="43.35515" lon="-1.61963">
        <ele>18</ele>
        <time>2026-02-28T09:20:02Z</time>
      </trkpt>
      <trkpt lat="43.35609" lon="-1.61816">
        <ele>13</ele>
        <time>2026-02-28T09:20:27Z</time>
      </trkpt>
      <trkpt lat="43.35787" lon="-1.61535">
        <ele>14</ele>
        <time>2026-02-28T09:21:15Z</time>
      </trkpt>
      <trkpt lat="43.35815" lon="-1.61503">
        <ele>12</ele>
        <time>2026-02-28T09:21:22Z</time>
      </trkpt>
      <trkpt lat="43.35913" lon="-1.61419">
        <ele>16</ele>
        <time>2026-02-28T09:21:42Z</time>
      </trkpt>
      <trkpt lat="43.35934" lon="-1.61396">
        <ele>16</ele>
        <time>2026-02-28T09:21:47Z</time>
      </trkpt>
      <trkpt lat="43.35992" lon="-1.61321">
        <ele>11</ele>
        <time>2026-02-28T09:22:01Z</time>
      </trkpt>
      <trkpt lat="43.36033" lon="-1.61268">
        <ele>11</ele>
        <time>2026-02-28T09:22:11Z</time>
      </trkpt>
      <trkpt lat="43.36051" lon="-1.61238">
        <ele>11</ele>
        <time>2026-02-28T09:22:16Z</time>
      </trkpt>
      <trkpt lat="43.36058" lon="-1.61226">
        <ele>11</ele>
        <time>2026-02-28T09:22:18Z</time>
      </trkpt>
      <trkpt lat="43.36075" lon="-1.61188">
        <ele>12</ele>
        <time>2026-02-28T09:22:24Z</time>
      </trkpt>
      <trkpt lat="43.36091" lon="-1.61139">
        <ele>13</ele>
        <time>2026-02-28T09:22:31Z</time>
      </trkpt>
      <trkpt lat="43.36101" lon="-1.61078">
        <ele>15</ele>
        <time>2026-02-28T09:22:39Z</time>
      </trkpt>
      <trkpt lat="43.36105" lon="-1.61018">
        <ele>17</ele>
        <time>2026-02-28T09:22:47Z</time>
      </trkpt>
      <trkpt lat="43.36113" lon="-1.60838">
        <ele>16</ele>
        <time>2026-02-28T09:23:10Z</time>
      </trkpt>
      <trkpt lat="43.36114" lon="-1.60831">
        <ele>16</ele>
        <time>2026-02-28T09:23:11Z</time>
      </trkpt>
      <trkpt lat="43.36119" lon="-1.6075">
        <ele>18</ele>
        <time>2026-02-28T09:23:22Z</time>
      </trkpt>
      <trkpt lat="43.36118" lon="-1.60724">
        <ele>18</ele>
        <time>2026-02-28T09:23:25Z</time>
      </trkpt>
      <trkpt lat="43.36107" lon="-1.60616">
        <ele>18</ele>
        <time>2026-02-28T09:23:39Z</time>
      </trkpt>
      <trkpt lat="43.36104" lon="-1.60585">
        <ele>18</ele>
        <time>2026-02-28T09:23:43Z</time>
      </trkpt>
      <trkpt lat="43.36102" lon="-1.60551">
        <ele>17</ele>
        <time>2026-02-28T09:23:48Z</time>
      </trkpt>
      <trkpt lat="43.36102" lon="-1.60519">
        <ele>17</ele>
        <time>2026-02-28T09:23:52Z</time>
      </trkpt>
      <trkpt lat="43.36103" lon="-1.60494">
        <ele>17</ele>
        <time>2026-02-28T09:23:55Z</time>
      </trkpt>
      <trkpt lat="43.36109" lon="-1.60462">
        <ele>16</ele>
        <time>2026-02-28T09:23:59Z</time>
      </trkpt>
      <trkpt lat="43.36116" lon="-1.60439">
        <ele>16</ele>
        <time>2026-02-28T09:24:03Z</time>
      </trkpt>
      <trkpt lat="43.36126" lon="-1.60409">
        <ele>15</ele>
        <time>2026-02-28T09:24:07Z</time>
      </trkpt>
      <trkpt lat="43.36138" lon="-1.60384">
        <ele>15</ele>
        <time>2026-02-28T09:24:11Z</time>
      </trkpt>
      <trkpt lat="43.36153" lon="-1.60362">
        <ele>14</ele>
        <time>2026-02-28T09:24:15Z</time>
      </trkpt>
      <trkpt lat="43.36173" lon="-1.60338">
        <ele>13</ele>
        <time>2026-02-28T09:24:19Z</time>
      </trkpt>
      <trkpt lat="43.36211" lon="-1.60302">
        <ele>16</ele>
        <time>2026-02-28T09:24:28Z</time>
      </trkpt>
      <trkpt lat="43.36264" lon="-1.60257">
        <ele>19</ele>
        <time>2026-02-28T09:24:39Z</time>
      </trkpt>
      <trkpt lat="43.36299" lon="-1.60225">
        <ele>21</ele>
        <time>2026-02-28T09:24:46Z</time>
      </trkpt>
      <trkpt lat="43.36316" lon="-1.60201">
        <ele>20</ele>
        <time>2026-02-28T09:24:50Z</time>
      </trkpt>
      <trkpt lat="43.36336" lon="-1.60166">
        <ele>16</ele>
        <time>2026-02-28T09:24:56Z</time>
      </trkpt>
      <trkpt lat="43.36371" lon="-1.60073">
        <ele>15</ele>
        <time>2026-02-28T09:25:10Z</time>
      </trkpt>
      <trkpt lat="43.36387" lon="-1.60042">
        <ele>15</ele>
        <time>2026-02-28T09:25:15Z</time>
      </trkpt>
      <trkpt lat="43.36404" lon="-1.60015">
        <ele>14</ele>
        <time>2026-02-28T09:25:19Z</time>
      </trkpt>
      <trkpt lat="43.36418" lon="-1.59996">
        <ele>13</ele>
        <time>2026-02-28T09:25:23Z</time>
      </trkpt>
      <trkpt lat="43.36447" lon="-1.59965">
        <ele>14</ele>
        <time>2026-02-28T09:25:29Z</time>
      </trkpt>
      <trkpt lat="43.36476" lon="-1.5994">
        <ele>14</ele>
        <time>2026-02-28T09:25:35Z</time>
      </trkpt>
      <trkpt lat="43.36504" lon="-1.59919">
        <ele>13</ele>
        <time>2026-02-28T09:25:41Z</time>
      </trkpt>
      <trkpt lat="43.36533" lon="-1.59897">
        <ele>16</ele>
        <time>2026-02-28T09:25:47Z</time>
      </trkpt>
      <trkpt lat="43.36549" lon="-1.59873">
        <ele>17</ele>
        <time>2026-02-28T09:25:51Z</time>
      </trkpt>
      <trkpt lat="43.36562" lon="-1.59843">
        <ele>18</ele>
        <time>2026-02-28T09:25:56Z</time>
      </trkpt>
      <trkpt lat="43.36567" lon="-1.59809">
        <ele>18</ele>
        <time>2026-02-28T09:26:00Z</time>
      </trkpt>
      <trkpt lat="43.36588" lon="-1.59546">
        <ele>11</ele>
        <time>2026-02-28T09:26:34Z</time>
      </trkpt>
      <trkpt lat="43.36592" lon="-1.59482">
        <ele>9</ele>
        <time>2026-02-28T09:26:43Z</time>
      </trkpt>
      <trkpt lat="43.36589" lon="-1.5943">
        <ele>9</ele>
        <time>2026-02-28T09:26:49Z</time>
      </trkpt>
      <trkpt lat="43.36581" lon="-1.59376">
        <ele>9</ele>
        <time>2026-02-28T09:26:57Z</time>
      </trkpt>
      <trkpt lat="43.36538" lon="-1.59228">
        <ele>10</ele>
        <time>2026-02-28T09:27:17Z</time>
      </trkpt>
      <trkpt lat="43.36482" lon="-1.59044">
        <ele>9</ele>
        <time>2026-02-28T09:27:43Z</time>
      </trkpt>
      <trkpt lat="43.3646" lon="-1.58976">
        <ele>11</ele>
        <time>2026-02-28T09:27:53Z</time>
      </trkpt>
      <trkpt lat="43.36444" lon="-1.58941">
        <ele>12</ele>
        <time>2026-02-28T09:27:58Z</time>
      </trkpt>
      <trkpt lat="43.36427" lon="-1.58913">
        <ele>13</ele>
        <time>2026-02-28T09:28:03Z</time>
      </trkpt>
      <trkpt lat="43.36402" lon="-1.58885">
        <ele>17</ele>
        <time>2026-02-28T09:28:08Z</time>
      </trkpt>
      <trkpt lat="43.36308" lon="-1.58801">
        <ele>19</ele>
        <time>2026-02-28T09:28:28Z</time>
      </trkpt>
      <trkpt lat="43.3628" lon="-1.58766">
        <ele>18</ele>
        <time>2026-02-28T09:28:35Z</time>
      </trkpt>
      <trkpt lat="43.36257" lon="-1.58723">
        <ele>14</ele>
        <time>2026-02-28T09:28:42Z</time>
      </trkpt>
      <trkpt lat="43.36232" lon="-1.58645">
        <ele>11</ele>
        <time>2026-02-28T09:28:53Z</time>
      </trkpt>
      <trkpt lat="43.36164" lon="-1.58429">
        <ele>12</ele>
        <time>2026-02-28T09:29:24Z</time>
      </trkpt>
      <trkpt lat="43.36139" lon="-1.58363">
        <ele>12</ele>
        <time>2026-02-28T09:29:33Z</time>
      </trkpt>
      <trkpt lat="43.36129" lon="-1.58341">
        <ele>12</ele>
        <time>2026-02-28T09:29:36Z</time>
      </trkpt>
      <trkpt lat="43.36109" lon="-1.58303">
        <ele>12</ele>
        <time>2026-02-28T09:29:43Z</time>
      </trkpt>
      <trkpt lat="43.36003" lon="-1.58148">
        <ele>11</ele>
        <time>2026-02-28T09:30:10Z</time>
      </trkpt>
      <trkpt lat="43.35991" lon="-1.58131">
        <ele>11</ele>
        <time>2026-02-28T09:30:13Z</time>
      </trkpt>
      <trkpt lat="43.35894" lon="-1.57993">
        <ele>11</ele>
        <time>2026-02-28T09:30:38Z</time>
      </trkpt>
      <trkpt lat="43.35882" lon="-1.57972">
        <ele>11</ele>
        <time>2026-02-28T09:30:41Z</time>
      </trkpt>
      <trkpt lat="43.35852" lon="-1.57913">
        <ele>12</ele>
        <time>2026-02-28T09:30:51Z</time>
      </trkpt>
      <trkpt lat="43.35838" lon="-1.57869">
        <ele>11</ele>
        <time>2026-02-28T09:30:57Z</time>
      </trkpt>
      <trkpt lat="43.35807" lon="-1.5772">
        <ele>12</ele>
        <time>2026-02-28T09:31:17Z</time>
      </trkpt>
      <trkpt lat="43.35783" lon="-1.57586">
        <ele>13</ele>
        <time>2026-02-28T09:31:35Z</time>
      </trkpt>
      <trkpt lat="43.35779" lon="-1.57552">
        <ele>13</ele>
        <time>2026-02-28T09:31:39Z</time>
      </trkpt>
      <trkpt lat="43.35779" lon="-1.57526">
        <ele>13</ele>
        <time>2026-02-28T09:31:43Z</time>
      </trkpt>
      <trkpt lat="43.35773" lon="-1.57481">
        <ele>13</ele>
        <time>2026-02-28T09:31:49Z</time>
      </trkpt>
      <trkpt lat="43.3577" lon="-1.57476">
        <ele>13</ele>
        <time>2026-02-28T09:31:49Z</time>
      </trkpt>
      <trkpt lat="43.35768" lon="-1.57469">
        <ele>13</ele>
        <time>2026-02-28T09:31:50Z</time>
      </trkpt>
      <trkpt lat="43.35771" lon="-1.57458">
        <ele>13</ele>
        <time>2026-02-28T09:31:52Z</time>
      </trkpt>
      <trkpt lat="43.35767" lon="-1.57433">
        <ele>13</ele>
        <time>2026-02-28T09:31:55Z</time>
      </trkpt>
      <trkpt lat="43.35763" lon="-1.57418">
        <ele>13</ele>
        <time>2026-02-28T09:31:57Z</time>
      </trkpt>
      <trkpt lat="43.35758" lon="-1.57366">
        <ele>13</ele>
        <time>2026-02-28T09:32:04Z</time>
      </trkpt>
      <trkpt lat="43.35756" lon="-1.57342">
        <ele>13</ele>
        <time>2026-02-28T09:32:07Z</time>
      </trkpt>
      <trkpt lat="43.35754" lon="-1.57323">
        <ele>13</ele>
        <time>2026-02-28T09:32:10Z</time>
      </trkpt>
      <trkpt lat="43.35751" lon="-1.57286">
        <ele>14</ele>
        <time>2026-02-28T09:32:15Z</time>
      </trkpt>
      <trkpt lat="43.35745" lon="-1.57225">
        <ele>14</ele>
        <time>2026-02-28T09:32:22Z</time>
      </trkpt>
      <trkpt lat="43.3574" lon="-1.57189">
        <ele>15</ele>
        <time>2026-02-28T09:32:27Z</time>
      </trkpt>
      <trkpt lat="43.35733" lon="-1.5716">
        <ele>15</ele>
        <time>2026-02-28T09:32:31Z</time>
      </trkpt>
      <trkpt lat="43.35723" lon="-1.57132">
        <ele>15</ele>
        <time>2026-02-28T09:32:35Z</time>
      </trkpt>
      <trkpt lat="43.35681" lon="-1.57042">
        <ele>15</ele>
        <time>2026-02-28T09:32:49Z</time>
      </trkpt>
      <trkpt lat="43.35664" lon="-1.57006">
        <ele>15</ele>
        <time>2026-02-28T09:32:55Z</time>
      </trkpt>
      <trkpt lat="43.35625" lon="-1.56922">
        <ele>17</ele>
        <time>2026-02-28T09:33:08Z</time>
      </trkpt>
      <trkpt lat="43.35617" lon="-1.5691">
        <ele>17</ele>
        <time>2026-02-28T09:33:10Z</time>
      </trkpt>
      <trkpt lat="43.35597" lon="-1.56872">
        <ele>17</ele>
        <time>2026-02-28T09:33:16Z</time>
      </trkpt>
      <trkpt lat="43.35588" lon="-1.56851">
        <ele>17</ele>
        <time>2026-02-28T09:33:19Z</time>
      </trkpt>
      <trkpt lat="43.35586" lon="-1.56839">
        <ele>17</ele>
        <time>2026-02-28T09:33:20Z</time>
      </trkpt>
      <trkpt lat="43.35585" lon="-1.56813">
        <ele>17</ele>
        <time>2026-02-28T09:33:24Z</time>
      </trkpt>
      <trkpt lat="43.35589" lon="-1.56787">
        <ele>17</ele>
        <time>2026-02-28T09:33:27Z</time>
      </trkpt>
      <trkpt lat="43.35608" lon="-1.56729">
        <ele>18</ele>
        <time>2026-02-28T09:33:35Z</time>
      </trkpt>
      <trkpt lat="43.35617" lon="-1.56692">
        <ele>19</ele>
        <time>2026-02-28T09:33:41Z</time>
      </trkpt>
      <trkpt lat="43.35619" lon="-1.56681">
        <ele>19</ele>
        <time>2026-02-28T09:33:42Z</time>
      </trkpt>
      <trkpt lat="43.35625" lon="-1.56642">
        <ele>19</ele>
        <time>2026-02-28T09:33:47Z</time>
      </trkpt>
      <trkpt lat="43.35625" lon="-1.56626">
        <ele>19</ele>
        <time>2026-02-28T09:33:49Z</time>
      </trkpt>
      <trkpt lat="43.35624" lon="-1.56615">
        <ele>19</ele>
        <time>2026-02-28T09:33:51Z</time>
      </trkpt>
      <trkpt lat="43.35619" lon="-1.56612">
        <ele>19</ele>
        <time>2026-02-28T09:33:52Z</time>
      </trkpt>
      <trkpt lat="43.35615" lon="-1.56601">
        <ele>19</ele>
        <time>2026-02-28T09:33:53Z</time>
      </trkpt>
      <trkpt lat="43.35617" lon="-1.56593">
        <ele>19</ele>
        <time>2026-02-28T09:33:54Z</time>
      </trkpt>
      <trkpt lat="43.35624" lon="-1.56587">
        <ele>19</ele>
        <time>2026-02-28T09:33:56Z</time>
      </trkpt>
      <trkpt lat="43.35624" lon="-1.56576">
        <ele>19</ele>
        <time>2026-02-28T09:33:57Z</time>
      </trkpt>
      <trkpt lat="43.35622" lon="-1.56558">
        <ele>19</ele>
        <time>2026-02-28T09:34:00Z</time>
      </trkpt>
      <trkpt lat="43.35622" lon="-1.56509">
        <ele>19</ele>
        <time>2026-02-28T09:34:06Z</time>
      </trkpt>
      <trkpt lat="43.35616" lon="-1.56498">
        <ele>18</ele>
        <time>2026-02-28T09:34:08Z</time>
      </trkpt>
      <trkpt lat="43.35612" lon="-1.56369">
        <ele>18</ele>
        <time>2026-02-28T09:34:24Z</time>
      </trkpt>
      <trkpt lat="43.3561" lon="-1.56297">
        <ele>18</ele>
        <time>2026-02-28T09:34:34Z</time>
      </trkpt>
      <trkpt lat="43.35609" lon="-1.56223">
        <ele>18</ele>
        <time>2026-02-28T09:34:43Z</time>
      </trkpt>
      <trkpt lat="43.35614" lon="-1.56149">
        <ele>19</ele>
        <time>2026-02-28T09:34:53Z</time>
      </trkpt>
      <trkpt lat="43.35618" lon="-1.56125">
        <ele>18</ele>
        <time>2026-02-28T09:34:56Z</time>
      </trkpt>
      <trkpt lat="43.35635" lon="-1.56094">
        <ele>18</ele>
        <time>2026-02-28T09:35:01Z</time>
      </trkpt>
      <trkpt lat="43.35642" lon="-1.56085">
        <ele>17</ele>
        <time>2026-02-28T09:35:03Z</time>
      </trkpt>
      <trkpt lat="43.35648" lon="-1.5608">
        <ele>17</ele>
        <time>2026-02-28T09:35:04Z</time>
      </trkpt>
      <trkpt lat="43.35652" lon="-1.56087">
        <ele>18</ele>
        <time>2026-02-28T09:35:05Z</time>
      </trkpt>
      <trkpt lat="43.35697" lon="-1.56057">
        <ele>18</ele>
        <time>2026-02-28T09:35:14Z</time>
      </trkpt>
      <trkpt lat="43.35721" lon="-1.56041">
        <ele>19</ele>
        <time>2026-02-28T09:35:19Z</time>
      </trkpt>
      <trkpt lat="43.3573" lon="-1.56032">
        <ele>19</ele>
        <time>2026-02-28T09:35:21Z</time>
      </trkpt>
      <trkpt lat="43.35734" lon="-1.56023">
        <ele>19</ele>
        <time>2026-02-28T09:35:22Z</time>
      </trkpt>
      <trkpt lat="43.35739" lon="-1.56006">
        <ele>18</ele>
        <time>2026-02-28T09:35:25Z</time>
      </trkpt>
      <trkpt lat="43.35737" lon="-1.55994">
        <ele>17</ele>
        <time>2026-02-28T09:35:26Z</time>
      </trkpt>
      <trkpt lat="43.35718" lon="-1.5597">
        <ele>16</ele>
        <time>2026-02-28T09:35:31Z</time>
      </trkpt>
      <trkpt lat="43.35682" lon="-1.55941">
        <ele>16</ele>
        <time>2026-02-28T09:35:38Z</time>
      </trkpt>
      <trkpt lat="43.35646" lon="-1.55913">
        <ele>16</ele>
        <time>2026-02-28T09:35:46Z</time>
      </trkpt>
      <trkpt lat="43.35632" lon="-1.55899">
        <ele>15</ele>
        <time>2026-02-28T09:35:49Z</time>
      </trkpt>
      <trkpt lat="43.35606" lon="-1.55857">
        <ele>15</ele>
        <time>2026-02-28T09:35:56Z</time>
      </trkpt>
      <trkpt lat="43.35592" lon="-1.55814">
        <ele>15</ele>
        <time>2026-02-28T09:36:02Z</time>
      </trkpt>
      <trkpt lat="43.35588" lon="-1.55791">
        <ele>16</ele>
        <time>2026-02-28T09:36:05Z</time>
      </trkpt>
      <trkpt lat="43.35585" lon="-1.55731">
        <ele>16</ele>
        <time>2026-02-28T09:36:13Z</time>
      </trkpt>
      <trkpt lat="43.35581" lon="-1.55514">
        <ele>13</ele>
        <time>2026-02-28T09:36:41Z</time>
      </trkpt>
      <trkpt lat="43.35579" lon="-1.55487">
        <ele>14</ele>
        <time>2026-02-28T09:36:44Z</time>
      </trkpt>
      <trkpt lat="43.35575" lon="-1.55466">
        <ele>14</ele>
        <time>2026-02-28T09:36:47Z</time>
      </trkpt>
      <trkpt lat="43.35561" lon="-1.55442">
        <ele>15</ele>
        <time>2026-02-28T09:36:51Z</time>
      </trkpt>
      <trkpt lat="43.35552" lon="-1.55434">
        <ele>15</ele>
        <time>2026-02-28T09:36:53Z</time>
      </trkpt>
      <trkpt lat="43.35547" lon="-1.55433">
        <ele>15</ele>
        <time>2026-02-28T09:36:54Z</time>
      </trkpt>
      <trkpt lat="43.3554" lon="-1.55426">
        <ele>15</ele>
        <time>2026-02-28T09:36:55Z</time>
      </trkpt>
      <trkpt lat="43.35537" lon="-1.55419">
        <ele>15</ele>
        <time>2026-02-28T09:36:56Z</time>
      </trkpt>
      <trkpt lat="43.35537" lon="-1.55411">
        <ele>16</ele>
        <time>2026-02-28T09:36:57Z</time>
      </trkpt>
      <trkpt lat="43.35523" lon="-1.55388">
        <ele>16</ele>
        <time>2026-02-28T09:37:01Z</time>
      </trkpt>
      <trkpt lat="43.35509" lon="-1.55378">
        <ele>16</ele>
        <time>2026-02-28T09:37:04Z</time>
      </trkpt>
      <trkpt lat="43.35483" lon="-1.5537">
        <ele>16</ele>
        <time>2026-02-28T09:37:09Z</time>
      </trkpt>
      <trkpt lat="43.35456" lon="-1.55371">
        <ele>16</ele>
        <time>2026-02-28T09:37:14Z</time>
      </trkpt>
      <trkpt lat="43.35398" lon="-1.5538">
        <ele>16</ele>
        <time>2026-02-28T09:37:24Z</time>
      </trkpt>
      <trkpt lat="43.35369" lon="-1.55382">
        <ele>16</ele>
        <time>2026-02-28T09:37:29Z</time>
      </trkpt>
      <trkpt lat="43.35338" lon="-1.55377">
        <ele>16</ele>
        <time>2026-02-28T09:37:35Z</time>
      </trkpt>
      <trkpt lat="43.35313" lon="-1.55363">
        <ele>17</ele>
        <time>2026-02-28T09:37:40Z</time>
      </trkpt>
      <trkpt lat="43.35293" lon="-1.55347">
        <ele>17</ele>
        <time>2026-02-28T09:37:44Z</time>
      </trkpt>
      <trkpt lat="43.35274" lon="-1.55324">
        <ele>18</ele>
        <time>2026-02-28T09:37:48Z</time>
      </trkpt>
      <trkpt lat="43.3524" lon="-1.55257">
        <ele>17</ele>
        <time>2026-02-28T09:37:59Z</time>
      </trkpt>
      <trkpt lat="43.35209" lon="-1.55187">
        <ele>16</ele>
        <time>2026-02-28T09:38:09Z</time>
      </trkpt>
      <trkpt lat="43.35174" lon="-1.55105">
        <ele>16</ele>
        <time>2026-02-28T09:38:22Z</time>
      </trkpt>
      <trkpt lat="43.35123" lon="-1.5499">
        <ele>18</ele>
        <time>2026-02-28T09:38:39Z</time>
      </trkpt>
      <trkpt lat="43.35117" lon="-1.54993">
        <ele>18</ele>
        <time>2026-02-28T09:38:40Z</time>
      </trkpt>
      <trkpt lat="43.3511" lon="-1.54994">
        <ele>18</ele>
        <time>2026-02-28T09:38:42Z</time>
      </trkpt>
      <trkpt lat="43.35104" lon="-1.54993">
        <ele>18</ele>
        <time>2026-02-28T09:38:43Z</time>
      </trkpt>
      <trkpt lat="43.35098" lon="-1.54988">
        <ele>18</ele>
        <time>2026-02-28T09:38:44Z</time>
      </trkpt>
      <trkpt lat="43.35091" lon="-1.54976">
        <ele>18</ele>
        <time>2026-02-28T09:38:46Z</time>
      </trkpt>
      <trkpt lat="43.3509" lon="-1.54968">
        <ele>19</ele>
        <time>2026-02-28T09:38:47Z</time>
      </trkpt>
      <trkpt lat="43.3509" lon="-1.54959">
        <ele>19</ele>
        <time>2026-02-28T09:38:48Z</time>
      </trkpt>
      <trkpt lat="43.35092" lon="-1.54951">
        <ele>19</ele>
        <time>2026-02-28T09:38:49Z</time>
      </trkpt>
      <trkpt lat="43.35085" lon="-1.5492">
        <ele>20</ele>
        <time>2026-02-28T09:38:53Z</time>
      </trkpt>
      <trkpt lat="43.35076" lon="-1.54912">
        <ele>20</ele>
        <time>2026-02-28T09:38:55Z</time>
      </trkpt>
      <trkpt lat="43.35054" lon="-1.54901">
        <ele>21</ele>
        <time>2026-02-28T09:38:59Z</time>
      </trkpt>
      <trkpt lat="43.34941" lon="-1.54841">
        <ele>23</ele>
        <time>2026-02-28T09:39:21Z</time>
      </trkpt>
      <trkpt lat="43.34909" lon="-1.54821">
        <ele>24</ele>
        <time>2026-02-28T09:39:27Z</time>
      </trkpt>
      <trkpt lat="43.34888" lon="-1.548">
        <ele>25</ele>
        <time>2026-02-28T09:39:32Z</time>
      </trkpt>
      <trkpt lat="43.34869" lon="-1.54775">
        <ele>25</ele>
        <time>2026-02-28T09:39:37Z</time>
      </trkpt>
      <trkpt lat="43.34826" lon="-1.54709">
        <ele>26</ele>
        <time>2026-02-28T09:39:48Z</time>
      </trkpt>
      <trkpt lat="43.347" lon="-1.54509">
        <ele>28</ele>
        <time>2026-02-28T09:40:22Z</time>
      </trkpt>
      <trkpt lat="43.34688" lon="-1.54483">
        <ele>28</ele>
        <time>2026-02-28T09:40:26Z</time>
      </trkpt>
      <trkpt lat="43.3468" lon="-1.5445">
        <ele>29</ele>
        <time>2026-02-28T09:40:31Z</time>
      </trkpt>
      <trkpt lat="43.34678" lon="-1.54431">
        <ele>30</ele>
        <time>2026-02-28T09:40:33Z</time>
      </trkpt>
      <trkpt lat="43.34674" lon="-1.54364">
        <ele>32</ele>
        <time>2026-02-28T09:40:42Z</time>
      </trkpt>
      <trkpt lat="43.34673" lon="-1.54279">
        <ele>35</ele>
        <time>2026-02-28T09:40:53Z</time>
      </trkpt>
      <trkpt lat="43.34667" lon="-1.54235">
        <ele>36</ele>
        <time>2026-02-28T09:40:59Z</time>
      </trkpt>
      <trkpt lat="43.34661" lon="-1.5421">
        <ele>37</ele>
        <time>2026-02-28T09:41:02Z</time>
      </trkpt>
      <trkpt lat="43.3465" lon="-1.54178">
        <ele>38</ele>
        <time>2026-02-28T09:41:07Z</time>
      </trkpt>
      <trkpt lat="43.34639" lon="-1.54155">
        <ele>37</ele>
        <time>2026-02-28T09:41:10Z</time>
      </trkpt>
      <trkpt lat="43.3459" lon="-1.54058">
        <ele>34</ele>
        <time>2026-02-28T09:41:26Z</time>
      </trkpt>
      <trkpt lat="43.34579" lon="-1.54025">
        <ele>34</ele>
        <time>2026-02-28T09:41:30Z</time>
      </trkpt>
      <trkpt lat="43.34572" lon="-1.53997">
        <ele>34</ele>
        <time>2026-02-28T09:41:34Z</time>
      </trkpt>
      <trkpt lat="43.34568" lon="-1.53959">
        <ele>34</ele>
        <time>2026-02-28T09:41:39Z</time>
      </trkpt>
      <trkpt lat="43.34567" lon="-1.53905">
        <ele>35</ele>
        <time>2026-02-28T09:41:46Z</time>
      </trkpt>
      <trkpt lat="43.34564" lon="-1.53862">
        <ele>37</ele>
        <time>2026-02-28T09:41:52Z</time>
      </trkpt>
      <trkpt lat="43.34557" lon="-1.53827">
        <ele>38</ele>
        <time>2026-02-28T09:41:56Z</time>
      </trkpt>
      <trkpt lat="43.34531" lon="-1.53721">
        <ele>38</ele>
        <time>2026-02-28T09:42:11Z</time>
      </trkpt>
      <trkpt lat="43.34523" lon="-1.53674">
        <ele>39</ele>
        <time>2026-02-28T09:42:17Z</time>
      </trkpt>
      <trkpt lat="43.34488" lon="-1.53413">
        <ele>43</ele>
        <time>2026-02-28T09:42:51Z</time>
      </trkpt>
      <trkpt lat="43.34469" lon="-1.53193">
        <ele>39</ele>
        <time>2026-02-28T09:43:20Z</time>
      </trkpt>
      <trkpt lat="43.34461" lon="-1.53096">
        <ele>41</ele>
        <time>2026-02-28T09:43:33Z</time>
      </trkpt>
      <trkpt lat="43.34451" lon="-1.53016">
        <ele>38</ele>
        <time>2026-02-28T09:43:43Z</time>
      </trkpt>
      <trkpt lat="43.34439" lon="-1.5296">
        <ele>36</ele>
        <time>2026-02-28T09:43:51Z</time>
      </trkpt>
      <trkpt lat="43.34431" lon="-1.52938">
        <ele>36</ele>
        <time>2026-02-28T09:43:54Z</time>
      </trkpt>
      <trkpt lat="43.34415" lon="-1.5291">
        <ele>35</ele>
        <time>2026-02-28T09:43:59Z</time>
      </trkpt>
      <trkpt lat="43.34359" lon="-1.52813">
        <ele>35</ele>
        <time>2026-02-28T09:44:15Z</time>
      </trkpt>
      <trkpt lat="43.34344" lon="-1.52803">
        <ele>36</ele>
        <time>2026-02-28T09:44:18Z</time>
      </trkpt>
      <trkpt lat="43.34338" lon="-1.52806">
        <ele>36</ele>
        <time>2026-02-28T09:44:19Z</time>
      </trkpt>
      <trkpt lat="43.3433" lon="-1.52804">
        <ele>36</ele>
        <time>2026-02-28T09:44:20Z</time>
      </trkpt>
      <trkpt lat="43.34323" lon="-1.52797">
        <ele>36</ele>
        <time>2026-02-28T09:44:22Z</time>
      </trkpt>
      <trkpt lat="43.34319" lon="-1.52783">
        <ele>36</ele>
        <time>2026-02-28T09:44:24Z</time>
      </trkpt>
      <trkpt lat="43.3432" lon="-1.52774">
        <ele>36</ele>
        <time>2026-02-28T09:44:25Z</time>
      </trkpt>
      <trkpt lat="43.34322" lon="-1.52767">
        <ele>36</ele>
        <time>2026-02-28T09:44:26Z</time>
      </trkpt>
      <trkpt lat="43.34321" lon="-1.52745">
        <ele>36</ele>
        <time>2026-02-28T09:44:29Z</time>
      </trkpt>
      <trkpt lat="43.34319" lon="-1.52742">
        <ele>36</ele>
        <time>2026-02-28T09:44:29Z</time>
      </trkpt>
      <trkpt lat="43.34312" lon="-1.52731">
        <ele>37</ele>
        <time>2026-02-28T09:44:31Z</time>
      </trkpt>
      <trkpt lat="43.34275" lon="-1.52668">
        <ele>40</ele>
        <time>2026-02-28T09:44:41Z</time>
      </trkpt>
      <trkpt lat="43.34271" lon="-1.5266">
        <ele>40</ele>
        <time>2026-02-28T09:44:43Z</time>
      </trkpt>
      <trkpt lat="43.34244" lon="-1.52614">
        <ele>41</ele>
        <time>2026-02-28T09:44:50Z</time>
      </trkpt>
      <trkpt lat="43.34179" lon="-1.52509">
        <ele>42</ele>
        <time>2026-02-28T09:45:08Z</time>
      </trkpt>
      <trkpt lat="43.34166" lon="-1.52489">
        <ele>41</ele>
        <time>2026-02-28T09:45:12Z</time>
      </trkpt>
      <trkpt lat="43.34142" lon="-1.52437">
        <ele>42</ele>
        <time>2026-02-28T09:45:20Z</time>
      </trkpt>
      <trkpt lat="43.34086" lon="-1.52305">
        <ele>42</ele>
        <time>2026-02-28T09:45:39Z</time>
      </trkpt>
      <trkpt lat="43.34079" lon="-1.52288">
        <ele>42</ele>
        <time>2026-02-28T09:45:42Z</time>
      </trkpt>
      <trkpt lat="43.3398" lon="-1.52055">
        <ele>41</ele>
        <time>2026-02-28T09:46:17Z</time>
      </trkpt>
      <trkpt lat="43.33974" lon="-1.52041">
        <ele>41</ele>
        <time>2026-02-28T09:46:19Z</time>
      </trkpt>
      <trkpt lat="43.3397" lon="-1.52028">
        <ele>41</ele>
        <time>2026-02-28T09:46:21Z</time>
      </trkpt>
      <trkpt lat="43.33845" lon="-1.51736">
        <ele>43</ele>
        <time>2026-02-28T09:47:05Z</time>
      </trkpt>
      <trkpt lat="43.33834" lon="-1.51711">
        <ele>44</ele>
        <time>2026-02-28T09:47:08Z</time>
      </trkpt>
      <trkpt lat="43.33772" lon="-1.51561">
        <ele>47</ele>
        <time>2026-02-28T09:47:31Z</time>
      </trkpt>
      <trkpt lat="43.33747" lon="-1.51498">
        <ele>47</ele>
        <time>2026-02-28T09:47:40Z</time>
      </trkpt>
      <trkpt lat="43.33643" lon="-1.51157">
        <ele>52</ele>
        <time>2026-02-28T09:48:28Z</time>
      </trkpt>
      <trkpt lat="43.33637" lon="-1.51133">
        <ele>52</ele>
        <time>2026-02-28T09:48:31Z</time>
      </trkpt>
      <trkpt lat="43.3363" lon="-1.51094">
        <ele>53</ele>
        <time>2026-02-28T09:48:36Z</time>
      </trkpt>
      <trkpt lat="43.33623" lon="-1.51041">
        <ele>54</ele>
        <time>2026-02-28T09:48:43Z</time>
      </trkpt>
      <trkpt lat="43.3359" lon="-1.50779">
        <ele>60</ele>
        <time>2026-02-28T09:49:18Z</time>
      </trkpt>
      <trkpt lat="43.33587" lon="-1.50738">
        <ele>62</ele>
        <time>2026-02-28T09:49:23Z</time>
      </trkpt>
      <trkpt lat="43.33588" lon="-1.50703">
        <ele>65</ele>
        <time>2026-02-28T09:49:28Z</time>
      </trkpt>
      <trkpt lat="43.33594" lon="-1.50663">
        <ele>70</ele>
        <time>2026-02-28T09:49:33Z</time>
      </trkpt>
      <trkpt lat="43.33612" lon="-1.5057">
        <ele>76</ele>
        <time>2026-02-28T09:49:45Z</time>
      </trkpt>
      <trkpt lat="43.33612" lon="-1.50548">
        <ele>76</ele>
        <time>2026-02-28T09:49:48Z</time>
      </trkpt>
      <trkpt lat="43.33599" lon="-1.50474">
        <ele>76</ele>
        <time>2026-02-28T09:49:58Z</time>
      </trkpt>
      <trkpt lat="43.33579" lon="-1.50425">
        <ele>74</ele>
        <time>2026-02-28T09:50:05Z</time>
      </trkpt>
      <trkpt lat="43.33566" lon="-1.50402">
        <ele>76</ele>
        <time>2026-02-28T09:50:09Z</time>
      </trkpt>
      <trkpt lat="43.33551" lon="-1.50375">
        <ele>76</ele>
        <time>2026-02-28T09:50:14Z</time>
      </trkpt>
      <trkpt lat="43.33498" lon="-1.50311">
        <ele>75</ele>
        <time>2026-02-28T09:50:26Z</time>
      </trkpt>
      <trkpt lat="43.33479" lon="-1.50283">
        <ele>76</ele>
        <time>2026-02-28T09:50:31Z</time>
      </trkpt>
      <trkpt lat="43.3346" lon="-1.50244">
        <ele>77</ele>
        <time>2026-02-28T09:50:37Z</time>
      </trkpt>
      <trkpt lat="43.33372" lon="-1.49994">
        <ele>82</ele>
        <time>2026-02-28T09:51:13Z</time>
      </trkpt>
      <trkpt lat="43.33329" lon="-1.4987">
        <ele>89</ele>
        <time>2026-02-28T09:51:31Z</time>
      </trkpt>
      <trkpt lat="43.3332" lon="-1.49838">
        <ele>92</ele>
        <time>2026-02-28T09:51:35Z</time>
      </trkpt>
      <trkpt lat="43.33313" lon="-1.49794">
        <ele>93</ele>
        <time>2026-02-28T09:51:41Z</time>
      </trkpt>
      <trkpt lat="43.33312" lon="-1.49747">
        <ele>94</ele>
        <time>2026-02-28T09:51:47Z</time>
      </trkpt>
      <trkpt lat="43.33314" lon="-1.49693">
        <ele>96</ele>
        <time>2026-02-28T09:51:54Z</time>
      </trkpt>
      <trkpt lat="43.33336" lon="-1.49514">
        <ele>105</ele>
        <time>2026-02-28T09:52:18Z</time>
      </trkpt>
      <trkpt lat="43.33338" lon="-1.49433">
        <ele>104</ele>
        <time>2026-02-28T09:52:28Z</time>
      </trkpt>
      <trkpt lat="43.33336" lon="-1.49374">
        <ele>105</ele>
        <time>2026-02-28T09:52:36Z</time>
      </trkpt>
      <trkpt lat="43.33314" lon="-1.49049">
        <ele>120</ele>
        <time>2026-02-28T09:53:18Z</time>
      </trkpt>
      <trkpt lat="43.33309" lon="-1.49012">
        <ele>122</ele>
        <time>2026-02-28T09:53:23Z</time>
      </trkpt>
      <trkpt lat="43.33304" lon="-1.48993">
        <ele>124</ele>
        <time>2026-02-28T09:53:26Z</time>
      </trkpt>
      <trkpt lat="43.33294" lon="-1.48966">
        <ele>124</ele>
        <time>2026-02-28T09:53:29Z</time>
      </trkpt>
      <trkpt lat="43.33284" lon="-1.48952">
        <ele>125</ele>
        <time>2026-02-28T09:53:32Z</time>
      </trkpt>
      <trkpt lat="43.33276" lon="-1.48949">
        <ele>125</ele>
        <time>2026-02-28T09:53:33Z</time>
      </trkpt>
      <trkpt lat="43.33273" lon="-1.48943">
        <ele>125</ele>
        <time>2026-02-28T09:53:34Z</time>
      </trkpt>
      <trkpt lat="43.33273" lon="-1.48932">
        <ele>124</ele>
        <time>2026-02-28T09:53:36Z</time>
      </trkpt>
      <trkpt lat="43.33277" lon="-1.48926">
        <ele>124</ele>
        <time>2026-02-28T09:53:37Z</time>
      </trkpt>
      <trkpt lat="43.33283" lon="-1.48892">
        <ele>122</ele>
        <time>2026-02-28T09:53:41Z</time>
      </trkpt>
      <trkpt lat="43.33285" lon="-1.48866">
        <ele>122</ele>
        <time>2026-02-28T09:53:45Z</time>
      </trkpt>
      <trkpt lat="43.33289" lon="-1.48848">
        <ele>122</ele>
        <time>2026-02-28T09:53:47Z</time>
      </trkpt>
      <trkpt lat="43.33301" lon="-1.48815">
        <ele>121</ele>
        <time>2026-02-28T09:53:52Z</time>
      </trkpt>
      <trkpt lat="43.33316" lon="-1.48784">
        <ele>120</ele>
        <time>2026-02-28T09:53:57Z</time>
      </trkpt>
      <trkpt lat="43.33343" lon="-1.48738">
        <ele>117</ele>
        <time>2026-02-28T09:54:04Z</time>
      </trkpt>
      <trkpt lat="43.3336" lon="-1.48717">
        <ele>114</ele>
        <time>2026-02-28T09:54:09Z</time>
      </trkpt>
      <trkpt lat="43.33392" lon="-1.48682">
        <ele>111</ele>
        <time>2026-02-28T09:54:16Z</time>
      </trkpt>
      <trkpt lat="43.334" lon="-1.48674">
        <ele>111</ele>
        <time>2026-02-28T09:54:18Z</time>
      </trkpt>
      <trkpt lat="43.33412" lon="-1.48655">
        <ele>110</ele>
        <time>2026-02-28T09:54:21Z</time>
      </trkpt>
      <trkpt lat="43.33422" lon="-1.48636">
        <ele>110</ele>
        <time>2026-02-28T09:54:24Z</time>
      </trkpt>
      <trkpt lat="43.3343" lon="-1.48616">
        <ele>111</ele>
        <time>2026-02-28T09:54:27Z</time>
      </trkpt>
      <trkpt lat="43.33436" lon="-1.48594">
        <ele>111</ele>
        <time>2026-02-28T09:54:30Z</time>
      </trkpt>
      <trkpt lat="43.3345" lon="-1.48502">
        <ele>107</ele>
        <time>2026-02-28T09:54:42Z</time>
      </trkpt>
      <trkpt lat="43.33458" lon="-1.48476">
        <ele>106</ele>
        <time>2026-02-28T09:54:46Z</time>
      </trkpt>
      <trkpt lat="43.33476" lon="-1.4843">
        <ele>103</ele>
        <time>2026-02-28T09:54:52Z</time>
      </trkpt>
      <trkpt lat="43.33532" lon="-1.48328">
        <ele>98</ele>
        <time>2026-02-28T09:55:09Z</time>
      </trkpt>
      <trkpt lat="43.3355" lon="-1.48289">
        <ele>98</ele>
        <time>2026-02-28T09:55:15Z</time>
      </trkpt>
      <trkpt lat="43.33562" lon="-1.48253">
        <ele>96</ele>
        <time>2026-02-28T09:55:20Z</time>
      </trkpt>
      <trkpt lat="43.33574" lon="-1.48188">
        <ele>94</ele>
        <time>2026-02-28T09:55:29Z</time>
      </trkpt>
      <trkpt lat="43.33575" lon="-1.48182">
        <ele>93</ele>
        <time>2026-02-28T09:55:30Z</time>
      </trkpt>
      <trkpt lat="43.33582" lon="-1.4813">
        <ele>90</ele>
        <time>2026-02-28T09:55:36Z</time>
      </trkpt>
      <trkpt lat="43.33599" lon="-1.47995">
        <ele>84</ele>
        <time>2026-02-28T09:55:54Z</time>
      </trkpt>
      <trkpt lat="43.33619" lon="-1.47846">
        <ele>75</ele>
        <time>2026-02-28T09:56:14Z</time>
      </trkpt>
      <trkpt lat="43.33623" lon="-1.47822">
        <ele>74</ele>
        <time>2026-02-28T09:56:17Z</time>
      </trkpt>
      <trkpt lat="43.3363" lon="-1.47802">
        <ele>74</ele>
        <time>2026-02-28T09:56:20Z</time>
      </trkpt>
      <trkpt lat="43.33636" lon="-1.47788">
        <ele>73</ele>
        <time>2026-02-28T09:56:22Z</time>
      </trkpt>
      <trkpt lat="43.33649" lon="-1.47767">
        <ele>72</ele>
        <time>2026-02-28T09:56:25Z</time>
      </trkpt>
      <trkpt lat="43.33662" lon="-1.47753">
        <ele>71</ele>
        <time>2026-02-28T09:56:28Z</time>
      </trkpt>
      <trkpt lat="43.33678" lon="-1.4774">
        <ele>70</ele>
        <time>2026-02-28T09:56:32Z</time>
      </trkpt>
      <trkpt lat="43.33696" lon="-1.47733">
        <ele>69</ele>
        <time>2026-02-28T09:56:35Z</time>
      </trkpt>
      <trkpt lat="43.33717" lon="-1.47729">
        <ele>68</ele>
        <time>2026-02-28T09:56:39Z</time>
      </trkpt>
      <trkpt lat="43.33732" lon="-1.47729">
        <ele>68</ele>
        <time>2026-02-28T09:56:41Z</time>
      </trkpt>
      <trkpt lat="43.33815" lon="-1.47753">
        <ele>66</ele>
        <time>2026-02-28T09:56:57Z</time>
      </trkpt>
      <trkpt lat="43.33845" lon="-1.47758">
        <ele>65</ele>
        <time>2026-02-28T09:57:02Z</time>
      </trkpt>
      <trkpt lat="43.33864" lon="-1.47758">
        <ele>65</ele>
        <time>2026-02-28T09:57:05Z</time>
      </trkpt>
      <trkpt lat="43.33885" lon="-1.47757">
        <ele>65</ele>
        <time>2026-02-28T09:57:09Z</time>
      </trkpt>
      <trkpt lat="43.33893" lon="-1.47754">
        <ele>65</ele>
        <time>2026-02-28T09:57:11Z</time>
      </trkpt>
      <trkpt lat="43.33898" lon="-1.47752">
        <ele>65</ele>
        <time>2026-02-28T09:57:11Z</time>
      </trkpt>
      <trkpt lat="43.33921" lon="-1.47742">
        <ele>65</ele>
        <time>2026-02-28T09:57:16Z</time>
      </trkpt>
      <trkpt lat="43.33946" lon="-1.47725">
        <ele>67</ele>
        <time>2026-02-28T09:57:21Z</time>
      </trkpt>
      <trkpt lat="43.33969" lon="-1.47701">
        <ele>68</ele>
        <time>2026-02-28T09:57:26Z</time>
      </trkpt>
      <trkpt lat="43.34002" lon="-1.47662">
        <ele>67</ele>
        <time>2026-02-28T09:57:34Z</time>
      </trkpt>
      <trkpt lat="43.34031" lon="-1.47624">
        <ele>68</ele>
        <time>2026-02-28T09:57:41Z</time>
      </trkpt>
      <trkpt lat="43.34042" lon="-1.47604">
        <ele>68</ele>
        <time>2026-02-28T09:57:44Z</time>
      </trkpt>
      <trkpt lat="43.34058" lon="-1.47571">
        <ele>68</ele>
        <time>2026-02-28T09:57:49Z</time>
      </trkpt>
      <trkpt lat="43.34071" lon="-1.47543">
        <ele>66</ele>
        <time>2026-02-28T09:57:53Z</time>
      </trkpt>
      <trkpt lat="43.34068" lon="-1.47534">
        <ele>66</ele>
        <time>2026-02-28T09:57:55Z</time>
      </trkpt>
      <trkpt lat="43.34069" lon="-1.47529">
        <ele>66</ele>
        <time>2026-02-28T09:57:55Z</time>
      </trkpt>
      <trkpt lat="43.34073" lon="-1.47521">
        <ele>65</ele>
        <time>2026-02-28T09:57:57Z</time>
      </trkpt>
      <trkpt lat="43.34076" lon="-1.47519">
        <ele>65</ele>
        <time>2026-02-28T09:57:57Z</time>
      </trkpt>
      <trkpt lat="43.34083" lon="-1.47484">
        <ele>63</ele>
        <time>2026-02-28T09:58:02Z</time>
      </trkpt>
      <trkpt lat="43.34083" lon="-1.47434">
        <ele>65</ele>
        <time>2026-02-28T09:58:08Z</time>
      </trkpt>
      <trkpt lat="43.34081" lon="-1.47417">
        <ele>65</ele>
        <time>2026-02-28T09:58:11Z</time>
      </trkpt>
      <trkpt lat="43.3407" lon="-1.47328">
        <ele>67</ele>
        <time>2026-02-28T09:58:22Z</time>
      </trkpt>
      <trkpt lat="43.34071" lon="-1.47314">
        <ele>66</ele>
        <time>2026-02-28T09:58:24Z</time>
      </trkpt>
      <trkpt lat="43.34068" lon="-1.473">
        <ele>66</ele>
        <time>2026-02-28T09:58:26Z</time>
      </trkpt>
      <trkpt lat="43.34063" lon="-1.47293">
        <ele>66</ele>
        <time>2026-02-28T09:58:27Z</time>
      </trkpt>
      <trkpt lat="43.34062" lon="-1.47282">
        <ele>66</ele>
        <time>2026-02-28T09:58:29Z</time>
      </trkpt>
      <trkpt lat="43.34064" lon="-1.47274">
        <ele>65</ele>
        <time>2026-02-28T09:58:30Z</time>
      </trkpt>
      <trkpt lat="43.34062" lon="-1.47256">
        <ele>65</ele>
        <time>2026-02-28T09:58:32Z</time>
      </trkpt>
      <trkpt lat="43.34061" lon="-1.47249">
        <ele>65</ele>
        <time>2026-02-28T09:58:33Z</time>
      </trkpt>
      <trkpt lat="43.34058" lon="-1.47242">
        <ele>65</ele>
        <time>2026-02-28T09:58:34Z</time>
      </trkpt>
      <trkpt lat="43.34043" lon="-1.47206">
        <ele>65</ele>
        <time>2026-02-28T09:58:40Z</time>
      </trkpt>
      <trkpt lat="43.33978" lon="-1.47069">
        <ele>64</ele>
        <time>2026-02-28T09:59:01Z</time>
      </trkpt>
      <trkpt lat="43.3396" lon="-1.47043">
        <ele>63</ele>
        <time>2026-02-28T09:59:05Z</time>
      </trkpt>
      <trkpt lat="43.33897" lon="-1.46973">
        <ele>64</ele>
        <time>2026-02-28T09:59:20Z</time>
      </trkpt>
      <trkpt lat="43.33876" lon="-1.46955">
        <ele>65</ele>
        <time>2026-02-28T09:59:24Z</time>
      </trkpt>
      <trkpt lat="43.33788" lon="-1.46898">
        <ele>67</ele>
        <time>2026-02-28T09:59:41Z</time>
      </trkpt>
      <trkpt lat="43.33765" lon="-1.46879">
        <ele>67</ele>
        <time>2026-02-28T09:59:46Z</time>
      </trkpt>
      <trkpt lat="43.3374" lon="-1.46847">
        <ele>67</ele>
        <time>2026-02-28T09:59:52Z</time>
      </trkpt>
      <trkpt lat="43.33729" lon="-1.46825">
        <ele>67</ele>
        <time>2026-02-28T09:59:56Z</time>
      </trkpt>
      <trkpt lat="43.33719" lon="-1.46803">
        <ele>67</ele>
        <time>2026-02-28T09:59:59Z</time>
      </trkpt>
      <trkpt lat="43.33702" lon="-1.46745">
        <ele>66</ele>
        <time>2026-02-28T10:00:07Z</time>
      </trkpt>
      <trkpt lat="43.33697" lon="-1.46717">
        <ele>66</ele>
        <time>2026-02-28T10:00:11Z</time>
      </trkpt>
      <trkpt lat="43.33695" lon="-1.46682">
        <ele>65</ele>
        <time>2026-02-28T10:00:15Z</time>
      </trkpt>
      <trkpt lat="43.33699" lon="-1.46592">
        <ele>64</ele>
        <time>2026-02-28T10:00:27Z</time>
      </trkpt>
      <trkpt lat="43.33699" lon="-1.46577">
        <ele>64</ele>
        <time>2026-02-28T10:00:29Z</time>
      </trkpt>
      <trkpt lat="43.33698" lon="-1.46555">
        <ele>64</ele>
        <time>2026-02-28T10:00:32Z</time>
      </trkpt>
      <trkpt lat="43.33695" lon="-1.46537">
        <ele>64</ele>
        <time>2026-02-28T10:00:34Z</time>
      </trkpt>
      <trkpt lat="43.33649" lon="-1.46259">
        <ele>56</ele>
        <time>2026-02-28T10:01:11Z</time>
      </trkpt>
      <trkpt lat="43.33637" lon="-1.46212">
        <ele>56</ele>
        <time>2026-02-28T10:01:18Z</time>
      </trkpt>
      <trkpt lat="43.33623" lon="-1.46179">
        <ele>56</ele>
        <time>2026-02-28T10:01:23Z</time>
      </trkpt>
      <trkpt lat="43.33583" lon="-1.46106">
        <ele>57</ele>
        <time>2026-02-28T10:01:34Z</time>
      </trkpt>
      <trkpt lat="43.33575" lon="-1.46087">
        <ele>57</ele>
        <time>2026-02-28T10:01:37Z</time>
      </trkpt>
      <trkpt lat="43.33557" lon="-1.46026">
        <ele>58</ele>
        <time>2026-02-28T10:01:46Z</time>
      </trkpt>
      <trkpt lat="43.33551" lon="-1.46">
        <ele>58</ele>
        <time>2026-02-28T10:01:49Z</time>
      </trkpt>
      <trkpt lat="43.33547" lon="-1.45974">
        <ele>61</ele>
        <time>2026-02-28T10:01:53Z</time>
      </trkpt>
      <trkpt lat="43.33546" lon="-1.45957">
        <ele>62</ele>
        <time>2026-02-28T10:01:55Z</time>
      </trkpt>
      <trkpt lat="43.33547" lon="-1.45937">
        <ele>64</ele>
        <time>2026-02-28T10:01:58Z</time>
      </trkpt>
      <trkpt lat="43.33549" lon="-1.45924">
        <ele>65</ele>
        <time>2026-02-28T10:01:59Z</time>
      </trkpt>
      <trkpt lat="43.33557" lon="-1.45894">
        <ele>67</ele>
        <time>2026-02-28T10:02:03Z</time>
      </trkpt>
      <trkpt lat="43.33573" lon="-1.45862">
        <ele>67</ele>
        <time>2026-02-28T10:02:08Z</time>
      </trkpt>
      <trkpt lat="43.33733" lon="-1.45627">
        <ele>63</ele>
        <time>2026-02-28T10:02:50Z</time>
      </trkpt>
      <trkpt lat="43.33767" lon="-1.45574">
        <ele>62</ele>
        <time>2026-02-28T10:02:59Z</time>
      </trkpt>
      <trkpt lat="43.33792" lon="-1.45523">
        <ele>63</ele>
        <time>2026-02-28T10:03:07Z</time>
      </trkpt>
      <trkpt lat="43.33826" lon="-1.45431">
        <ele>60</ele>
        <time>2026-02-28T10:03:21Z</time>
      </trkpt>
      <trkpt lat="43.33838" lon="-1.45406">
        <ele>59</ele>
        <time>2026-02-28T10:03:24Z</time>
      </trkpt>
      <trkpt lat="43.33858" lon="-1.45379">
        <ele>59</ele>
        <time>2026-02-28T10:03:29Z</time>
      </trkpt>
      <trkpt lat="43.33876" lon="-1.45358">
        <ele>60</ele>
        <time>2026-02-28T10:03:34Z</time>
      </trkpt>
      <trkpt lat="43.33925" lon="-1.4531">
        <ele>61</ele>
        <time>2026-02-28T10:03:44Z</time>
      </trkpt>
      <trkpt lat="43.33938" lon="-1.45298">
        <ele>60</ele>
        <time>2026-02-28T10:03:47Z</time>
      </trkpt>
      <trkpt lat="43.33958" lon="-1.45277">
        <ele>60</ele>
        <time>2026-02-28T10:03:52Z</time>
      </trkpt>
      <trkpt lat="43.33973" lon="-1.45255">
        <ele>60</ele>
        <time>2026-02-28T10:03:56Z</time>
      </trkpt>
      <trkpt lat="43.33983" lon="-1.4523">
        <ele>60</ele>
        <time>2026-02-28T10:03:59Z</time>
      </trkpt>
      <trkpt lat="43.33989" lon="-1.45195">
        <ele>60</ele>
        <time>2026-02-28T10:04:04Z</time>
      </trkpt>
      <trkpt lat="43.33992" lon="-1.45166">
        <ele>61</ele>
        <time>2026-02-28T10:04:08Z</time>
      </trkpt>
      <trkpt lat="43.33989" lon="-1.45157">
        <ele>61</ele>
        <time>2026-02-28T10:04:09Z</time>
      </trkpt>
      <trkpt lat="43.3399" lon="-1.45147">
        <ele>62</ele>
        <time>2026-02-28T10:04:10Z</time>
      </trkpt>
      <trkpt lat="43.33984" lon="-1.45122">
        <ele>63</ele>
        <time>2026-02-28T10:04:14Z</time>
      </trkpt>
      <trkpt lat="43.33892" lon="-1.44964">
        <ele>71</ele>
        <time>2026-02-28T10:04:40Z</time>
      </trkpt>
      <trkpt lat="43.33866" lon="-1.44918">
        <ele>72</ele>
        <time>2026-02-28T10:04:47Z</time>
      </trkpt>
      <trkpt lat="43.33848" lon="-1.44879">
        <ele>73</ele>
        <time>2026-02-28T10:04:53Z</time>
      </trkpt>
      <trkpt lat="43.33842" lon="-1.44857">
        <ele>73</ele>
        <time>2026-02-28T10:04:56Z</time>
      </trkpt>
      <trkpt lat="43.33839" lon="-1.44838">
        <ele>73</ele>
        <time>2026-02-28T10:04:59Z</time>
      </trkpt>
      <trkpt lat="43.33838" lon="-1.4474">
        <ele>77</ele>
        <time>2026-02-28T10:05:12Z</time>
      </trkpt>
      <trkpt lat="43.33837" lon="-1.44705">
        <ele>78</ele>
        <time>2026-02-28T10:05:16Z</time>
      </trkpt>
      <trkpt lat="43.33828" lon="-1.44676">
        <ele>79</ele>
        <time>2026-02-28T10:05:20Z</time>
      </trkpt>
      <trkpt lat="43.33824" lon="-1.4467">
        <ele>79</ele>
        <time>2026-02-28T10:05:21Z</time>
      </trkpt>
      <trkpt lat="43.33823" lon="-1.44662">
        <ele>79</ele>
        <time>2026-02-28T10:05:22Z</time>
      </trkpt>
      <trkpt lat="43.33816" lon="-1.44647">
        <ele>79</ele>
        <time>2026-02-28T10:05:25Z</time>
      </trkpt>
      <trkpt lat="43.33809" lon="-1.4464">
        <ele>79</ele>
        <time>2026-02-28T10:05:26Z</time>
      </trkpt>
      <trkpt lat="43.33784" lon="-1.44625">
        <ele>78</ele>
        <time>2026-02-28T10:05:31Z</time>
      </trkpt>
      <trkpt lat="43.33768" lon="-1.44622">
        <ele>78</ele>
        <time>2026-02-28T10:05:34Z</time>
      </trkpt>
      <trkpt lat="43.33753" lon="-1.44617">
        <ele>78</ele>
        <time>2026-02-28T10:05:37Z</time>
      </trkpt>
      <trkpt lat="43.33699" lon="-1.44618">
        <ele>79</ele>
        <time>2026-02-28T10:05:46Z</time>
      </trkpt>
      <trkpt lat="43.33657" lon="-1.44618">
        <ele>79</ele>
        <time>2026-02-28T10:05:54Z</time>
      </trkpt>
      <trkpt lat="43.33634" lon="-1.44621">
        <ele>80</ele>
        <time>2026-02-28T10:05:58Z</time>
      </trkpt>
      <trkpt lat="43.33625" lon="-1.44622">
        <ele>81</ele>
        <time>2026-02-28T10:05:59Z</time>
      </trkpt>
      <trkpt lat="43.33614" lon="-1.44622">
        <ele>81</ele>
        <time>2026-02-28T10:06:01Z</time>
      </trkpt>
      <trkpt lat="43.33584" lon="-1.44614">
        <ele>81</ele>
        <time>2026-02-28T10:06:07Z</time>
      </trkpt>
      <trkpt lat="43.33563" lon="-1.44603">
        <ele>82</ele>
        <time>2026-02-28T10:06:11Z</time>
      </trkpt>
      <trkpt lat="43.33502" lon="-1.44556">
        <ele>80</ele>
        <time>2026-02-28T10:06:23Z</time>
      </trkpt>
      <trkpt lat="43.33472" lon="-1.44539">
        <ele>78</ele>
        <time>2026-02-28T10:06:29Z</time>
      </trkpt>
      <trkpt lat="43.3345" lon="-1.44533">
        <ele>78</ele>
        <time>2026-02-28T10:06:33Z</time>
      </trkpt>
      <trkpt lat="43.33429" lon="-1.44535">
        <ele>78</ele>
        <time>2026-02-28T10:06:37Z</time>
      </trkpt>
      <trkpt lat="43.33413" lon="-1.44543">
        <ele>79</ele>
        <time>2026-02-28T10:06:40Z</time>
      </trkpt>
      <trkpt lat="43.33401" lon="-1.44558">
        <ele>80</ele>
        <time>2026-02-28T10:06:43Z</time>
      </trkpt>
      <trkpt lat="43.33389" lon="-1.44583">
        <ele>81</ele>
        <time>2026-02-28T10:06:47Z</time>
      </trkpt>
      <trkpt lat="43.33358" lon="-1.44672">
        <ele>83</ele>
        <time>2026-02-28T10:06:59Z</time>
      </trkpt>
      <trkpt lat="43.33341" lon="-1.44695">
        <ele>80</ele>
        <time>2026-02-28T10:07:04Z</time>
      </trkpt>
      <trkpt lat="43.33323" lon="-1.44707">
        <ele>79</ele>
        <time>2026-02-28T10:07:07Z</time>
      </trkpt>
      <trkpt lat="43.3326" lon="-1.44726">
        <ele>81</ele>
        <time>2026-02-28T10:07:19Z</time>
      </trkpt>
      <trkpt lat="43.33198" lon="-1.44736">
        <ele>89</ele>
        <time>2026-02-28T10:07:30Z</time>
      </trkpt>
      <trkpt lat="43.33168" lon="-1.44768">
        <ele>89</ele>
        <time>2026-02-28T10:07:36Z</time>
      </trkpt>
      <trkpt lat="43.33148" lon="-1.44813">
        <ele>87</ele>
        <time>2026-02-28T10:07:43Z</time>
      </trkpt>
      <trkpt lat="43.33135" lon="-1.44896">
        <ele>93</ele>
        <time>2026-02-28T10:07:54Z</time>
      </trkpt>
      <trkpt lat="43.33114" lon="-1.44947">
        <ele>94</ele>
        <time>2026-02-28T10:08:02Z</time>
      </trkpt>
      <trkpt lat="43.33095" lon="-1.44975">
        <ele>91</ele>
        <time>2026-02-28T10:08:07Z</time>
      </trkpt>
      <trkpt lat="43.33078" lon="-1.44982">
        <ele>88</ele>
        <time>2026-02-28T10:08:10Z</time>
      </trkpt>
      <trkpt lat="43.33061" lon="-1.44981">
        <ele>89</ele>
        <time>2026-02-28T10:08:13Z</time>
      </trkpt>
      <trkpt lat="43.32988" lon="-1.44939">
        <ele>86</ele>
        <time>2026-02-28T10:08:27Z</time>
      </trkpt>
      <trkpt lat="43.32929" lon="-1.44924">
        <ele>89</ele>
        <time>2026-02-28T10:08:38Z</time>
      </trkpt>
      <trkpt lat="43.32898" lon="-1.44929">
        <ele>92</ele>
        <time>2026-02-28T10:08:43Z</time>
      </trkpt>
      <trkpt lat="43.32876" lon="-1.44923">
        <ele>91</ele>
        <time>2026-02-28T10:08:47Z</time>
      </trkpt>
      <trkpt lat="43.32852" lon="-1.44936">
        <ele>97</ele>
        <time>2026-02-28T10:08:52Z</time>
      </trkpt>
      <trkpt lat="43.32833" lon="-1.44941">
        <ele>99</ele>
        <time>2026-02-28T10:08:55Z</time>
      </trkpt>
      <trkpt lat="43.32803" lon="-1.44942">
        <ele>103</ele>
        <time>2026-02-28T10:09:01Z</time>
      </trkpt>
      <trkpt lat="43.32788" lon="-1.44939">
        <ele>103</ele>
        <time>2026-02-28T10:09:03Z</time>
      </trkpt>
      <trkpt lat="43.32775" lon="-1.44931">
        <ele>102</ele>
        <time>2026-02-28T10:09:06Z</time>
      </trkpt>
      <trkpt lat="43.32751" lon="-1.44909">
        <ele>99</ele>
        <time>2026-02-28T10:09:11Z</time>
      </trkpt>
      <trkpt lat="43.32722" lon="-1.44887">
        <ele>107</ele>
        <time>2026-02-28T10:09:17Z</time>
      </trkpt>
      <trkpt lat="43.32688" lon="-1.44841">
        <ele>104</ele>
        <time>2026-02-28T10:09:25Z</time>
      </trkpt>
      <trkpt lat="43.32666" lon="-1.4481">
        <ele>101</ele>
        <time>2026-02-28T10:09:31Z</time>
      </trkpt>
      <trkpt lat="43.32654" lon="-1.44801">
        <ele>101</ele>
        <time>2026-02-28T10:09:33Z</time>
      </trkpt>
      <trkpt lat="43.32607" lon="-1.44782">
        <ele>98</ele>
        <time>2026-02-28T10:09:42Z</time>
      </trkpt>
      <trkpt lat="43.32598" lon="-1.44773">
        <ele>97</ele>
        <time>2026-02-28T10:09:44Z</time>
      </trkpt>
      <trkpt lat="43.32591" lon="-1.44759">
        <ele>93</ele>
        <time>2026-02-28T10:09:46Z</time>
      </trkpt>
      <trkpt lat="43.3255" lon="-1.44575">
        <ele>103</ele>
        <time>2026-02-28T10:10:11Z</time>
      </trkpt>
      <trkpt lat="43.3254" lon="-1.44495">
        <ele>109</ele>
        <time>2026-02-28T10:10:22Z</time>
      </trkpt>
      <trkpt lat="43.3253" lon="-1.44437">
        <ele>109</ele>
        <time>2026-02-28T10:10:29Z</time>
      </trkpt>
      <trkpt lat="43.32519" lon="-1.44406">
        <ele>109</ele>
        <time>2026-02-28T10:10:34Z</time>
      </trkpt>
      <trkpt lat="43.32505" lon="-1.44363">
        <ele>107</ele>
        <time>2026-02-28T10:10:40Z</time>
      </trkpt>
      <trkpt lat="43.32503" lon="-1.44357">
        <ele>107</ele>
        <time>2026-02-28T10:10:41Z</time>
      </trkpt>
      <trkpt lat="43.32499" lon="-1.44346">
        <ele>107</ele>
        <time>2026-02-28T10:10:43Z</time>
      </trkpt>
      <trkpt lat="43.32498" lon="-1.44334">
        <ele>106</ele>
        <time>2026-02-28T10:10:44Z</time>
      </trkpt>
      <trkpt lat="43.325" lon="-1.44321">
        <ele>106</ele>
        <time>2026-02-28T10:10:46Z</time>
      </trkpt>
      <trkpt lat="43.32508" lon="-1.44299">
        <ele>106</ele>
        <time>2026-02-28T10:10:49Z</time>
      </trkpt>
      <trkpt lat="43.32514" lon="-1.44272">
        <ele>107</ele>
        <time>2026-02-28T10:10:53Z</time>
      </trkpt>
      <trkpt lat="43.32515" lon="-1.44206">
        <ele>110</ele>
        <time>2026-02-28T10:11:01Z</time>
      </trkpt>
      <trkpt lat="43.32519" lon="-1.44179">
        <ele>112</ele>
        <time>2026-02-28T10:11:05Z</time>
      </trkpt>
      <trkpt lat="43.32541" lon="-1.44103">
        <ele>118</ele>
        <time>2026-02-28T10:11:15Z</time>
      </trkpt>
      <trkpt lat="43.32549" lon="-1.44035">
        <ele>122</ele>
        <time>2026-02-28T10:11:24Z</time>
      </trkpt>
      <trkpt lat="43.32566" lon="-1.43939">
        <ele>121</ele>
        <time>2026-02-28T10:11:37Z</time>
      </trkpt>
      <trkpt lat="43.32573" lon="-1.43916">
        <ele>119</ele>
        <time>2026-02-28T10:11:40Z</time>
      </trkpt>
      <trkpt lat="43.32581" lon="-1.43899">
        <ele>119</ele>
        <time>2026-02-28T10:11:43Z</time>
      </trkpt>
      <trkpt lat="43.32601" lon="-1.43873">
        <ele>122</ele>
        <time>2026-02-28T10:11:48Z</time>
      </trkpt>
      <trkpt lat="43.32667" lon="-1.43816">
        <ele>127</ele>
        <time>2026-02-28T10:12:02Z</time>
      </trkpt>
      <trkpt lat="43.32685" lon="-1.43792">
        <ele>131</ele>
        <time>2026-02-28T10:12:06Z</time>
      </trkpt>
      <trkpt lat="43.32697" lon="-1.43765">
        <ele>133</ele>
        <time>2026-02-28T10:12:10Z</time>
      </trkpt>
      <trkpt lat="43.32709" lon="-1.43721">
        <ele>134</ele>
        <time>2026-02-28T10:12:16Z</time>
      </trkpt>
      <trkpt lat="43.32717" lon="-1.43706">
        <ele>134</ele>
        <time>2026-02-28T10:12:19Z</time>
      </trkpt>
      <trkpt lat="43.32735" lon="-1.43685">
        <ele>135</ele>
        <time>2026-02-28T10:12:23Z</time>
      </trkpt>
      <trkpt lat="43.32738" lon="-1.43683">
        <ele>135</ele>
        <time>2026-02-28T10:12:23Z</time>
      </trkpt>
      <trkpt lat="43.32773" lon="-1.43645">
        <ele>134</ele>
        <time>2026-02-28T10:12:31Z</time>
      </trkpt>
      <trkpt lat="43.32816" lon="-1.4361">
        <ele>132</ele>
        <time>2026-02-28T10:12:40Z</time>
      </trkpt>
      <trkpt lat="43.32824" lon="-1.43597">
        <ele>131</ele>
        <time>2026-02-28T10:12:43Z</time>
      </trkpt>
      <trkpt lat="43.32827" lon="-1.43572">
        <ele>129</ele>
        <time>2026-02-28T10:12:46Z</time>
      </trkpt>
      <trkpt lat="43.32825" lon="-1.43539">
        <ele>127</ele>
        <time>2026-02-28T10:12:50Z</time>
      </trkpt>
      <trkpt lat="43.3282" lon="-1.43515">
        <ele>125</ele>
        <time>2026-02-28T10:12:53Z</time>
      </trkpt>
      <trkpt lat="43.32809" lon="-1.43471">
        <ele>123</ele>
        <time>2026-02-28T10:12:59Z</time>
      </trkpt>
      <trkpt lat="43.32805" lon="-1.43442">
        <ele>121</ele>
        <time>2026-02-28T10:13:03Z</time>
      </trkpt>
      <trkpt lat="43.32808" lon="-1.4341">
        <ele>120</ele>
        <time>2026-02-28T10:13:07Z</time>
      </trkpt>
      <trkpt lat="43.32822" lon="-1.43333">
        <ele>117</ele>
        <time>2026-02-28T10:13:18Z</time>
      </trkpt>
      <trkpt lat="43.32838" lon="-1.43202">
        <ele>115</ele>
        <time>2026-02-28T10:13:35Z</time>
      </trkpt>
      <trkpt lat="43.32851" lon="-1.43164">
        <ele>113</ele>
        <time>2026-02-28T10:13:40Z</time>
      </trkpt>
      <trkpt lat="43.32871" lon="-1.43121">
        <ele>114</ele>
        <time>2026-02-28T10:13:47Z</time>
      </trkpt>
      <trkpt lat="43.32889" lon="-1.43096">
        <ele>114</ele>
        <time>2026-02-28T10:13:51Z</time>
      </trkpt>
      <trkpt lat="43.329" lon="-1.43074">
        <ele>114</ele>
        <time>2026-02-28T10:13:55Z</time>
      </trkpt>
      <trkpt lat="43.329" lon="-1.43057">
        <ele>113</ele>
        <time>2026-02-28T10:13:57Z</time>
      </trkpt>
      <trkpt lat="43.32898" lon="-1.43043">
        <ele>112</ele>
        <time>2026-02-28T10:13:59Z</time>
      </trkpt>
      <trkpt lat="43.32893" lon="-1.43006">
        <ele>111</ele>
        <time>2026-02-28T10:14:04Z</time>
      </trkpt>
      <trkpt lat="43.32893" lon="-1.42942">
        <ele>109</ele>
        <time>2026-02-28T10:14:12Z</time>
      </trkpt>
      <trkpt lat="43.32897" lon="-1.42922">
        <ele>108</ele>
        <time>2026-02-28T10:14:15Z</time>
      </trkpt>
      <trkpt lat="43.32903" lon="-1.42909">
        <ele>108</ele>
        <time>2026-02-28T10:14:17Z</time>
      </trkpt>
      <trkpt lat="43.32927" lon="-1.42874">
        <ele>107</ele>
        <time>2026-02-28T10:14:23Z</time>
      </trkpt>
      <trkpt lat="43.32944" lon="-1.42845">
        <ele>106</ele>
        <time>2026-02-28T10:14:28Z</time>
      </trkpt>
      <trkpt lat="43.32985" lon="-1.42757">
        <ele>103</ele>
        <time>2026-02-28T10:14:41Z</time>
      </trkpt>
      <trkpt lat="43.32994" lon="-1.42742">
        <ele>102</ele>
        <time>2026-02-28T10:14:44Z</time>
      </trkpt>
      <trkpt lat="43.33005" lon="-1.42733">
        <ele>102</ele>
        <time>2026-02-28T10:14:46Z</time>
      </trkpt>
      <trkpt lat="43.33027" lon="-1.42721">
        <ele>105</ele>
        <time>2026-02-28T10:14:50Z</time>
      </trkpt>
      <trkpt lat="43.33047" lon="-1.4271">
        <ele>107</ele>
        <time>2026-02-28T10:14:54Z</time>
      </trkpt>
      <trkpt lat="43.33056" lon="-1.427">
        <ele>107</ele>
        <time>2026-02-28T10:14:56Z</time>
      </trkpt>
      <trkpt lat="43.33073" lon="-1.42668">
        <ele>107</ele>
        <time>2026-02-28T10:15:01Z</time>
      </trkpt>
      <trkpt lat="43.33086" lon="-1.42631">
        <ele>104</ele>
        <time>2026-02-28T10:15:07Z</time>
      </trkpt>
      <trkpt lat="43.331" lon="-1.4256">
        <ele>100</ele>
        <time>2026-02-28T10:15:16Z</time>
      </trkpt>
      <trkpt lat="43.33108" lon="-1.42541">
        <ele>100</ele>
        <time>2026-02-28T10:15:19Z</time>
      </trkpt>
      <trkpt lat="43.3313" lon="-1.42498">
        <ele>102</ele>
        <time>2026-02-28T10:15:26Z</time>
      </trkpt>
      <trkpt lat="43.33135" lon="-1.4248">
        <ele>102</ele>
        <time>2026-02-28T10:15:28Z</time>
      </trkpt>
      <trkpt lat="43.33137" lon="-1.42425">
        <ele>103</ele>
        <time>2026-02-28T10:15:35Z</time>
      </trkpt>
      <trkpt lat="43.33138" lon="-1.42312">
        <ele>102</ele>
        <time>2026-02-28T10:15:50Z</time>
      </trkpt>
      <trkpt lat="43.33146" lon="-1.42249">
        <ele>100</ele>
        <time>2026-02-28T10:15:58Z</time>
      </trkpt>
      <trkpt lat="43.33145" lon="-1.42202">
        <ele>98</ele>
        <time>2026-02-28T10:16:04Z</time>
      </trkpt>
      <trkpt lat="43.33146" lon="-1.42181">
        <ele>97</ele>
        <time>2026-02-28T10:16:07Z</time>
      </trkpt>
      <trkpt lat="43.33149" lon="-1.42152">
        <ele>96</ele>
        <time>2026-02-28T10:16:11Z</time>
      </trkpt>
      <trkpt lat="43.33155" lon="-1.42124">
        <ele>95</ele>
        <time>2026-02-28T10:16:15Z</time>
      </trkpt>
      <trkpt lat="43.33162" lon="-1.42102">
        <ele>95</ele>
        <time>2026-02-28T10:16:18Z</time>
      </trkpt>
      <trkpt lat="43.33258" lon="-1.41944">
        <ele>103</ele>
        <time>2026-02-28T10:16:44Z</time>
      </trkpt>
      <trkpt lat="43.33265" lon="-1.41922">
        <ele>104</ele>
        <time>2026-02-28T10:16:48Z</time>
      </trkpt>
      <trkpt lat="43.33274" lon="-1.41869">
        <ele>102</ele>
        <time>2026-02-28T10:16:55Z</time>
      </trkpt>
      <trkpt lat="43.33275" lon="-1.41827">
        <ele>100</ele>
        <time>2026-02-28T10:17:00Z</time>
      </trkpt>
      <trkpt lat="43.33272" lon="-1.41797">
        <ele>99</ele>
        <time>2026-02-28T10:17:04Z</time>
      </trkpt>
      <trkpt lat="43.3327" lon="-1.41786">
        <ele>98</ele>
        <time>2026-02-28T10:17:05Z</time>
      </trkpt>
      <trkpt lat="43.33263" lon="-1.41774">
        <ele>98</ele>
        <time>2026-02-28T10:17:07Z</time>
      </trkpt>
      <trkpt lat="43.33219" lon="-1.41732">
        <ele>96</ele>
        <time>2026-02-28T10:17:17Z</time>
      </trkpt>
      <trkpt lat="43.33209" lon="-1.41716">
        <ele>95</ele>
        <time>2026-02-28T10:17:20Z</time>
      </trkpt>
      <trkpt lat="43.33205" lon="-1.41705">
        <ele>95</ele>
        <time>2026-02-28T10:17:21Z</time>
      </trkpt>
      <trkpt lat="43.33202" lon="-1.41691">
        <ele>95</ele>
        <time>2026-02-28T10:17:23Z</time>
      </trkpt>
      <trkpt lat="43.332" lon="-1.41675">
        <ele>94</ele>
        <time>2026-02-28T10:17:25Z</time>
      </trkpt>
      <trkpt lat="43.332" lon="-1.41637">
        <ele>93</ele>
        <time>2026-02-28T10:17:30Z</time>
      </trkpt>
      <trkpt lat="43.33204" lon="-1.41602">
        <ele>91</ele>
        <time>2026-02-28T10:17:35Z</time>
      </trkpt>
      <trkpt lat="43.33218" lon="-1.41529">
        <ele>88</ele>
        <time>2026-02-28T10:17:45Z</time>
      </trkpt>
      <trkpt lat="43.3322" lon="-1.41509">
        <ele>87</ele>
        <time>2026-02-28T10:17:47Z</time>
      </trkpt>
      <trkpt lat="43.33227" lon="-1.41368">
        <ele>86</ele>
        <time>2026-02-28T10:18:05Z</time>
      </trkpt>
      <trkpt lat="43.33231" lon="-1.41351">
        <ele>87</ele>
        <time>2026-02-28T10:18:08Z</time>
      </trkpt>
      <trkpt lat="43.33235" lon="-1.41337">
        <ele>88</ele>
        <time>2026-02-28T10:18:10Z</time>
      </trkpt>
      <trkpt lat="43.33243" lon="-1.41322">
        <ele>90</ele>
        <time>2026-02-28T10:18:12Z</time>
      </trkpt>
      <trkpt lat="43.33272" lon="-1.4128">
        <ele>93</ele>
        <time>2026-02-28T10:18:20Z</time>
      </trkpt>
      <trkpt lat="43.33277" lon="-1.41265">
        <ele>93</ele>
        <time>2026-02-28T10:18:22Z</time>
      </trkpt>
      <trkpt lat="43.3328" lon="-1.41251">
        <ele>94</ele>
        <time>2026-02-28T10:18:24Z</time>
      </trkpt>
      <trkpt lat="43.3328" lon="-1.41225">
        <ele>93</ele>
        <time>2026-02-28T10:18:27Z</time>
      </trkpt>
      <trkpt lat="43.33276" lon="-1.41196">
        <ele>93</ele>
        <time>2026-02-28T10:18:31Z</time>
      </trkpt>
      <trkpt lat="43.33274" lon="-1.41188">
        <ele>93</ele>
        <time>2026-02-28T10:18:32Z</time>
      </trkpt>
      <trkpt lat="43.3327" lon="-1.41138">
        <ele>92</ele>
        <time>2026-02-28T10:18:38Z</time>
      </trkpt>
      <trkpt lat="43.33266" lon="-1.4109">
        <ele>90</ele>
        <time>2026-02-28T10:18:45Z</time>
      </trkpt>
      <trkpt lat="43.33265" lon="-1.41037">
        <ele>89</ele>
        <time>2026-02-28T10:18:52Z</time>
      </trkpt>
      <trkpt lat="43.33263" lon="-1.40947">
        <ele>87</ele>
        <time>2026-02-28T10:19:03Z</time>
      </trkpt>
      <trkpt lat="43.33268" lon="-1.40911">
        <ele>86</ele>
        <time>2026-02-28T10:19:08Z</time>
      </trkpt>
      <trkpt lat="43.33274" lon="-1.40881">
        <ele>84</ele>
        <time>2026-02-28T10:19:12Z</time>
      </trkpt>
      <trkpt lat="43.33278" lon="-1.40871">
        <ele>84</ele>
        <time>2026-02-28T10:19:13Z</time>
      </trkpt>
      <trkpt lat="43.33284" lon="-1.40868">
        <ele>83</ele>
        <time>2026-02-28T10:19:15Z</time>
      </trkpt>
      <trkpt lat="43.33295" lon="-1.40855">
        <ele>82</ele>
        <time>2026-02-28T10:19:17Z</time>
      </trkpt>
      <trkpt lat="43.3334" lon="-1.40774">
        <ele>80</ele>
        <time>2026-02-28T10:19:30Z</time>
      </trkpt>
      <trkpt lat="43.33382" lon="-1.4072">
        <ele>80</ele>
        <time>2026-02-28T10:19:41Z</time>
      </trkpt>
      <trkpt lat="43.33404" lon="-1.407">
        <ele>80</ele>
        <time>2026-02-28T10:19:45Z</time>
      </trkpt>
      <trkpt lat="43.33418" lon="-1.40691">
        <ele>80</ele>
        <time>2026-02-28T10:19:48Z</time>
      </trkpt>
      <trkpt lat="43.33437" lon="-1.40683">
        <ele>80</ele>
        <time>2026-02-28T10:19:52Z</time>
      </trkpt>
      <trkpt lat="43.33455" lon="-1.40678">
        <ele>80</ele>
        <time>2026-02-28T10:19:55Z</time>
      </trkpt>
      <trkpt lat="43.33478" lon="-1.40677">
        <ele>80</ele>
        <time>2026-02-28T10:19:59Z</time>
      </trkpt>
      <trkpt lat="43.33497" lon="-1.40675">
        <ele>80</ele>
        <time>2026-02-28T10:20:02Z</time>
      </trkpt>
      <trkpt lat="43.33512" lon="-1.40669">
        <ele>80</ele>
        <time>2026-02-28T10:20:05Z</time>
      </trkpt>
      <trkpt lat="43.33528" lon="-1.40661">
        <ele>81</ele>
        <time>2026-02-28T10:20:08Z</time>
      </trkpt>
      <trkpt lat="43.33544" lon="-1.40644">
        <ele>81</ele>
        <time>2026-02-28T10:20:12Z</time>
      </trkpt>
      <trkpt lat="43.33589" lon="-1.40593">
        <ele>81</ele>
        <time>2026-02-28T10:20:22Z</time>
      </trkpt>
      <trkpt lat="43.33597" lon="-1.40577">
        <ele>82</ele>
        <time>2026-02-28T10:20:25Z</time>
      </trkpt>
      <trkpt lat="43.33612" lon="-1.40527">
        <ele>82</ele>
        <time>2026-02-28T10:20:32Z</time>
      </trkpt>
      <trkpt lat="43.33609" lon="-1.40524">
        <ele>82</ele>
        <time>2026-02-28T10:20:32Z</time>
      </trkpt>
      <trkpt lat="43.33608" lon="-1.40515">
        <ele>82</ele>
        <time>2026-02-28T10:20:33Z</time>
      </trkpt>
      <trkpt lat="43.33612" lon="-1.40507">
        <ele>82</ele>
        <time>2026-02-28T10:20:35Z</time>
      </trkpt>
      <trkpt lat="43.33616" lon="-1.40506">
        <ele>82</ele>
        <time>2026-02-28T10:20:35Z</time>
      </trkpt>
      <trkpt lat="43.33617" lon="-1.40463">
        <ele>81</ele>
        <time>2026-02-28T10:20:41Z</time>
      </trkpt>
      <trkpt lat="43.33619" lon="-1.40448">
        <ele>81</ele>
        <time>2026-02-28T10:20:43Z</time>
      </trkpt>
      <trkpt lat="43.33625" lon="-1.40411">
        <ele>81</ele>
        <time>2026-02-28T10:20:48Z</time>
      </trkpt>
      <trkpt lat="43.33629" lon="-1.40394">
        <ele>81</ele>
        <time>2026-02-28T10:20:50Z</time>
      </trkpt>
      <trkpt lat="43.33633" lon="-1.40367">
        <ele>81</ele>
        <time>2026-02-28T10:20:54Z</time>
      </trkpt>
      <trkpt lat="43.33632" lon="-1.40361">
        <ele>81</ele>
        <time>2026-02-28T10:20:55Z</time>
      </trkpt>
      <trkpt lat="43.33634" lon="-1.40348">
        <ele>81</ele>
        <time>2026-02-28T10:20:56Z</time>
      </trkpt>
      <trkpt lat="43.33637" lon="-1.40344">
        <ele>81</ele>
        <time>2026-02-28T10:20:57Z</time>
      </trkpt>
      <trkpt lat="43.33647" lon="-1.4034">
        <ele>82</ele>
        <time>2026-02-28T10:20:59Z</time>
      </trkpt>
      <trkpt lat="43.33652" lon="-1.40341">
        <ele>82</ele>
        <time>2026-02-28T10:21:00Z</time>
      </trkpt>
      <trkpt lat="43.33659" lon="-1.4035">
        <ele>82</ele>
        <time>2026-02-28T10:21:01Z</time>
      </trkpt>
      <trkpt lat="43.33672" lon="-1.4036">
        <ele>81</ele>
        <time>2026-02-28T10:21:04Z</time>
      </trkpt>
      <trkpt lat="43.33681" lon="-1.40364">
        <ele>81</ele>
        <time>2026-02-28T10:21:06Z</time>
      </trkpt>
      <trkpt lat="43.33714" lon="-1.40357">
        <ele>82</ele>
        <time>2026-02-28T10:21:12Z</time>
      </trkpt>
      <trkpt lat="43.33771" lon="-1.40337">
        <ele>81</ele>
        <time>2026-02-28T10:21:22Z</time>
      </trkpt>
      <trkpt lat="43.33807" lon="-1.40321">
        <ele>80</ele>
        <time>2026-02-28T10:21:29Z</time>
      </trkpt>
      <trkpt lat="43.33873" lon="-1.40272">
        <ele>80</ele>
        <time>2026-02-28T10:21:42Z</time>
      </trkpt>
      <trkpt lat="43.33935" lon="-1.40228">
        <ele>79</ele>
        <time>2026-02-28T10:21:55Z</time>
      </trkpt>
      <trkpt lat="43.33994" lon="-1.40196">
        <ele>78</ele>
        <time>2026-02-28T10:22:06Z</time>
      </trkpt>
      <trkpt lat="43.34029" lon="-1.40185">
        <ele>80</ele>
        <time>2026-02-28T10:22:12Z</time>
      </trkpt>
      <trkpt lat="43.34068" lon="-1.40183">
        <ele>83</ele>
        <time>2026-02-28T10:22:19Z</time>
      </trkpt>
      <trkpt lat="43.34109" lon="-1.40189">
        <ele>85</ele>
        <time>2026-02-28T10:22:27Z</time>
      </trkpt>
      <trkpt lat="43.34141" lon="-1.40203">
        <ele>86</ele>
        <time>2026-02-28T10:22:33Z</time>
      </trkpt>
      <trkpt lat="43.34143" lon="-1.40204">
        <ele>86</ele>
        <time>2026-02-28T10:22:33Z</time>
      </trkpt>
      <trkpt lat="43.34194" lon="-1.40232">
        <ele>87</ele>
        <time>2026-02-28T10:22:43Z</time>
      </trkpt>
      <trkpt lat="43.3423" lon="-1.40247">
        <ele>87</ele>
        <time>2026-02-28T10:22:49Z</time>
      </trkpt>
      <trkpt lat="43.34258" lon="-1.4025">
        <ele>86</ele>
        <time>2026-02-28T10:22:54Z</time>
      </trkpt>
      <trkpt lat="43.34298" lon="-1.40245">
        <ele>87</ele>
        <time>2026-02-28T10:23:02Z</time>
      </trkpt>
      <trkpt lat="43.34401" lon="-1.40221">
        <ele>86</ele>
        <time>2026-02-28T10:23:20Z</time>
      </trkpt>
      <trkpt lat="43.34431" lon="-1.40218">
        <ele>86</ele>
        <time>2026-02-28T10:23:26Z</time>
      </trkpt>
      <trkpt lat="43.34456" lon="-1.40218">
        <ele>86</ele>
        <time>2026-02-28T10:23:30Z</time>
      </trkpt>
      <trkpt lat="43.34459" lon="-1.40206">
        <ele>86</ele>
        <time>2026-02-28T10:23:32Z</time>
      </trkpt>
      <trkpt lat="43.34462" lon="-1.40201">
        <ele>86</ele>
        <time>2026-02-28T10:23:32Z</time>
      </trkpt>
      <trkpt lat="43.34467" lon="-1.40198">
        <ele>86</ele>
        <time>2026-02-28T10:23:33Z</time>
      </trkpt>
      <trkpt lat="43.34476" lon="-1.40198">
        <ele>86</ele>
        <time>2026-02-28T10:23:35Z</time>
      </trkpt>
      <trkpt lat="43.34484" lon="-1.40177">
        <ele>86</ele>
        <time>2026-02-28T10:23:38Z</time>
      </trkpt>
      <trkpt lat="43.34495" lon="-1.40154">
        <ele>87</ele>
        <time>2026-02-28T10:23:42Z</time>
      </trkpt>
      <trkpt lat="43.34511" lon="-1.40133">
        <ele>88</ele>
        <time>2026-02-28T10:23:46Z</time>
      </trkpt>
      <trkpt lat="43.34583" lon="-1.40071">
        <ele>89</ele>
        <time>2026-02-28T10:24:01Z</time>
      </trkpt>
      <trkpt lat="43.34655" lon="-1.40008">
        <ele>87</ele>
        <time>2026-02-28T10:24:16Z</time>
      </trkpt>
      <trkpt lat="43.34672" lon="-1.39997">
        <ele>86</ele>
        <time>2026-02-28T10:24:19Z</time>
      </trkpt>
      <trkpt lat="43.34686" lon="-1.3999">
        <ele>87</ele>
        <time>2026-02-28T10:24:22Z</time>
      </trkpt>
      <trkpt lat="43.34754" lon="-1.39962">
        <ele>90</ele>
        <time>2026-02-28T10:24:35Z</time>
      </trkpt>
      <trkpt lat="43.34869" lon="-1.39934">
        <ele>96</ele>
        <time>2026-02-28T10:24:55Z</time>
      </trkpt>
      <trkpt lat="43.3492" lon="-1.39919">
        <ele>99</ele>
        <time>2026-02-28T10:25:05Z</time>
      </trkpt>
      <trkpt lat="43.34937" lon="-1.39915">
        <ele>99</ele>
        <time>2026-02-28T10:25:08Z</time>
      </trkpt>
      <trkpt lat="43.34951" lon="-1.39912">
        <ele>99</ele>
        <time>2026-02-28T10:25:10Z</time>
      </trkpt>
      <trkpt lat="43.35093" lon="-1.3987">
        <ele>84</ele>
        <time>2026-02-28T10:25:36Z</time>
      </trkpt>
      <trkpt lat="43.35111" lon="-1.39864">
        <ele>82</ele>
        <time>2026-02-28T10:25:39Z</time>
      </trkpt>
      <trkpt lat="43.35114" lon="-1.39863">
        <ele>82</ele>
        <time>2026-02-28T10:25:40Z</time>
      </trkpt>
      <trkpt lat="43.35117" lon="-1.39862">
        <ele>82</ele>
        <time>2026-02-28T10:25:40Z</time>
      </trkpt>
      <trkpt lat="43.3512" lon="-1.39861">
        <ele>81</ele>
        <time>2026-02-28T10:25:41Z</time>
      </trkpt>
      <trkpt lat="43.35188" lon="-1.3984">
        <ele>74</ele>
        <time>2026-02-28T10:25:53Z</time>
      </trkpt>
      <trkpt lat="43.35233" lon="-1.39831">
        <ele>70</ele>
        <time>2026-02-28T10:26:01Z</time>
      </trkpt>
      <trkpt lat="43.35261" lon="-1.39831">
        <ele>68</ele>
        <time>2026-02-28T10:26:06Z</time>
      </trkpt>
      <trkpt lat="43.35263" lon="-1.39825">
        <ele>68</ele>
        <time>2026-02-28T10:26:07Z</time>
      </trkpt>
      <trkpt lat="43.35271" lon="-1.3982">
        <ele>68</ele>
        <time>2026-02-28T10:26:09Z</time>
      </trkpt>
      <trkpt lat="43.35278" lon="-1.39824">
        <ele>68</ele>
        <time>2026-02-28T10:26:10Z</time>
      </trkpt>
      <trkpt lat="43.3528" lon="-1.39827">
        <ele>68</ele>
        <time>2026-02-28T10:26:11Z</time>
      </trkpt>
      <trkpt lat="43.35281" lon="-1.39838">
        <ele>68</ele>
        <time>2026-02-28T10:26:12Z</time>
      </trkpt>
      <trkpt lat="43.3529" lon="-1.39845">
        <ele>68</ele>
        <time>2026-02-28T10:26:14Z</time>
      </trkpt>
      <trkpt lat="43.35298" lon="-1.3985">
        <ele>68</ele>
        <time>2026-02-28T10:26:16Z</time>
      </trkpt>
      <trkpt lat="43.35318" lon="-1.39849">
        <ele>68</ele>
        <time>2026-02-28T10:26:19Z</time>
      </trkpt>
      <trkpt lat="43.35405" lon="-1.39872">
        <ele>69</ele>
        <time>2026-02-28T10:26:35Z</time>
      </trkpt>
      <trkpt lat="43.35417" lon="-1.39876">
        <ele>69</ele>
        <time>2026-02-28T10:26:37Z</time>
      </trkpt>
      <trkpt lat="43.35428" lon="-1.39881">
        <ele>70</ele>
        <time>2026-02-28T10:26:39Z</time>
      </trkpt>
      <trkpt lat="43.35441" lon="-1.39884">
        <ele>70</ele>
        <time>2026-02-28T10:26:42Z</time>
      </trkpt>
      <trkpt lat="43.3549" lon="-1.39896">
        <ele>73</ele>
        <time>2026-02-28T10:26:50Z</time>
      </trkpt>
      <trkpt lat="43.35507" lon="-1.39901">
        <ele>73</ele>
        <time>2026-02-28T10:26:53Z</time>
      </trkpt>
      <trkpt lat="43.356" lon="-1.39922">
        <ele>74</ele>
        <time>2026-02-28T10:27:10Z</time>
      </trkpt>
      <trkpt lat="43.35632" lon="-1.39926">
        <ele>73</ele>
        <time>2026-02-28T10:27:16Z</time>
      </trkpt>
      <trkpt lat="43.35648" lon="-1.39925">
        <ele>73</ele>
        <time>2026-02-28T10:27:19Z</time>
      </trkpt>
      <trkpt lat="43.35705" lon="-1.39909">
        <ele>72</ele>
        <time>2026-02-28T10:27:29Z</time>
      </trkpt>
      <trkpt lat="43.35736" lon="-1.399">
        <ele>71</ele>
        <time>2026-02-28T10:27:35Z</time>
      </trkpt>
      <trkpt lat="43.35868" lon="-1.39876">
        <ele>71</ele>
        <time>2026-02-28T10:27:58Z</time>
      </trkpt>
      <trkpt lat="43.35889" lon="-1.39877">
        <ele>72</ele>
        <time>2026-02-28T10:28:02Z</time>
      </trkpt>
      <trkpt lat="43.35957" lon="-1.3989">
        <ele>71</ele>
        <time>2026-02-28T10:28:14Z</time>
      </trkpt>
      <trkpt lat="43.35978" lon="-1.39893">
        <ele>71</ele>
        <time>2026-02-28T10:28:18Z</time>
      </trkpt>
      <trkpt lat="43.3598" lon="-1.39885">
        <ele>71</ele>
        <time>2026-02-28T10:28:19Z</time>
      </trkpt>
      <trkpt lat="43.35984" lon="-1.3988">
        <ele>70</ele>
        <time>2026-02-28T10:28:20Z</time>
      </trkpt>
      <trkpt lat="43.35987" lon="-1.39879">
        <ele>70</ele>
        <time>2026-02-28T10:28:21Z</time>
      </trkpt>
      <trkpt lat="43.35993" lon="-1.39881">
        <ele>70</ele>
        <time>2026-02-28T10:28:22Z</time>
      </trkpt>
      <trkpt lat="43.35997" lon="-1.39888">
        <ele>70</ele>
        <time>2026-02-28T10:28:23Z</time>
      </trkpt>
      <trkpt lat="43.36006" lon="-1.39885">
        <ele>70</ele>
        <time>2026-02-28T10:28:25Z</time>
      </trkpt>
      <trkpt lat="43.36013" lon="-1.39895">
        <ele>70</ele>
        <time>2026-02-28T10:28:26Z</time>
      </trkpt>
      <trkpt lat="43.36044" lon="-1.39858">
        <ele>68</ele>
        <time>2026-02-28T10:28:34Z</time>
      </trkpt>
      <trkpt lat="43.36054" lon="-1.39846">
        <ele>67</ele>
        <time>2026-02-28T10:28:36Z</time>
      </trkpt>
      <trkpt lat="43.3607" lon="-1.39823">
        <ele>66</ele>
        <time>2026-02-28T10:28:40Z</time>
      </trkpt>
      <trkpt lat="43.36075" lon="-1.39816">
        <ele>66</ele>
        <time>2026-02-28T10:28:42Z</time>
      </trkpt>
      <trkpt lat="43.36084" lon="-1.39804">
        <ele>66</ele>
        <time>2026-02-28T10:28:44Z</time>
      </trkpt>
      <trkpt lat="43.36091" lon="-1.39795">
        <ele>65</ele>
        <time>2026-02-28T10:28:45Z</time>
      </trkpt>
      <trkpt lat="43.36118" lon="-1.39833">
        <ele>64</ele>
        <time>2026-02-28T10:28:52Z</time>
      </trkpt>
      <trkpt lat="43.3614" lon="-1.39775">
        <ele>63</ele>
        <time>2026-02-28T10:29:01Z</time>
      </trkpt>
      <trkpt lat="43.36195" lon="-1.3981">
        <ele>56</ele>
        <time>2026-02-28T10:29:12Z</time>
      </trkpt>
      <trkpt lat="43.36198" lon="-1.39807">
        <ele>56</ele>
        <time>2026-02-28T10:29:12Z</time>
      </trkpt>
      <trkpt lat="43.36199" lon="-1.39806">
        <ele>55</ele>
        <time>2026-02-28T10:29:12Z</time>
      </trkpt>
      <trkpt lat="43.36202" lon="-1.39808">
        <ele>55</ele>
        <time>2026-02-28T10:29:13Z</time>
      </trkpt>
      <trkpt lat="43.36218" lon="-1.39792">
        <ele>52</ele>
        <time>2026-02-28T10:29:17Z</time>
      </trkpt>
      <trkpt lat="43.36223" lon="-1.39772">
        <ele>51</ele>
        <time>2026-02-28T10:29:19Z</time>
      </trkpt>
      <trkpt lat="43.36225" lon="-1.39742">
        <ele>50</ele>
        <time>2026-02-28T10:29:23Z</time>
      </trkpt>
      <trkpt lat="43.36236" lon="-1.39671">
        <ele>49</ele>
        <time>2026-02-28T10:29:33Z</time>
      </trkpt>
      <trkpt lat="43.36237" lon="-1.39605">
        <ele>48</ele>
        <time>2026-02-28T10:29:41Z</time>
      </trkpt>
      <trkpt lat="43.36236" lon="-1.39564">
        <ele>47</ele>
        <time>2026-02-28T10:29:46Z</time>
      </trkpt>
      <trkpt lat="43.36249" lon="-1.39505">
        <ele>45</ele>
        <time>2026-02-28T10:29:54Z</time>
      </trkpt>
      <trkpt lat="43.36255" lon="-1.39495">
        <ele>43</ele>
        <time>2026-02-28T10:29:56Z</time>
      </trkpt>
      <trkpt lat="43.36259" lon="-1.39509">
        <ele>42</ele>
        <time>2026-02-28T10:29:58Z</time>
      </trkpt>
      <trkpt lat="43.36253" lon="-1.39551">
        <ele>44</ele>
        <time>2026-02-28T10:30:04Z</time>
      </trkpt>
      <trkpt lat="43.36252" lon="-1.3959">
        <ele>45</ele>
        <time>2026-02-28T10:30:09Z</time>
      </trkpt>
      <trkpt lat="43.36276" lon="-1.39735">
        <ele>37</ele>
        <time>2026-02-28T10:30:28Z</time>
      </trkpt>
      <trkpt lat="43.36279" lon="-1.39744">
        <ele>35</ele>
        <time>2026-02-28T10:30:29Z</time>
      </trkpt>
      <trkpt lat="43.36285" lon="-1.39755">
        <ele>33</ele>
        <time>2026-02-28T10:30:31Z</time>
      </trkpt>
      <trkpt lat="43.36293" lon="-1.39759">
        <ele>31</ele>
        <time>2026-02-28T10:30:32Z</time>
      </trkpt>
      <trkpt lat="43.36326" lon="-1.39771">
        <ele>20</ele>
        <time>2026-02-28T10:30:39Z</time>
      </trkpt>
      <trkpt lat="43.36349" lon="-1.39774">
        <ele>17</ele>
        <time>2026-02-28T10:30:43Z</time>
      </trkpt>
      <trkpt lat="43.36365" lon="-1.39773">
        <ele>18</ele>
        <time>2026-02-28T10:30:45Z</time>
      </trkpt>
      <trkpt lat="43.36391" lon="-1.39767">
        <ele>18</ele>
        <time>2026-02-28T10:30:50Z</time>
      </trkpt>
      <trkpt lat="43.36425" lon="-1.3975">
        <ele>19</ele>
        <time>2026-02-28T10:30:57Z</time>
      </trkpt>
      <trkpt lat="43.3651" lon="-1.39704">
        <ele>21</ele>
        <time>2026-02-28T10:31:13Z</time>
      </trkpt>
      <trkpt lat="43.36521" lon="-1.39701">
        <ele>21</ele>
        <time>2026-02-28T10:31:15Z</time>
      </trkpt>
      <trkpt lat="43.3653" lon="-1.39715">
        <ele>21</ele>
        <time>2026-02-28T10:31:17Z</time>
      </trkpt>
      <trkpt lat="43.36543" lon="-1.39736">
        <ele>21</ele>
        <time>2026-02-28T10:31:21Z</time>
      </trkpt>
      <trkpt lat="43.36594" lon="-1.39818">
        <ele>21</ele>
        <time>2026-02-28T10:31:35Z</time>
      </trkpt>
      <trkpt lat="43.3667" lon="-1.39948">
        <ele>21</ele>
        <time>2026-02-28T10:31:56Z</time>
      </trkpt>
      <trkpt lat="43.36708" lon="-1.4001">
        <ele>20</ele>
        <time>2026-02-28T10:32:07Z</time>
      </trkpt>
      <trkpt lat="43.36718" lon="-1.40023">
        <ele>20</ele>
        <time>2026-02-28T10:32:09Z</time>
      </trkpt>
      <trkpt lat="43.36735" lon="-1.40038">
        <ele>20</ele>
        <time>2026-02-28T10:32:13Z</time>
      </trkpt>
      <trkpt lat="43.36751" lon="-1.40048">
        <ele>19</ele>
        <time>2026-02-28T10:32:16Z</time>
      </trkpt>
      <trkpt lat="43.36769" lon="-1.40061">
        <ele>20</ele>
        <time>2026-02-28T10:32:20Z</time>
      </trkpt>
      <trkpt lat="43.36786" lon="-1.40065">
        <ele>20</ele>
        <time>2026-02-28T10:32:23Z</time>
      </trkpt>
      <trkpt lat="43.36794" lon="-1.40063">
        <ele>21</ele>
        <time>2026-02-28T10:32:24Z</time>
      </trkpt>
      <trkpt lat="43.36801" lon="-1.40057">
        <ele>21</ele>
        <time>2026-02-28T10:32:26Z</time>
      </trkpt>
      <trkpt lat="43.36808" lon="-1.40046">
        <ele>21</ele>
        <time>2026-02-28T10:32:28Z</time>
      </trkpt>
      <trkpt lat="43.36823" lon="-1.39981">
        <ele>24</ele>
        <time>2026-02-28T10:32:36Z</time>
      </trkpt>
      <trkpt lat="43.36829" lon="-1.39963">
        <ele>25</ele>
        <time>2026-02-28T10:32:39Z</time>
      </trkpt>
      <trkpt lat="43.36834" lon="-1.39955">
        <ele>26</ele>
        <time>2026-02-28T10:32:40Z</time>
      </trkpt>
      <trkpt lat="43.36819" lon="-1.39926">
        <ele>26</ele>
        <time>2026-02-28T10:32:45Z</time>
      </trkpt>
      <trkpt lat="43.36817" lon="-1.39924">
        <ele>26</ele>
        <time>2026-02-28T10:32:45Z</time>
      </trkpt>
      <trkpt lat="43.36808" lon="-1.39915">
        <ele>25</ele>
        <time>2026-02-28T10:32:47Z</time>
      </trkpt>
      <trkpt lat="43.36806" lon="-1.39908">
        <ele>25</ele>
        <time>2026-02-28T10:32:48Z</time>
      </trkpt>
      <trkpt lat="43.36804" lon="-1.39896">
        <ele>25</ele>
        <time>2026-02-28T10:32:50Z</time>
      </trkpt>
      <trkpt lat="43.36814" lon="-1.39848">
        <ele>27</ele>
        <time>2026-02-28T10:32:56Z</time>
      </trkpt>
      <trkpt lat="43.36815" lon="-1.39832">
        <ele>27</ele>
        <time>2026-02-28T10:32:58Z</time>
      </trkpt>
      <trkpt lat="43.36815" lon="-1.39817">
        <ele>28</ele>
        <time>2026-02-28T10:33:00Z</time>
      </trkpt>
      <trkpt lat="43.36819" lon="-1.39805">
        <ele>29</ele>
        <time>2026-02-28T10:33:02Z</time>
      </trkpt>
      <trkpt lat="43.3684" lon="-1.39768">
        <ele>31</ele>
        <time>2026-02-28T10:33:08Z</time>
      </trkpt>
      <trkpt lat="43.36871" lon="-1.39737">
        <ele>34</ele>
        <time>2026-02-28T10:33:15Z</time>
      </trkpt>
      <trkpt lat="43.36911" lon="-1.39698">
        <ele>39</ele>
        <time>2026-02-28T10:33:24Z</time>
      </trkpt>
      <trkpt lat="43.36916" lon="-1.3969">
        <ele>40</ele>
        <time>2026-02-28T10:33:25Z</time>
      </trkpt>
      <trkpt lat="43.36919" lon="-1.39679">
        <ele>41</ele>
        <time>2026-02-28T10:33:27Z</time>
      </trkpt>
      <trkpt lat="43.36921" lon="-1.39592">
        <ele>43</ele>
        <time>2026-02-28T10:33:38Z</time>
      </trkpt>
      <trkpt lat="43.36923" lon="-1.39576">
        <ele>43</ele>
        <time>2026-02-28T10:33:40Z</time>
      </trkpt>
      <trkpt lat="43.36923" lon="-1.39548">
        <ele>43</ele>
        <time>2026-02-28T10:33:44Z</time>
      </trkpt>
      <trkpt lat="43.36919" lon="-1.39526">
        <ele>44</ele>
        <time>2026-02-28T10:33:46Z</time>
      </trkpt>
      <trkpt lat="43.36913" lon="-1.39508">
        <ele>44</ele>
        <time>2026-02-28T10:33:49Z</time>
      </trkpt>
      <trkpt lat="43.36863" lon="-1.39401">
        <ele>48</ele>
        <time>2026-02-28T10:34:05Z</time>
      </trkpt>
      <trkpt lat="43.36835" lon="-1.39344">
        <ele>58</ele>
        <time>2026-02-28T10:34:14Z</time>
      </trkpt>
      <trkpt lat="43.36825" lon="-1.39329">
        <ele>59</ele>
        <time>2026-02-28T10:34:17Z</time>
      </trkpt>
      <trkpt lat="43.36803" lon="-1.39304">
        <ele>59</ele>
        <time>2026-02-28T10:34:22Z</time>
      </trkpt>
      <trkpt lat="43.36715" lon="-1.39156">
        <ele>73</ele>
        <time>2026-02-28T10:34:47Z</time>
      </trkpt>
      <trkpt lat="43.36705" lon="-1.3912">
        <ele>76</ele>
        <time>2026-02-28T10:34:52Z</time>
      </trkpt>
      <trkpt lat="43.36698" lon="-1.39098">
        <ele>78</ele>
        <time>2026-02-28T10:34:55Z</time>
      </trkpt>
      <trkpt lat="43.36692" lon="-1.39046">
        <ele>81</ele>
        <time>2026-02-28T10:35:02Z</time>
      </trkpt>
      <trkpt lat="43.36693" lon="-1.3903">
        <ele>82</ele>
        <time>2026-02-28T10:35:04Z</time>
      </trkpt>
      <trkpt lat="43.36698" lon="-1.39014">
        <ele>82</ele>
        <time>2026-02-28T10:35:06Z</time>
      </trkpt>
      <trkpt lat="43.36709" lon="-1.38989">
        <ele>81</ele>
        <time>2026-02-28T10:35:10Z</time>
      </trkpt>
      <trkpt lat="43.36726" lon="-1.38936">
        <ele>82</ele>
        <time>2026-02-28T10:35:17Z</time>
      </trkpt>
      <trkpt lat="43.36743" lon="-1.38838">
        <ele>90</ele>
        <time>2026-02-28T10:35:30Z</time>
      </trkpt>
      <trkpt lat="43.36745" lon="-1.38791">
        <ele>89</ele>
        <time>2026-02-28T10:35:36Z</time>
      </trkpt>
      <trkpt lat="43.36742" lon="-1.38774">
        <ele>89</ele>
        <time>2026-02-28T10:35:39Z</time>
      </trkpt>
      <trkpt lat="43.36736" lon="-1.38759">
        <ele>89</ele>
        <time>2026-02-28T10:35:41Z</time>
      </trkpt>
      <trkpt lat="43.36705" lon="-1.38728">
        <ele>91</ele>
        <time>2026-02-28T10:35:48Z</time>
      </trkpt>
      <trkpt lat="43.36696" lon="-1.3871">
        <ele>92</ele>
        <time>2026-02-28T10:35:51Z</time>
      </trkpt>
      <trkpt lat="43.36696" lon="-1.38691">
        <ele>91</ele>
        <time>2026-02-28T10:35:53Z</time>
      </trkpt>
      <trkpt lat="43.36711" lon="-1.38641">
        <ele>87</ele>
        <time>2026-02-28T10:36:00Z</time>
      </trkpt>
      <trkpt lat="43.36727" lon="-1.38574">
        <ele>83</ele>
        <time>2026-02-28T10:36:09Z</time>
      </trkpt>
      <trkpt lat="43.36738" lon="-1.38538">
        <ele>84</ele>
        <time>2026-02-28T10:36:14Z</time>
      </trkpt>
      <trkpt lat="43.36754" lon="-1.385">
        <ele>84</ele>
        <time>2026-02-28T10:36:20Z</time>
      </trkpt>
      <trkpt lat="43.36757" lon="-1.38473">
        <ele>85</ele>
        <time>2026-02-28T10:36:23Z</time>
      </trkpt>
      <trkpt lat="43.36755" lon="-1.38435">
        <ele>86</ele>
        <time>2026-02-28T10:36:28Z</time>
      </trkpt>
      <trkpt lat="43.36747" lon="-1.38396">
        <ele>86</ele>
        <time>2026-02-28T10:36:34Z</time>
      </trkpt>
      <trkpt lat="43.36737" lon="-1.38372">
        <ele>83</ele>
        <time>2026-02-28T10:36:37Z</time>
      </trkpt>
      <trkpt lat="43.36733" lon="-1.38344">
        <ele>81</ele>
        <time>2026-02-28T10:36:41Z</time>
      </trkpt>
      <trkpt lat="43.36738" lon="-1.38259">
        <ele>81</ele>
        <time>2026-02-28T10:36:52Z</time>
      </trkpt>
      <trkpt lat="43.36742" lon="-1.38236">
        <ele>82</ele>
        <time>2026-02-28T10:36:55Z</time>
      </trkpt>
      <trkpt lat="43.36754" lon="-1.38204">
        <ele>85</ele>
        <time>2026-02-28T10:37:00Z</time>
      </trkpt>
      <trkpt lat="43.36756" lon="-1.38188">
        <ele>85</ele>
        <time>2026-02-28T10:37:02Z</time>
      </trkpt>
      <trkpt lat="43.36751" lon="-1.38138">
        <ele>87</ele>
        <time>2026-02-28T10:37:08Z</time>
      </trkpt>
      <trkpt lat="43.36757" lon="-1.38013">
        <ele>95</ele>
        <time>2026-02-28T10:37:24Z</time>
      </trkpt>
      <trkpt lat="43.36763" lon="-1.37983">
        <ele>96</ele>
        <time>2026-02-28T10:37:28Z</time>
      </trkpt>
      <trkpt lat="43.36837" lon="-1.37825">
        <ele>109</ele>
        <time>2026-02-28T10:37:53Z</time>
      </trkpt>
      <trkpt lat="43.36846" lon="-1.37787">
        <ele>109</ele>
        <time>2026-02-28T10:37:58Z</time>
      </trkpt>
      <trkpt lat="43.36868" lon="-1.37731">
        <ele>108</ele>
        <time>2026-02-28T10:38:06Z</time>
      </trkpt>
      <trkpt lat="43.36896" lon="-1.37651">
        <ele>110</ele>
        <time>2026-02-28T10:38:18Z</time>
      </trkpt>
      <trkpt lat="43.36909" lon="-1.37628">
        <ele>113</ele>
        <time>2026-02-28T10:38:21Z</time>
      </trkpt>
      <trkpt lat="43.36922" lon="-1.37615">
        <ele>114</ele>
        <time>2026-02-28T10:38:24Z</time>
      </trkpt>
      <trkpt lat="43.36944" lon="-1.37601">
        <ele>112</ele>
        <time>2026-02-28T10:38:29Z</time>
      </trkpt>
      <trkpt lat="43.36975" lon="-1.37576">
        <ele>110</ele>
        <time>2026-02-28T10:38:35Z</time>
      </trkpt>
      <trkpt lat="43.36996" lon="-1.37553">
        <ele>111</ele>
        <time>2026-02-28T10:38:40Z</time>
      </trkpt>
      <trkpt lat="43.37033" lon="-1.37524">
        <ele>113</ele>
        <time>2026-02-28T10:38:47Z</time>
      </trkpt>
      <trkpt lat="43.37059" lon="-1.37487">
        <ele>116</ele>
        <time>2026-02-28T10:38:54Z</time>
      </trkpt>
      <trkpt lat="43.3706" lon="-1.37478">
        <ele>116</ele>
        <time>2026-02-28T10:38:55Z</time>
      </trkpt>
      <trkpt lat="43.3707" lon="-1.37437">
        <ele>118</ele>
        <time>2026-02-28T10:39:01Z</time>
      </trkpt>
      <trkpt lat="43.37079" lon="-1.37415">
        <ele>119</ele>
        <time>2026-02-28T10:39:04Z</time>
      </trkpt>
      <trkpt lat="43.37135" lon="-1.37343">
        <ele>122</ele>
        <time>2026-02-28T10:39:18Z</time>
      </trkpt>
      <trkpt lat="43.3718" lon="-1.37302">
        <ele>120</ele>
        <time>2026-02-28T10:39:27Z</time>
      </trkpt>
      <trkpt lat="43.37208" lon="-1.3727">
        <ele>118</ele>
        <time>2026-02-28T10:39:34Z</time>
      </trkpt>
      <trkpt lat="43.3727" lon="-1.37195">
        <ele>116</ele>
        <time>2026-02-28T10:39:48Z</time>
      </trkpt>
      <trkpt lat="43.37301" lon="-1.37148">
        <ele>115</ele>
        <time>2026-02-28T10:39:57Z</time>
      </trkpt>
      <trkpt lat="43.37341" lon="-1.37068">
        <ele>117</ele>
        <time>2026-02-28T10:40:09Z</time>
      </trkpt>
      <trkpt lat="43.37363" lon="-1.37039">
        <ele>118</ele>
        <time>2026-02-28T10:40:15Z</time>
      </trkpt>
      <trkpt lat="43.37374" lon="-1.37017">
        <ele>119</ele>
        <time>2026-02-28T10:40:18Z</time>
      </trkpt>
      <trkpt lat="43.37379" lon="-1.36985">
        <ele>122</ele>
        <time>2026-02-28T10:40:22Z</time>
      </trkpt>
      <trkpt lat="43.37383" lon="-1.36947">
        <ele>126</ele>
        <time>2026-02-28T10:40:27Z</time>
      </trkpt>
      <trkpt lat="43.37392" lon="-1.36927">
        <ele>127</ele>
        <time>2026-02-28T10:40:30Z</time>
      </trkpt>
      <trkpt lat="43.37436" lon="-1.36866">
        <ele>125</ele>
        <time>2026-02-28T10:40:41Z</time>
      </trkpt>
      <trkpt lat="43.37462" lon="-1.36841">
        <ele>127</ele>
        <time>2026-02-28T10:40:47Z</time>
      </trkpt>
      <trkpt lat="43.3747" lon="-1.36825">
        <ele>127</ele>
        <time>2026-02-28T10:40:50Z</time>
      </trkpt>
      <trkpt lat="43.37485" lon="-1.36782">
        <ele>126</ele>
        <time>2026-02-28T10:40:56Z</time>
      </trkpt>
      <trkpt lat="43.37497" lon="-1.36765">
        <ele>126</ele>
        <time>2026-02-28T10:40:59Z</time>
      </trkpt>
      <trkpt lat="43.37517" lon="-1.36753">
        <ele>129</ele>
        <time>2026-02-28T10:41:03Z</time>
      </trkpt>
      <trkpt lat="43.37551" lon="-1.36739">
        <ele>134</ele>
        <time>2026-02-28T10:41:09Z</time>
      </trkpt>
      <trkpt lat="43.37568" lon="-1.3672">
        <ele>137</ele>
        <time>2026-02-28T10:41:13Z</time>
      </trkpt>
      <trkpt lat="43.37576" lon="-1.36701">
        <ele>137</ele>
        <time>2026-02-28T10:41:16Z</time>
      </trkpt>
      <trkpt lat="43.37577" lon="-1.36658">
        <ele>137</ele>
        <time>2026-02-28T10:41:21Z</time>
      </trkpt>
      <trkpt lat="43.37582" lon="-1.36622">
        <ele>138</ele>
        <time>2026-02-28T10:41:26Z</time>
      </trkpt>
      <trkpt lat="43.37591" lon="-1.36587">
        <ele>137</ele>
        <time>2026-02-28T10:41:31Z</time>
      </trkpt>
      <trkpt lat="43.37596" lon="-1.36582">
        <ele>137</ele>
        <time>2026-02-28T10:41:32Z</time>
      </trkpt>
      <trkpt lat="43.37652" lon="-1.36658">
        <ele>139</ele>
        <time>2026-02-28T10:41:46Z</time>
      </trkpt>
      <trkpt lat="43.37667" lon="-1.36682">
        <ele>141</ele>
        <time>2026-02-28T10:41:50Z</time>
      </trkpt>
      <trkpt lat="43.37671" lon="-1.36698">
        <ele>140</ele>
        <time>2026-02-28T10:41:52Z</time>
      </trkpt>
      <trkpt lat="43.37673" lon="-1.36719">
        <ele>141</ele>
        <time>2026-02-28T10:41:55Z</time>
      </trkpt>
      <trkpt lat="43.37672" lon="-1.36764">
        <ele>142</ele>
        <time>2026-02-28T10:42:01Z</time>
      </trkpt>
      <trkpt lat="43.37674" lon="-1.36791">
        <ele>140</ele>
        <time>2026-02-28T10:42:04Z</time>
      </trkpt>
      <trkpt lat="43.37685" lon="-1.36841">
        <ele>136</ele>
        <time>2026-02-28T10:42:11Z</time>
      </trkpt>
      <trkpt lat="43.37753" lon="-1.3708">
        <ele>129</ele>
        <time>2026-02-28T10:42:44Z</time>
      </trkpt>
      <trkpt lat="43.37766" lon="-1.37116">
        <ele>127</ele>
        <time>2026-02-28T10:42:49Z</time>
      </trkpt>
      <trkpt lat="43.37782" lon="-1.3715">
        <ele>126</ele>
        <time>2026-02-28T10:42:55Z</time>
      </trkpt>
      <trkpt lat="43.37795" lon="-1.3717">
        <ele>125</ele>
        <time>2026-02-28T10:42:58Z</time>
      </trkpt>
      <trkpt lat="43.37811" lon="-1.3719">
        <ele>122</ele>
        <time>2026-02-28T10:43:02Z</time>
      </trkpt>
      <trkpt lat="43.37891" lon="-1.37277">
        <ele>115</ele>
        <time>2026-02-28T10:43:20Z</time>
      </trkpt>
      <trkpt lat="43.38093" lon="-1.37502">
        <ele>126</ele>
        <time>2026-02-28T10:44:06Z</time>
      </trkpt>
      <trkpt lat="43.38111" lon="-1.37522">
        <ele>125</ele>
        <time>2026-02-28T10:44:11Z</time>
      </trkpt>
      <trkpt lat="43.38185" lon="-1.37614">
        <ele>120</ele>
        <time>2026-02-28T10:44:28Z</time>
      </trkpt>
      <trkpt lat="43.38242" lon="-1.37696">
        <ele>119</ele>
        <time>2026-02-28T10:44:43Z</time>
      </trkpt>
      <trkpt lat="43.38311" lon="-1.37795">
        <ele>117</ele>
        <time>2026-02-28T10:45:01Z</time>
      </trkpt>
      <trkpt lat="43.38416" lon="-1.37984">
        <ele>117</ele>
        <time>2026-02-28T10:45:31Z</time>
      </trkpt>
      <trkpt lat="43.38459" lon="-1.38057">
        <ele>118</ele>
        <time>2026-02-28T10:45:44Z</time>
      </trkpt>
      <trkpt lat="43.38481" lon="-1.38087">
        <ele>119</ele>
        <time>2026-02-28T10:45:49Z</time>
      </trkpt>
      <trkpt lat="43.38507" lon="-1.3811">
        <ele>118</ele>
        <time>2026-02-28T10:45:55Z</time>
      </trkpt>
      <trkpt lat="43.38524" lon="-1.38123">
        <ele>116</ele>
        <time>2026-02-28T10:45:58Z</time>
      </trkpt>
      <trkpt lat="43.38588" lon="-1.38159">
        <ele>114</ele>
        <time>2026-02-28T10:46:10Z</time>
      </trkpt>
      <trkpt lat="43.38625" lon="-1.38189">
        <ele>115</ele>
        <time>2026-02-28T10:46:18Z</time>
      </trkpt>
      <trkpt lat="43.38642" lon="-1.3821">
        <ele>117</ele>
        <time>2026-02-28T10:46:22Z</time>
      </trkpt>
      <trkpt lat="43.38652" lon="-1.38232">
        <ele>118</ele>
        <time>2026-02-28T10:46:25Z</time>
      </trkpt>
      <trkpt lat="43.38662" lon="-1.38267">
        <ele>121</ele>
        <time>2026-02-28T10:46:30Z</time>
      </trkpt>
      <trkpt lat="43.38667" lon="-1.38293">
        <ele>122</ele>
        <time>2026-02-28T10:46:34Z</time>
      </trkpt>
      <trkpt lat="43.38673" lon="-1.38345">
        <ele>123</ele>
        <time>2026-02-28T10:46:41Z</time>
      </trkpt>
      <trkpt lat="43.38676" lon="-1.38422">
        <ele>123</ele>
        <time>2026-02-28T10:46:51Z</time>
      </trkpt>
      <trkpt lat="43.38679" lon="-1.38497">
        <ele>128</ele>
        <time>2026-02-28T10:47:00Z</time>
      </trkpt>
      <trkpt lat="43.38682" lon="-1.3853">
        <ele>127</ele>
        <time>2026-02-28T10:47:05Z</time>
      </trkpt>
      <trkpt lat="43.38704" lon="-1.38715">
        <ele>127</ele>
        <time>2026-02-28T10:47:29Z</time>
      </trkpt>
      <trkpt lat="43.38705" lon="-1.38727">
        <ele>127</ele>
        <time>2026-02-28T10:47:30Z</time>
      </trkpt>
      <trkpt lat="43.38719" lon="-1.38999">
        <ele>120</ele>
        <time>2026-02-28T10:48:06Z</time>
      </trkpt>
      <trkpt lat="43.38726" lon="-1.39051">
        <ele>120</ele>
        <time>2026-02-28T10:48:12Z</time>
      </trkpt>
      <trkpt lat="43.38748" lon="-1.39167">
        <ele>121</ele>
        <time>2026-02-28T10:48:28Z</time>
      </trkpt>
      <trkpt lat="43.38765" lon="-1.39241">
        <ele>123</ele>
        <time>2026-02-28T10:48:38Z</time>
      </trkpt>
      <trkpt lat="43.38775" lon="-1.3927">
        <ele>123</ele>
        <time>2026-02-28T10:48:42Z</time>
      </trkpt>
      <trkpt lat="43.38787" lon="-1.39292">
        <ele>125</ele>
        <time>2026-02-28T10:48:46Z</time>
      </trkpt>
      <trkpt lat="43.38817" lon="-1.39337">
        <ele>129</ele>
        <time>2026-02-28T10:48:54Z</time>
      </trkpt>
      <trkpt lat="43.38898" lon="-1.39413">
        <ele>128</ele>
        <time>2026-02-28T10:49:11Z</time>
      </trkpt>
      <trkpt lat="43.38949" lon="-1.39451">
        <ele>123</ele>
        <time>2026-02-28T10:49:21Z</time>
      </trkpt>
      <trkpt lat="43.38984" lon="-1.3947">
        <ele>121</ele>
        <time>2026-02-28T10:49:28Z</time>
      </trkpt>
      <trkpt lat="43.39009" lon="-1.39479">
        <ele>121</ele>
        <time>2026-02-28T10:49:33Z</time>
      </trkpt>
      <trkpt lat="43.39058" lon="-1.39493">
        <ele>124</ele>
        <time>2026-02-28T10:49:42Z</time>
      </trkpt>
      <trkpt lat="43.39082" lon="-1.39508">
        <ele>125</ele>
        <time>2026-02-28T10:49:46Z</time>
      </trkpt>
      <trkpt lat="43.39122" lon="-1.39542">
        <ele>133</ele>
        <time>2026-02-28T10:49:55Z</time>
      </trkpt>
      <trkpt lat="43.39168" lon="-1.39591">
        <ele>140</ele>
        <time>2026-02-28T10:50:05Z</time>
      </trkpt>
      <trkpt lat="43.39178" lon="-1.39606">
        <ele>142</ele>
        <time>2026-02-28T10:50:08Z</time>
      </trkpt>
      <trkpt lat="43.39188" lon="-1.39625">
        <ele>143</ele>
        <time>2026-02-28T10:50:11Z</time>
      </trkpt>
      <trkpt lat="43.39206" lon="-1.39679">
        <ele>144</ele>
        <time>2026-02-28T10:50:18Z</time>
      </trkpt>
      <trkpt lat="43.3922" lon="-1.39703">
        <ele>144</ele>
        <time>2026-02-28T10:50:22Z</time>
      </trkpt>
      <trkpt lat="43.39241" lon="-1.39718">
        <ele>145</ele>
        <time>2026-02-28T10:50:26Z</time>
      </trkpt>
      <trkpt lat="43.39254" lon="-1.39721">
        <ele>145</ele>
        <time>2026-02-28T10:50:29Z</time>
      </trkpt>
      <trkpt lat="43.39269" lon="-1.39721">
        <ele>143</ele>
        <time>2026-02-28T10:50:32Z</time>
      </trkpt>
      <trkpt lat="43.39283" lon="-1.39718">
        <ele>142</ele>
        <time>2026-02-28T10:50:34Z</time>
      </trkpt>
      <trkpt lat="43.39303" lon="-1.39704">
        <ele>140</ele>
        <time>2026-02-28T10:50:38Z</time>
      </trkpt>
      <trkpt lat="43.39357" lon="-1.39654">
        <ele>140</ele>
        <time>2026-02-28T10:50:50Z</time>
      </trkpt>
      <trkpt lat="43.39374" lon="-1.39647">
        <ele>138</ele>
        <time>2026-02-28T10:50:53Z</time>
      </trkpt>
      <trkpt lat="43.39392" lon="-1.39646">
        <ele>137</ele>
        <time>2026-02-28T10:50:56Z</time>
      </trkpt>
      <trkpt lat="43.39493" lon="-1.39651">
        <ele>134</ele>
        <time>2026-02-28T10:51:14Z</time>
      </trkpt>
      <trkpt lat="43.39523" lon="-1.3965">
        <ele>136</ele>
        <time>2026-02-28T10:51:19Z</time>
      </trkpt>
      <trkpt lat="43.39542" lon="-1.39647">
        <ele>137</ele>
        <time>2026-02-28T10:51:23Z</time>
      </trkpt>
      <trkpt lat="43.39591" lon="-1.39616">
        <ele>138</ele>
        <time>2026-02-28T10:51:32Z</time>
      </trkpt>
      <trkpt lat="43.39617" lon="-1.39612">
        <ele>139</ele>
        <time>2026-02-28T10:51:37Z</time>
      </trkpt>
      <trkpt lat="43.39647" lon="-1.39615">
        <ele>140</ele>
        <time>2026-02-28T10:51:42Z</time>
      </trkpt>
      <trkpt lat="43.39667" lon="-1.3962">
        <ele>141</ele>
        <time>2026-02-28T10:51:46Z</time>
      </trkpt>
      <trkpt lat="43.39683" lon="-1.3963">
        <ele>142</ele>
        <time>2026-02-28T10:51:49Z</time>
      </trkpt>
      <trkpt lat="43.39709" lon="-1.39654">
        <ele>143</ele>
        <time>2026-02-28T10:51:55Z</time>
      </trkpt>
      <trkpt lat="43.39749" lon="-1.39693">
        <ele>144</ele>
        <time>2026-02-28T10:52:03Z</time>
      </trkpt>
      <trkpt lat="43.39774" lon="-1.39725">
        <ele>143</ele>
        <time>2026-02-28T10:52:09Z</time>
      </trkpt>
      <trkpt lat="43.39817" lon="-1.39821">
        <ele>141</ele>
        <time>2026-02-28T10:52:24Z</time>
      </trkpt>
      <trkpt lat="43.39844" lon="-1.39895">
        <ele>140</ele>
        <time>2026-02-28T10:52:35Z</time>
      </trkpt>
      <trkpt lat="43.39874" lon="-1.39978">
        <ele>136</ele>
        <time>2026-02-28T10:52:47Z</time>
      </trkpt>
      <trkpt lat="43.39892" lon="-1.40045">
        <ele>132</ele>
        <time>2026-02-28T10:52:56Z</time>
      </trkpt>
      <trkpt lat="43.39905" lon="-1.40079">
        <ele>129</ele>
        <time>2026-02-28T10:53:01Z</time>
      </trkpt>
      <trkpt lat="43.39918" lon="-1.40099">
        <ele>128</ele>
        <time>2026-02-28T10:53:04Z</time>
      </trkpt>
      <trkpt lat="43.39949" lon="-1.40134">
        <ele>125</ele>
        <time>2026-02-28T10:53:11Z</time>
      </trkpt>
      <trkpt lat="43.39974" lon="-1.4016">
        <ele>123</ele>
        <time>2026-02-28T10:53:17Z</time>
      </trkpt>
      <trkpt lat="43.39998" lon="-1.4018">
        <ele>121</ele>
        <time>2026-02-28T10:53:22Z</time>
      </trkpt>
      <trkpt lat="43.40072" lon="-1.40232">
        <ele>120</ele>
        <time>2026-02-28T10:53:37Z</time>
      </trkpt>
      <trkpt lat="43.40175" lon="-1.40254">
        <ele>129</ele>
        <time>2026-02-28T10:53:55Z</time>
      </trkpt>
      <trkpt lat="43.40193" lon="-1.40266">
        <ele>132</ele>
        <time>2026-02-28T10:53:59Z</time>
      </trkpt>
      <trkpt lat="43.40207" lon="-1.40288">
        <ele>133</ele>
        <time>2026-02-28T10:54:03Z</time>
      </trkpt>
      <trkpt lat="43.40219" lon="-1.40323">
        <ele>135</ele>
        <time>2026-02-28T10:54:08Z</time>
      </trkpt>
      <trkpt lat="43.40228" lon="-1.40337">
        <ele>136</ele>
        <time>2026-02-28T10:54:10Z</time>
      </trkpt>
      <trkpt lat="43.40241" lon="-1.40343">
        <ele>138</ele>
        <time>2026-02-28T10:54:13Z</time>
      </trkpt>
      <trkpt lat="43.40254" lon="-1.40343">
        <ele>140</ele>
        <time>2026-02-28T10:54:15Z</time>
      </trkpt>
      <trkpt lat="43.40293" lon="-1.40318">
        <ele>139</ele>
        <time>2026-02-28T10:54:23Z</time>
      </trkpt>
      <trkpt lat="43.4033" lon="-1.40276">
        <ele>142</ele>
        <time>2026-02-28T10:54:31Z</time>
      </trkpt>
      <trkpt lat="43.40348" lon="-1.40264">
        <ele>142</ele>
        <time>2026-02-28T10:54:35Z</time>
      </trkpt>
      <trkpt lat="43.40362" lon="-1.40261">
        <ele>141</ele>
        <time>2026-02-28T10:54:37Z</time>
      </trkpt>
      <trkpt lat="43.4038" lon="-1.4026">
        <ele>140</ele>
        <time>2026-02-28T10:54:40Z</time>
      </trkpt>
      <trkpt lat="43.40477" lon="-1.40293">
        <ele>135</ele>
        <time>2026-02-28T10:54:58Z</time>
      </trkpt>
      <trkpt lat="43.40633" lon="-1.40331">
        <ele>138</ele>
        <time>2026-02-28T10:55:26Z</time>
      </trkpt>
      <trkpt lat="43.40655" lon="-1.40339">
        <ele>137</ele>
        <time>2026-02-28T10:55:30Z</time>
      </trkpt>
      <trkpt lat="43.40668" lon="-1.40347">
        <ele>137</ele>
        <time>2026-02-28T10:55:33Z</time>
      </trkpt>
      <trkpt lat="43.4068" lon="-1.40359">
        <ele>136</ele>
        <time>2026-02-28T10:55:36Z</time>
      </trkpt>
      <trkpt lat="43.40692" lon="-1.40378">
        <ele>135</ele>
        <time>2026-02-28T10:55:39Z</time>
      </trkpt>
      <trkpt lat="43.40731" lon="-1.40479">
        <ele>139</ele>
        <time>2026-02-28T10:55:54Z</time>
      </trkpt>
      <trkpt lat="43.40739" lon="-1.40523">
        <ele>143</ele>
        <time>2026-02-28T10:55:59Z</time>
      </trkpt>
      <trkpt lat="43.40741" lon="-1.40554">
        <ele>146</ele>
        <time>2026-02-28T10:56:03Z</time>
      </trkpt>
      <trkpt lat="43.40741" lon="-1.40608">
        <ele>150</ele>
        <time>2026-02-28T10:56:10Z</time>
      </trkpt>
      <trkpt lat="43.40745" lon="-1.4063">
        <ele>151</ele>
        <time>2026-02-28T10:56:13Z</time>
      </trkpt>
      <trkpt lat="43.4076" lon="-1.40658">
        <ele>155</ele>
        <time>2026-02-28T10:56:18Z</time>
      </trkpt>
      <trkpt lat="43.40777" lon="-1.4068">
        <ele>158</ele>
        <time>2026-02-28T10:56:22Z</time>
      </trkpt>
      <trkpt lat="43.40796" lon="-1.40694">
        <ele>160</ele>
        <time>2026-02-28T10:56:26Z</time>
      </trkpt>
      <trkpt lat="43.40909" lon="-1.40702">
        <ele>170</ele>
        <time>2026-02-28T10:56:46Z</time>
      </trkpt>
      <trkpt lat="43.4094" lon="-1.40705">
        <ele>169</ele>
        <time>2026-02-28T10:56:52Z</time>
      </trkpt>
      <trkpt lat="43.41068" lon="-1.40734">
        <ele>167</ele>
        <time>2026-02-28T10:57:15Z</time>
      </trkpt>
      <trkpt lat="43.41123" lon="-1.4075">
        <ele>169</ele>
        <time>2026-02-28T10:57:25Z</time>
      </trkpt>
      <trkpt lat="43.41178" lon="-1.40769">
        <ele>171</ele>
        <time>2026-02-28T10:57:35Z</time>
      </trkpt>
      <trkpt lat="43.41209" lon="-1.40777">
        <ele>172</ele>
        <time>2026-02-28T10:57:40Z</time>
      </trkpt>
      <trkpt lat="43.41274" lon="-1.40783">
        <ele>173</ele>
        <time>2026-02-28T10:57:52Z</time>
      </trkpt>
      <trkpt lat="43.41341" lon="-1.40797">
        <ele>172</ele>
        <time>2026-02-28T10:58:04Z</time>
      </trkpt>
      <trkpt lat="43.41476" lon="-1.40843">
        <ele>170</ele>
        <time>2026-02-28T10:58:29Z</time>
      </trkpt>
      <trkpt lat="43.41508" lon="-1.40857">
        <ele>171</ele>
        <time>2026-02-28T10:58:35Z</time>
      </trkpt>
      <trkpt lat="43.41576" lon="-1.409">
        <ele>172</ele>
        <time>2026-02-28T10:58:48Z</time>
      </trkpt>
      <trkpt lat="43.41691" lon="-1.40972">
        <ele>164</ele>
        <time>2026-02-28T10:59:10Z</time>
      </trkpt>
      <trkpt lat="43.41729" lon="-1.41">
        <ele>163</ele>
        <time>2026-02-28T10:59:18Z</time>
      </trkpt>
      <trkpt lat="43.41742" lon="-1.41015">
        <ele>162</ele>
        <time>2026-02-28T10:59:21Z</time>
      </trkpt>
      <trkpt lat="43.41757" lon="-1.41037">
        <ele>161</ele>
        <time>2026-02-28T10:59:25Z</time>
      </trkpt>
      <trkpt lat="43.41772" lon="-1.41071">
        <ele>161</ele>
        <time>2026-02-28T10:59:30Z</time>
      </trkpt>
      <trkpt lat="43.41789" lon="-1.41119">
        <ele>159</ele>
        <time>2026-02-28T10:59:37Z</time>
      </trkpt>
      <trkpt lat="43.41806" lon="-1.41177">
        <ele>156</ele>
        <time>2026-02-28T10:59:45Z</time>
      </trkpt>
      <trkpt lat="43.41819" lon="-1.4123">
        <ele>151</ele>
        <time>2026-02-28T10:59:52Z</time>
      </trkpt>
      <trkpt lat="43.41833" lon="-1.41304">
        <ele>144</ele>
        <time>2026-02-28T11:00:02Z</time>
      </trkpt>
      <trkpt lat="43.41839" lon="-1.41322">
        <ele>142</ele>
        <time>2026-02-28T11:00:05Z</time>
      </trkpt>
      <trkpt lat="43.41851" lon="-1.41345">
        <ele>140</ele>
        <time>2026-02-28T11:00:09Z</time>
      </trkpt>
      <trkpt lat="43.41894" lon="-1.41405">
        <ele>134</ele>
        <time>2026-02-28T11:00:19Z</time>
      </trkpt>
      <trkpt lat="43.41906" lon="-1.41415">
        <ele>134</ele>
        <time>2026-02-28T11:00:22Z</time>
      </trkpt>
      <trkpt lat="43.41918" lon="-1.41418">
        <ele>134</ele>
        <time>2026-02-28T11:00:24Z</time>
      </trkpt>
      <trkpt lat="43.41928" lon="-1.41417">
        <ele>133</ele>
        <time>2026-02-28T11:00:26Z</time>
      </trkpt>
      <trkpt lat="43.41996" lon="-1.41384">
        <ele>128</ele>
        <time>2026-02-28T11:00:39Z</time>
      </trkpt>
      <trkpt lat="43.42118" lon="-1.41359">
        <ele>120</ele>
        <time>2026-02-28T11:01:01Z</time>
      </trkpt>
      <trkpt lat="43.42151" lon="-1.41359">
        <ele>118</ele>
        <time>2026-02-28T11:01:07Z</time>
      </trkpt>
      <trkpt lat="43.42185" lon="-1.41362">
        <ele>116</ele>
        <time>2026-02-28T11:01:13Z</time>
      </trkpt>
      <trkpt lat="43.42207" lon="-1.41366">
        <ele>115</ele>
        <time>2026-02-28T11:01:17Z</time>
      </trkpt>
      <trkpt lat="43.42242" lon="-1.41372">
        <ele>114</ele>
        <time>2026-02-28T11:01:23Z</time>
      </trkpt>
      <trkpt lat="43.42309" lon="-1.41385">
        <ele>115</ele>
        <time>2026-02-28T11:01:35Z</time>
      </trkpt>
      <trkpt lat="43.42331" lon="-1.41393">
        <ele>115</ele>
        <time>2026-02-28T11:01:39Z</time>
      </trkpt>
      <trkpt lat="43.42526" lon="-1.41507">
        <ele>120</ele>
        <time>2026-02-28T11:02:17Z</time>
      </trkpt>
      <trkpt lat="43.42556" lon="-1.41538">
        <ele>116</ele>
        <time>2026-02-28T11:02:23Z</time>
      </trkpt>
      <trkpt lat="43.42573" lon="-1.41551">
        <ele>114</ele>
        <time>2026-02-28T11:02:27Z</time>
      </trkpt>
      <trkpt lat="43.42595" lon="-1.41557">
        <ele>113</ele>
        <time>2026-02-28T11:02:31Z</time>
      </trkpt>
      <trkpt lat="43.42691" lon="-1.41568">
        <ele>110</ele>
        <time>2026-02-28T11:02:48Z</time>
      </trkpt>
      <trkpt lat="43.42747" lon="-1.41558">
        <ele>113</ele>
        <time>2026-02-28T11:02:58Z</time>
      </trkpt>
      <trkpt lat="43.4277" lon="-1.41558">
        <ele>113</ele>
        <time>2026-02-28T11:03:02Z</time>
      </trkpt>
      <trkpt lat="43.42791" lon="-1.41564">
        <ele>112</ele>
        <time>2026-02-28T11:03:06Z</time>
      </trkpt>
      <trkpt lat="43.42943" lon="-1.41649">
        <ele>102</ele>
        <time>2026-02-28T11:03:35Z</time>
      </trkpt>
      <trkpt lat="43.43001" lon="-1.41685">
        <ele>101</ele>
        <time>2026-02-28T11:03:46Z</time>
      </trkpt>
      <trkpt lat="43.43015" lon="-1.41689">
        <ele>100</ele>
        <time>2026-02-28T11:03:49Z</time>
      </trkpt>
      <trkpt lat="43.43032" lon="-1.4169">
        <ele>100</ele>
        <time>2026-02-28T11:03:52Z</time>
      </trkpt>
      <trkpt lat="43.43055" lon="-1.41686">
        <ele>99</ele>
        <time>2026-02-28T11:03:56Z</time>
      </trkpt>
      <trkpt lat="43.43072" lon="-1.4168">
        <ele>99</ele>
        <time>2026-02-28T11:03:59Z</time>
      </trkpt>
      <trkpt lat="43.4311" lon="-1.41654">
        <ele>100</ele>
        <time>2026-02-28T11:04:07Z</time>
      </trkpt>
      <trkpt lat="43.43207" lon="-1.41579">
        <ele>105</ele>
        <time>2026-02-28T11:04:26Z</time>
      </trkpt>
      <trkpt lat="43.43216" lon="-1.41575">
        <ele>105</ele>
        <time>2026-02-28T11:04:28Z</time>
      </trkpt>
      <trkpt lat="43.43234" lon="-1.41576">
        <ele>105</ele>
        <time>2026-02-28T11:04:31Z</time>
      </trkpt>
      <trkpt lat="43.43252" lon="-1.41583">
        <ele>106</ele>
        <time>2026-02-28T11:04:35Z</time>
      </trkpt>
      <trkpt lat="43.43265" lon="-1.41592">
        <ele>104</ele>
        <time>2026-02-28T11:04:37Z</time>
      </trkpt>
      <trkpt lat="43.43276" lon="-1.41616">
        <ele>102</ele>
        <time>2026-02-28T11:04:41Z</time>
      </trkpt>
      <trkpt lat="43.43284" lon="-1.41642">
        <ele>101</ele>
        <time>2026-02-28T11:04:45Z</time>
      </trkpt>
      <trkpt lat="43.43297" lon="-1.41731">
        <ele>97</ele>
        <time>2026-02-28T11:04:56Z</time>
      </trkpt>
      <trkpt lat="43.43307" lon="-1.41754">
        <ele>96</ele>
        <time>2026-02-28T11:05:00Z</time>
      </trkpt>
      <trkpt lat="43.43332" lon="-1.41786">
        <ele>95</ele>
        <time>2026-02-28T11:05:06Z</time>
      </trkpt>
      <trkpt lat="43.43374" lon="-1.41828">
        <ele>90</ele>
        <time>2026-02-28T11:05:15Z</time>
      </trkpt>
      <trkpt lat="43.43472" lon="-1.41915">
        <ele>91</ele>
        <time>2026-02-28T11:05:36Z</time>
      </trkpt>
      <trkpt lat="43.43491" lon="-1.41934">
        <ele>93</ele>
        <time>2026-02-28T11:05:40Z</time>
      </trkpt>
      <trkpt lat="43.43529" lon="-1.4198">
        <ele>98</ele>
        <time>2026-02-28T11:05:49Z</time>
      </trkpt>
      <trkpt lat="43.43479" lon="-1.42032">
        <ele>94</ele>
        <time>2026-02-28T11:06:00Z</time>
      </trkpt>
      <trkpt lat="43.43471" lon="-1.42041">
        <ele>93</ele>
        <time>2026-02-28T11:06:02Z</time>
      </trkpt>
      <trkpt lat="43.4341" lon="-1.42105">
        <ele>86</ele>
        <time>2026-02-28T11:06:16Z</time>
      </trkpt>
      <trkpt lat="43.43401" lon="-1.42118">
        <ele>85</ele>
        <time>2026-02-28T11:06:18Z</time>
      </trkpt>
      <trkpt lat="43.43396" lon="-1.42129">
        <ele>85</ele>
        <time>2026-02-28T11:06:20Z</time>
      </trkpt>
      <trkpt lat="43.43391" lon="-1.42142">
        <ele>84</ele>
        <time>2026-02-28T11:06:22Z</time>
      </trkpt>
      <trkpt lat="43.43389" lon="-1.42157">
        <ele>84</ele>
        <time>2026-02-28T11:06:24Z</time>
      </trkpt>
      <trkpt lat="43.43379" lon="-1.42297">
        <ele>83</ele>
        <time>2026-02-28T11:06:42Z</time>
      </trkpt>
      <trkpt lat="43.43363" lon="-1.42356">
        <ele>82</ele>
        <time>2026-02-28T11:06:50Z</time>
      </trkpt>
      <trkpt lat="43.43353" lon="-1.42415">
        <ele>77</ele>
        <time>2026-02-28T11:06:58Z</time>
      </trkpt>
      <trkpt lat="43.43333" lon="-1.42452">
        <ele>73</ele>
        <time>2026-02-28T11:07:04Z</time>
      </trkpt>
      <trkpt lat="43.43321" lon="-1.42491">
        <ele>67</ele>
        <time>2026-02-28T11:07:09Z</time>
      </trkpt>
      <trkpt lat="43.4332" lon="-1.42517">
        <ele>64</ele>
        <time>2026-02-28T11:07:12Z</time>
      </trkpt>
      <trkpt lat="43.43321" lon="-1.42578">
        <ele>59</ele>
        <time>2026-02-28T11:07:20Z</time>
      </trkpt>
      <trkpt lat="43.43317" lon="-1.42712">
        <ele>50</ele>
        <time>2026-02-28T11:07:38Z</time>
      </trkpt>
      <trkpt lat="43.43335" lon="-1.42772">
        <ele>47</ele>
        <time>2026-02-28T11:07:46Z</time>
      </trkpt>
      <trkpt lat="43.43339" lon="-1.42793">
        <ele>46</ele>
        <time>2026-02-28T11:07:49Z</time>
      </trkpt>
      <trkpt lat="43.43361" lon="-1.43014">
        <ele>47</ele>
        <time>2026-02-28T11:08:18Z</time>
      </trkpt>
      <trkpt lat="43.43365" lon="-1.43043">
        <ele>48</ele>
        <time>2026-02-28T11:08:21Z</time>
      </trkpt>
      <trkpt lat="43.43374" lon="-1.43067">
        <ele>47</ele>
        <time>2026-02-28T11:08:25Z</time>
      </trkpt>
      <trkpt lat="43.43388" lon="-1.43115">
        <ele>46</ele>
        <time>2026-02-28T11:08:32Z</time>
      </trkpt>
      <trkpt lat="43.43395" lon="-1.43151">
        <ele>46</ele>
        <time>2026-02-28T11:08:36Z</time>
      </trkpt>
      <trkpt lat="43.43404" lon="-1.43226">
        <ele>50</ele>
        <time>2026-02-28T11:08:46Z</time>
      </trkpt>
      <trkpt lat="43.43411" lon="-1.43251">
        <ele>52</ele>
        <time>2026-02-28T11:08:50Z</time>
      </trkpt>
      <trkpt lat="43.4343" lon="-1.43285">
        <ele>53</ele>
        <time>2026-02-28T11:08:55Z</time>
      </trkpt>
      <trkpt lat="43.4344" lon="-1.43307">
        <ele>54</ele>
        <time>2026-02-28T11:08:59Z</time>
      </trkpt>
      <trkpt lat="43.43448" lon="-1.43333">
        <ele>55</ele>
        <time>2026-02-28T11:09:02Z</time>
      </trkpt>
      <trkpt lat="43.4345" lon="-1.43352">
        <ele>57</ele>
        <time>2026-02-28T11:09:05Z</time>
      </trkpt>
      <trkpt lat="43.43449" lon="-1.43378">
        <ele>59</ele>
        <time>2026-02-28T11:09:08Z</time>
      </trkpt>
      <trkpt lat="43.43444" lon="-1.43392">
        <ele>60</ele>
        <time>2026-02-28T11:09:10Z</time>
      </trkpt>
      <trkpt lat="43.43439" lon="-1.43405">
        <ele>61</ele>
        <time>2026-02-28T11:09:12Z</time>
      </trkpt>
      <trkpt lat="43.43404" lon="-1.43468">
        <ele>70</ele>
        <time>2026-02-28T11:09:22Z</time>
      </trkpt>
      <trkpt lat="43.43395" lon="-1.4349">
        <ele>74</ele>
        <time>2026-02-28T11:09:26Z</time>
      </trkpt>
      <trkpt lat="43.43392" lon="-1.43501">
        <ele>75</ele>
        <time>2026-02-28T11:09:27Z</time>
      </trkpt>
      <trkpt lat="43.43393" lon="-1.43512">
        <ele>76</ele>
        <time>2026-02-28T11:09:29Z</time>
      </trkpt>
      <trkpt lat="43.43395" lon="-1.43523">
        <ele>77</ele>
        <time>2026-02-28T11:09:30Z</time>
      </trkpt>
      <trkpt lat="43.43402" lon="-1.43531">
        <ele>77</ele>
        <time>2026-02-28T11:09:32Z</time>
      </trkpt>
      <trkpt lat="43.43418" lon="-1.43535">
        <ele>76</ele>
        <time>2026-02-28T11:09:35Z</time>
      </trkpt>
      <trkpt lat="43.43423" lon="-1.43533">
        <ele>75</ele>
        <time>2026-02-28T11:09:35Z</time>
      </trkpt>
      <trkpt lat="43.43443" lon="-1.43508">
        <ele>73</ele>
        <time>2026-02-28T11:09:40Z</time>
      </trkpt>
      <trkpt lat="43.43451" lon="-1.43502">
        <ele>72</ele>
        <time>2026-02-28T11:09:42Z</time>
      </trkpt>
      <trkpt lat="43.43462" lon="-1.43498">
        <ele>72</ele>
        <time>2026-02-28T11:09:44Z</time>
      </trkpt>
      <trkpt lat="43.43479" lon="-1.43498">
        <ele>72</ele>
        <time>2026-02-28T11:09:47Z</time>
      </trkpt>
      <trkpt lat="43.43492" lon="-1.435">
        <ele>72</ele>
        <time>2026-02-28T11:09:49Z</time>
      </trkpt>
      <trkpt lat="43.43505" lon="-1.43503">
        <ele>72</ele>
        <time>2026-02-28T11:09:52Z</time>
      </trkpt>
      <trkpt lat="43.43512" lon="-1.43509">
        <ele>71</ele>
        <time>2026-02-28T11:09:53Z</time>
      </trkpt>
      <trkpt lat="43.43521" lon="-1.43524">
        <ele>71</ele>
        <time>2026-02-28T11:09:56Z</time>
      </trkpt>
      <trkpt lat="43.43525" lon="-1.43539">
        <ele>72</ele>
        <time>2026-02-28T11:09:58Z</time>
      </trkpt>
      <trkpt lat="43.43527" lon="-1.43557">
        <ele>73</ele>
        <time>2026-02-28T11:10:00Z</time>
      </trkpt>
      <trkpt lat="43.43528" lon="-1.43595">
        <ele>75</ele>
        <time>2026-02-28T11:10:05Z</time>
      </trkpt>
      <trkpt lat="43.43522" lon="-1.43653">
        <ele>79</ele>
        <time>2026-02-28T11:10:12Z</time>
      </trkpt>
      <trkpt lat="43.43521" lon="-1.43659">
        <ele>79</ele>
        <time>2026-02-28T11:10:13Z</time>
      </trkpt>
      <trkpt lat="43.43518" lon="-1.43686">
        <ele>81</ele>
        <time>2026-02-28T11:10:17Z</time>
      </trkpt>
      <trkpt lat="43.43516" lon="-1.43715">
        <ele>84</ele>
        <time>2026-02-28T11:10:21Z</time>
      </trkpt>
      <trkpt lat="43.4352" lon="-1.43764">
        <ele>87</ele>
        <time>2026-02-28T11:10:27Z</time>
      </trkpt>
      <trkpt lat="43.43529" lon="-1.43839">
        <ele>89</ele>
        <time>2026-02-28T11:10:37Z</time>
      </trkpt>
      <trkpt lat="43.43527" lon="-1.43895">
        <ele>92</ele>
        <time>2026-02-28T11:10:44Z</time>
      </trkpt>
      <trkpt lat="43.43521" lon="-1.43946">
        <ele>95</ele>
        <time>2026-02-28T11:10:51Z</time>
      </trkpt>
      <trkpt lat="43.43523" lon="-1.44017">
        <ele>94</ele>
        <time>2026-02-28T11:11:00Z</time>
      </trkpt>
      <trkpt lat="43.43521" lon="-1.4403">
        <ele>94</ele>
        <time>2026-02-28T11:11:02Z</time>
      </trkpt>
      <trkpt lat="43.4351" lon="-1.44073">
        <ele>96</ele>
        <time>2026-02-28T11:11:07Z</time>
      </trkpt>
      <trkpt lat="43.43503" lon="-1.44091">
        <ele>97</ele>
        <time>2026-02-28T11:11:10Z</time>
      </trkpt>
      <trkpt lat="43.43493" lon="-1.44124">
        <ele>96</ele>
        <time>2026-02-28T11:11:15Z</time>
      </trkpt>
      <trkpt lat="43.43485" lon="-1.44136">
        <ele>95</ele>
        <time>2026-02-28T11:11:17Z</time>
      </trkpt>
      <trkpt lat="43.43471" lon="-1.44145">
        <ele>95</ele>
        <time>2026-02-28T11:11:20Z</time>
      </trkpt>
      <trkpt lat="43.43473" lon="-1.44158">
        <ele>94</ele>
        <time>2026-02-28T11:11:21Z</time>
      </trkpt>
      <trkpt lat="43.43476" lon="-1.44181">
        <ele>93</ele>
        <time>2026-02-28T11:11:24Z</time>
      </trkpt>
      <trkpt lat="43.43475" lon="-1.44195">
        <ele>92</ele>
        <time>2026-02-28T11:11:26Z</time>
      </trkpt>
      <trkpt lat="43.43472" lon="-1.44215">
        <ele>90</ele>
        <time>2026-02-28T11:11:29Z</time>
      </trkpt>
      <trkpt lat="43.4347" lon="-1.44233">
        <ele>89</ele>
        <time>2026-02-28T11:11:31Z</time>
      </trkpt>
      <trkpt lat="43.43475" lon="-1.44254">
        <ele>88</ele>
        <time>2026-02-28T11:11:34Z</time>
      </trkpt>
      <trkpt lat="43.43485" lon="-1.44269">
        <ele>88</ele>
        <time>2026-02-28T11:11:37Z</time>
      </trkpt>
      <trkpt lat="43.43528" lon="-1.44316">
        <ele>86</ele>
        <time>2026-02-28T11:11:46Z</time>
      </trkpt>
      <trkpt lat="43.43548" lon="-1.44348">
        <ele>83</ele>
        <time>2026-02-28T11:11:52Z</time>
      </trkpt>
      <trkpt lat="43.4357" lon="-1.44398">
        <ele>79</ele>
        <time>2026-02-28T11:11:59Z</time>
      </trkpt>
      <trkpt lat="43.43572" lon="-1.44403">
        <ele>78</ele>
        <time>2026-02-28T11:12:00Z</time>
      </trkpt>
      <trkpt lat="43.43578" lon="-1.44424">
        <ele>77</ele>
        <time>2026-02-28T11:12:03Z</time>
      </trkpt>
      <trkpt lat="43.43593" lon="-1.44495">
        <ele>71</ele>
        <time>2026-02-28T11:12:13Z</time>
      </trkpt>
      <trkpt lat="43.43594" lon="-1.44502">
        <ele>70</ele>
        <time>2026-02-28T11:12:14Z</time>
      </trkpt>
      <trkpt lat="43.43612" lon="-1.44562">
        <ele>66</ele>
        <time>2026-02-28T11:12:22Z</time>
      </trkpt>
      <trkpt lat="43.43621" lon="-1.44584">
        <ele>65</ele>
        <time>2026-02-28T11:12:25Z</time>
      </trkpt>
      <trkpt lat="43.43652" lon="-1.44644">
        <ele>68</ele>
        <time>2026-02-28T11:12:35Z</time>
      </trkpt>
      <trkpt lat="43.43664" lon="-1.44683">
        <ele>69</ele>
        <time>2026-02-28T11:12:40Z</time>
      </trkpt>
      <trkpt lat="43.43666" lon="-1.44701">
        <ele>68</ele>
        <time>2026-02-28T11:12:42Z</time>
      </trkpt>
      <trkpt lat="43.4367" lon="-1.44734">
        <ele>67</ele>
        <time>2026-02-28T11:12:47Z</time>
      </trkpt>
      <trkpt lat="43.43681" lon="-1.44778">
        <ele>65</ele>
        <time>2026-02-28T11:12:53Z</time>
      </trkpt>
      <trkpt lat="43.43682" lon="-1.44791">
        <ele>64</ele>
        <time>2026-02-28T11:12:55Z</time>
      </trkpt>
      <trkpt lat="43.43688" lon="-1.44907">
        <ele>59</ele>
        <time>2026-02-28T11:13:10Z</time>
      </trkpt>
      <trkpt lat="43.43688" lon="-1.44933">
        <ele>58</ele>
        <time>2026-02-28T11:13:13Z</time>
      </trkpt>
      <trkpt lat="43.43681" lon="-1.44967">
        <ele>57</ele>
        <time>2026-02-28T11:13:17Z</time>
      </trkpt>
      <trkpt lat="43.43682" lon="-1.45018">
        <ele>55</ele>
        <time>2026-02-28T11:13:24Z</time>
      </trkpt>
      <trkpt lat="43.43688" lon="-1.45116">
        <ele>50</ele>
        <time>2026-02-28T11:13:37Z</time>
      </trkpt>
      <trkpt lat="43.43688" lon="-1.45138">
        <ele>49</ele>
        <time>2026-02-28T11:13:40Z</time>
      </trkpt>
      <trkpt lat="43.43689" lon="-1.45154">
        <ele>49</ele>
        <time>2026-02-28T11:13:42Z</time>
      </trkpt>
      <trkpt lat="43.43688" lon="-1.45167">
        <ele>49</ele>
        <time>2026-02-28T11:13:43Z</time>
      </trkpt>
      <trkpt lat="43.43684" lon="-1.452">
        <ele>50</ele>
        <time>2026-02-28T11:13:48Z</time>
      </trkpt>
      <trkpt lat="43.43686" lon="-1.45231">
        <ele>51</ele>
        <time>2026-02-28T11:13:52Z</time>
      </trkpt>
      <trkpt lat="43.43684" lon="-1.45253">
        <ele>52</ele>
        <time>2026-02-28T11:13:55Z</time>
      </trkpt>
      <trkpt lat="43.4365" lon="-1.45243">
        <ele>50</ele>
        <time>2026-02-28T11:14:01Z</time>
      </trkpt>
      <trkpt lat="43.43635" lon="-1.45241">
        <ele>50</ele>
        <time>2026-02-28T11:14:03Z</time>
      </trkpt>
      <trkpt lat="43.43587" lon="-1.45239">
        <ele>48</ele>
        <time>2026-02-28T11:14:12Z</time>
      </trkpt>
      <trkpt lat="43.43557" lon="-1.45235">
        <ele>48</ele>
        <time>2026-02-28T11:14:17Z</time>
      </trkpt>
      <trkpt lat="43.43544" lon="-1.45231">
        <ele>48</ele>
        <time>2026-02-28T11:14:20Z</time>
      </trkpt>
      <trkpt lat="43.43533" lon="-1.45224">
        <ele>48</ele>
        <time>2026-02-28T11:14:22Z</time>
      </trkpt>
      <trkpt lat="43.43525" lon="-1.45216">
        <ele>48</ele>
        <time>2026-02-28T11:14:24Z</time>
      </trkpt>
      <trkpt lat="43.43513" lon="-1.452">
        <ele>47</ele>
        <time>2026-02-28T11:14:27Z</time>
      </trkpt>
      <trkpt lat="43.43504" lon="-1.45177">
        <ele>46</ele>
        <time>2026-02-28T11:14:30Z</time>
      </trkpt>
      <trkpt lat="43.43491" lon="-1.45157">
        <ele>45</ele>
        <time>2026-02-28T11:14:33Z</time>
      </trkpt>
      <trkpt lat="43.4348" lon="-1.45148">
        <ele>43</ele>
        <time>2026-02-28T11:14:36Z</time>
      </trkpt>
      <trkpt lat="43.43457" lon="-1.45134">
        <ele>40</ele>
        <time>2026-02-28T11:14:40Z</time>
      </trkpt>
      <trkpt lat="43.43439" lon="-1.45131">
        <ele>38</ele>
        <time>2026-02-28T11:14:43Z</time>
      </trkpt>
      <trkpt lat="43.43426" lon="-1.45131">
        <ele>37</ele>
        <time>2026-02-28T11:14:46Z</time>
      </trkpt>
      <trkpt lat="43.43413" lon="-1.45137">
        <ele>35</ele>
        <time>2026-02-28T11:14:48Z</time>
      </trkpt>
      <trkpt lat="43.43336" lon="-1.4524">
        <ele>27</ele>
        <time>2026-02-28T11:15:07Z</time>
      </trkpt>
      <trkpt lat="43.43296" lon="-1.45284">
        <ele>24</ele>
        <time>2026-02-28T11:15:16Z</time>
      </trkpt>
      <trkpt lat="43.43244" lon="-1.45343">
        <ele>18</ele>
        <time>2026-02-28T11:15:28Z</time>
      </trkpt>
      <trkpt lat="43.43236" lon="-1.45361">
        <ele>18</ele>
        <time>2026-02-28T11:15:31Z</time>
      </trkpt>
      <trkpt lat="43.43231" lon="-1.45375">
        <ele>18</ele>
        <time>2026-02-28T11:15:33Z</time>
      </trkpt>
      <trkpt lat="43.43212" lon="-1.45466">
        <ele>16</ele>
        <time>2026-02-28T11:15:45Z</time>
      </trkpt>
      <trkpt lat="43.43202" lon="-1.45498">
        <ele>14</ele>
        <time>2026-02-28T11:15:50Z</time>
      </trkpt>
      <trkpt lat="43.43189" lon="-1.45517">
        <ele>10</ele>
        <time>2026-02-28T11:15:53Z</time>
      </trkpt>
      <trkpt lat="43.43177" lon="-1.45526">
        <ele>8</ele>
        <time>2026-02-28T11:15:56Z</time>
      </trkpt>
      <trkpt lat="43.43158" lon="-1.4553">
        <ele>7</ele>
        <time>2026-02-28T11:15:59Z</time>
      </trkpt>
      <trkpt lat="43.43146" lon="-1.45529">
        <ele>7</ele>
        <time>2026-02-28T11:16:01Z</time>
      </trkpt>
      <trkpt lat="43.4308" lon="-1.45508">
        <ele>6</ele>
        <time>2026-02-28T11:16:13Z</time>
      </trkpt>
      <trkpt lat="43.43036" lon="-1.45507">
        <ele>7</ele>
        <time>2026-02-28T11:16:21Z</time>
      </trkpt>
      <trkpt lat="43.42999" lon="-1.45498">
        <ele>8</ele>
        <time>2026-02-28T11:16:28Z</time>
      </trkpt>
      <trkpt lat="43.42896" lon="-1.45431">
        <ele>11</ele>
        <time>2026-02-28T11:16:48Z</time>
      </trkpt>
      <trkpt lat="43.42867" lon="-1.4541">
        <ele>11</ele>
        <time>2026-02-28T11:16:54Z</time>
      </trkpt>
      <trkpt lat="43.42851" lon="-1.45395">
        <ele>12</ele>
        <time>2026-02-28T11:16:57Z</time>
      </trkpt>
      <trkpt lat="43.42778" lon="-1.45307">
        <ele>12</ele>
        <time>2026-02-28T11:17:15Z</time>
      </trkpt>
      <trkpt lat="43.42723" lon="-1.45247">
        <ele>14</ele>
        <time>2026-02-28T11:17:27Z</time>
      </trkpt>
      <trkpt lat="43.42707" lon="-1.45242">
        <ele>15</ele>
        <time>2026-02-28T11:17:30Z</time>
      </trkpt>
      <trkpt lat="43.42692" lon="-1.45246">
        <ele>15</ele>
        <time>2026-02-28T11:17:33Z</time>
      </trkpt>
      <trkpt lat="43.42666" lon="-1.45261">
        <ele>13</ele>
        <time>2026-02-28T11:17:38Z</time>
      </trkpt>
      <trkpt lat="43.42593" lon="-1.45327">
        <ele>10</ele>
        <time>2026-02-28T11:17:53Z</time>
      </trkpt>
      <trkpt lat="43.42488" lon="-1.45383">
        <ele>12</ele>
        <time>2026-02-28T11:18:13Z</time>
      </trkpt>
      <trkpt lat="43.42455" lon="-1.45389">
        <ele>12</ele>
        <time>2026-02-28T11:18:19Z</time>
      </trkpt>
      <trkpt lat="43.42404" lon="-1.45394">
        <ele>12</ele>
        <time>2026-02-28T11:18:28Z</time>
      </trkpt>
      <trkpt lat="43.42345" lon="-1.45407">
        <ele>9</ele>
        <time>2026-02-28T11:18:39Z</time>
      </trkpt>
      <trkpt lat="43.42326" lon="-1.45413">
        <ele>10</ele>
        <time>2026-02-28T11:18:42Z</time>
      </trkpt>
      <trkpt lat="43.42312" lon="-1.45426">
        <ele>12</ele>
        <time>2026-02-28T11:18:45Z</time>
      </trkpt>
      <trkpt lat="43.42306" lon="-1.45435">
        <ele>13</ele>
        <time>2026-02-28T11:18:47Z</time>
      </trkpt>
      <trkpt lat="43.42295" lon="-1.45463">
        <ele>14</ele>
        <time>2026-02-28T11:18:51Z</time>
      </trkpt>
      <trkpt lat="43.42276" lon="-1.45526">
        <ele>13</ele>
        <time>2026-02-28T11:19:00Z</time>
      </trkpt>
      <trkpt lat="43.42261" lon="-1.45548">
        <ele>13</ele>
        <time>2026-02-28T11:19:04Z</time>
      </trkpt>
      <trkpt lat="43.42209" lon="-1.456">
        <ele>10</ele>
        <time>2026-02-28T11:19:15Z</time>
      </trkpt>
      <trkpt lat="43.42193" lon="-1.45608">
        <ele>11</ele>
        <time>2026-02-28T11:19:18Z</time>
      </trkpt>
      <trkpt lat="43.42153" lon="-1.45615">
        <ele>11</ele>
        <time>2026-02-28T11:19:25Z</time>
      </trkpt>
      <trkpt lat="43.42118" lon="-1.45599">
        <ele>11</ele>
        <time>2026-02-28T11:19:32Z</time>
      </trkpt>
      <trkpt lat="43.42105" lon="-1.45585">
        <ele>12</ele>
        <time>2026-02-28T11:19:35Z</time>
      </trkpt>
      <trkpt lat="43.42083" lon="-1.45553">
        <ele>14</ele>
        <time>2026-02-28T11:19:41Z</time>
      </trkpt>
      <trkpt lat="43.42064" lon="-1.45523">
        <ele>15</ele>
        <time>2026-02-28T11:19:46Z</time>
      </trkpt>
      <trkpt lat="43.42035" lon="-1.45469">
        <ele>16</ele>
        <time>2026-02-28T11:19:55Z</time>
      </trkpt>
      <trkpt lat="43.42027" lon="-1.45457">
        <ele>17</ele>
        <time>2026-02-28T11:19:57Z</time>
      </trkpt>
      <trkpt lat="43.42011" lon="-1.45445">
        <ele>17</ele>
        <time>2026-02-28T11:20:00Z</time>
      </trkpt>
      <trkpt lat="43.41848" lon="-1.45381">
        <ele>12</ele>
        <time>2026-02-28T11:20:30Z</time>
      </trkpt>
      <trkpt lat="43.41529" lon="-1.45267">
        <ele>16</ele>
        <time>2026-02-28T11:21:29Z</time>
      </trkpt>
      <trkpt lat="43.41513" lon="-1.45258">
        <ele>14</ele>
        <time>2026-02-28T11:21:32Z</time>
      </trkpt>
      <trkpt lat="43.4149" lon="-1.45234">
        <ele>14</ele>
        <time>2026-02-28T11:21:37Z</time>
      </trkpt>
      <trkpt lat="43.41472" lon="-1.45211">
        <ele>16</ele>
        <time>2026-02-28T11:21:41Z</time>
      </trkpt>
      <trkpt lat="43.41452" lon="-1.45193">
        <ele>16</ele>
        <time>2026-02-28T11:21:45Z</time>
      </trkpt>
      <trkpt lat="43.41435" lon="-1.45184">
        <ele>14</ele>
        <time>2026-02-28T11:21:49Z</time>
      </trkpt>
      <trkpt lat="43.4141" lon="-1.45181">
        <ele>12</ele>
        <time>2026-02-28T11:21:53Z</time>
      </trkpt>
      <trkpt lat="43.41385" lon="-1.45175">
        <ele>13</ele>
        <time>2026-02-28T11:21:58Z</time>
      </trkpt>
      <trkpt lat="43.41364" lon="-1.45166">
        <ele>15</ele>
        <time>2026-02-28T11:22:02Z</time>
      </trkpt>
      <trkpt lat="43.41349" lon="-1.45165">
        <ele>15</ele>
        <time>2026-02-28T11:22:04Z</time>
      </trkpt>
      <trkpt lat="43.41331" lon="-1.4517">
        <ele>15</ele>
        <time>2026-02-28T11:22:08Z</time>
      </trkpt>
      <trkpt lat="43.41268" lon="-1.45204">
        <ele>12</ele>
        <time>2026-02-28T11:22:20Z</time>
      </trkpt>
      <trkpt lat="43.41255" lon="-1.45205">
        <ele>12</ele>
        <time>2026-02-28T11:22:22Z</time>
      </trkpt>
      <trkpt lat="43.41245" lon="-1.45201">
        <ele>12</ele>
        <time>2026-02-28T11:22:24Z</time>
      </trkpt>
      <trkpt lat="43.41233" lon="-1.45192">
        <ele>12</ele>
        <time>2026-02-28T11:22:26Z</time>
      </trkpt>
      <trkpt lat="43.41142" lon="-1.45105">
        <ele>14</ele>
        <time>2026-02-28T11:22:46Z</time>
      </trkpt>
      <trkpt lat="43.41099" lon="-1.45062">
        <ele>12</ele>
        <time>2026-02-28T11:22:55Z</time>
      </trkpt>
      <trkpt lat="43.41088" lon="-1.45055">
        <ele>10</ele>
        <time>2026-02-28T11:22:58Z</time>
      </trkpt>
      <trkpt lat="43.4108" lon="-1.45052">
        <ele>9</ele>
        <time>2026-02-28T11:22:59Z</time>
      </trkpt>
      <trkpt lat="43.41072" lon="-1.45052">
        <ele>9</ele>
        <time>2026-02-28T11:23:00Z</time>
      </trkpt>
      <trkpt lat="43.41063" lon="-1.45053">
        <ele>8</ele>
        <time>2026-02-28T11:23:02Z</time>
      </trkpt>
      <trkpt lat="43.40965" lon="-1.45074">
        <ele>6</ele>
        <time>2026-02-28T11:23:20Z</time>
      </trkpt>
      <trkpt lat="43.40954" lon="-1.45073">
        <ele>6</ele>
        <time>2026-02-28T11:23:22Z</time>
      </trkpt>
      <trkpt lat="43.40881" lon="-1.45043">
        <ele>7</ele>
        <time>2026-02-28T11:23:35Z</time>
      </trkpt>
      <trkpt lat="43.40871" lon="-1.4504">
        <ele>8</ele>
        <time>2026-02-28T11:23:37Z</time>
      </trkpt>
      <trkpt lat="43.4086" lon="-1.45043">
        <ele>8</ele>
        <time>2026-02-28T11:23:39Z</time>
      </trkpt>
      <trkpt lat="43.40855" lon="-1.45046">
        <ele>8</ele>
        <time>2026-02-28T11:23:40Z</time>
      </trkpt>
      <trkpt lat="43.40822" lon="-1.45093">
        <ele>8</ele>
        <time>2026-02-28T11:23:48Z</time>
      </trkpt>
      <trkpt lat="43.40815" lon="-1.451">
        <ele>7</ele>
        <time>2026-02-28T11:23:50Z</time>
      </trkpt>
      <trkpt lat="43.40805" lon="-1.45107">
        <ele>7</ele>
        <time>2026-02-28T11:23:52Z</time>
      </trkpt>
      <trkpt lat="43.40795" lon="-1.45108">
        <ele>7</ele>
        <time>2026-02-28T11:23:54Z</time>
      </trkpt>
      <trkpt lat="43.40781" lon="-1.45106">
        <ele>7</ele>
        <time>2026-02-28T11:23:56Z</time>
      </trkpt>
      <trkpt lat="43.4076" lon="-1.45096">
        <ele>7</ele>
        <time>2026-02-28T11:24:00Z</time>
      </trkpt>
      <trkpt lat="43.4073" lon="-1.45073">
        <ele>7</ele>
        <time>2026-02-28T11:24:06Z</time>
      </trkpt>
      <trkpt lat="43.40685" lon="-1.45041">
        <ele>7</ele>
        <time>2026-02-28T11:24:15Z</time>
      </trkpt>
      <trkpt lat="43.40674" lon="-1.45036">
        <ele>7</ele>
        <time>2026-02-28T11:24:17Z</time>
      </trkpt>
      <trkpt lat="43.40661" lon="-1.45032">
        <ele>7</ele>
        <time>2026-02-28T11:24:20Z</time>
      </trkpt>
      <trkpt lat="43.40651" lon="-1.45031">
        <ele>7</ele>
        <time>2026-02-28T11:24:22Z</time>
      </trkpt>
      <trkpt lat="43.40602" lon="-1.45032">
        <ele>7</ele>
        <time>2026-02-28T11:24:30Z</time>
      </trkpt>
      <trkpt lat="43.40593" lon="-1.4503">
        <ele>7</ele>
        <time>2026-02-28T11:24:32Z</time>
      </trkpt>
      <trkpt lat="43.40584" lon="-1.45027">
        <ele>7</ele>
        <time>2026-02-28T11:24:34Z</time>
      </trkpt>
      <trkpt lat="43.40565" lon="-1.45015">
        <ele>8</ele>
        <time>2026-02-28T11:24:37Z</time>
      </trkpt>
      <trkpt lat="43.40542" lon="-1.44995">
        <ele>8</ele>
        <time>2026-02-28T11:24:42Z</time>
      </trkpt>
      <trkpt lat="43.40528" lon="-1.44987">
        <ele>9</ele>
        <time>2026-02-28T11:24:45Z</time>
      </trkpt>
      <trkpt lat="43.40474" lon="-1.44959">
        <ele>8</ele>
        <time>2026-02-28T11:24:55Z</time>
      </trkpt>
      <trkpt lat="43.40453" lon="-1.44951">
        <ele>7</ele>
        <time>2026-02-28T11:24:59Z</time>
      </trkpt>
      <trkpt lat="43.40447" lon="-1.44953">
        <ele>7</ele>
        <time>2026-02-28T11:25:00Z</time>
      </trkpt>
      <trkpt lat="43.40438" lon="-1.4496">
        <ele>7</ele>
        <time>2026-02-28T11:25:02Z</time>
      </trkpt>
      <trkpt lat="43.40273" lon="-1.45187">
        <ele>5</ele>
        <time>2026-02-28T11:25:43Z</time>
      </trkpt>
      <trkpt lat="43.40265" lon="-1.45199">
        <ele>5</ele>
        <time>2026-02-28T11:25:45Z</time>
      </trkpt>
      <trkpt lat="43.40141" lon="-1.45371">
        <ele>6</ele>
        <time>2026-02-28T11:26:17Z</time>
      </trkpt>
      <trkpt lat="43.40105" lon="-1.45422">
        <ele>8</ele>
        <time>2026-02-28T11:26:26Z</time>
      </trkpt>
      <trkpt lat="43.40078" lon="-1.45486">
        <ele>7</ele>
        <time>2026-02-28T11:26:36Z</time>
      </trkpt>
      <trkpt lat="43.40039" lon="-1.45575">
        <ele>8</ele>
        <time>2026-02-28T11:26:49Z</time>
      </trkpt>
      <trkpt lat="43.4001" lon="-1.4564">
        <ele>13</ele>
        <time>2026-02-28T11:26:59Z</time>
      </trkpt>
      <trkpt lat="43.40003" lon="-1.45663">
        <ele>15</ele>
        <time>2026-02-28T11:27:02Z</time>
      </trkpt>
      <trkpt lat="43.3999" lon="-1.45646">
        <ele>14</ele>
        <time>2026-02-28T11:27:05Z</time>
      </trkpt>
      <trkpt lat="43.39955" lon="-1.45609">
        <ele>13</ele>
        <time>2026-02-28T11:27:13Z</time>
      </trkpt>
      <trkpt lat="43.39942" lon="-1.45592">
        <ele>12</ele>
        <time>2026-02-28T11:27:16Z</time>
      </trkpt>
      <trkpt lat="43.39893" lon="-1.45534">
        <ele>12</ele>
        <time>2026-02-28T11:27:28Z</time>
      </trkpt>
      <trkpt lat="43.39883" lon="-1.45525">
        <ele>13</ele>
        <time>2026-02-28T11:27:30Z</time>
      </trkpt>
      <trkpt lat="43.39846" lon="-1.455">
        <ele>14</ele>
        <time>2026-02-28T11:27:37Z</time>
      </trkpt>
      <trkpt lat="43.39791" lon="-1.45464">
        <ele>14</ele>
        <time>2026-02-28T11:27:48Z</time>
      </trkpt>
      <trkpt lat="43.39734" lon="-1.45431">
        <ele>15</ele>
        <time>2026-02-28T11:27:59Z</time>
      </trkpt>
      <trkpt lat="43.39726" lon="-1.45427">
        <ele>15</ele>
        <time>2026-02-28T11:28:01Z</time>
      </trkpt>
      <trkpt lat="43.39714" lon="-1.45427">
        <ele>15</ele>
        <time>2026-02-28T11:28:03Z</time>
      </trkpt>
      <trkpt lat="43.39706" lon="-1.4543">
        <ele>15</ele>
        <time>2026-02-28T11:28:04Z</time>
      </trkpt>
      <trkpt lat="43.39704" lon="-1.45435">
        <ele>15</ele>
        <time>2026-02-28T11:28:05Z</time>
      </trkpt>
      <trkpt lat="43.39699" lon="-1.45438">
        <ele>15</ele>
        <time>2026-02-28T11:28:06Z</time>
      </trkpt>
      <trkpt lat="43.39694" lon="-1.45447">
        <ele>16</ele>
        <time>2026-02-28T11:28:07Z</time>
      </trkpt>
      <trkpt lat="43.39688" lon="-1.45468">
        <ele>16</ele>
        <time>2026-02-28T11:28:10Z</time>
      </trkpt>
      <trkpt lat="43.39678" lon="-1.45502">
        <ele>18</ele>
        <time>2026-02-28T11:28:15Z</time>
      </trkpt>
      <trkpt lat="43.39677" lon="-1.45518">
        <ele>18</ele>
        <time>2026-02-28T11:28:17Z</time>
      </trkpt>
      <trkpt lat="43.39682" lon="-1.45544">
        <ele>18</ele>
        <time>2026-02-28T11:28:21Z</time>
      </trkpt>
      <trkpt lat="43.39681" lon="-1.4556">
        <ele>18</ele>
        <time>2026-02-28T11:28:23Z</time>
      </trkpt>
      <trkpt lat="43.39674" lon="-1.45575">
        <ele>19</ele>
        <time>2026-02-28T11:28:25Z</time>
      </trkpt>
      <trkpt lat="43.39664" lon="-1.45586">
        <ele>19</ele>
        <time>2026-02-28T11:28:27Z</time>
      </trkpt>
      <trkpt lat="43.39654" lon="-1.45588">
        <ele>19</ele>
        <time>2026-02-28T11:28:29Z</time>
      </trkpt>
      <trkpt lat="43.39635" lon="-1.45583">
        <ele>20</ele>
        <time>2026-02-28T11:28:33Z</time>
      </trkpt>
      <trkpt lat="43.39601" lon="-1.45576">
        <ele>20</ele>
        <time>2026-02-28T11:28:39Z</time>
      </trkpt>
      <trkpt lat="43.39579" lon="-1.45579">
        <ele>21</ele>
        <time>2026-02-28T11:28:43Z</time>
      </trkpt>
      <trkpt lat="43.3952" lon="-1.45603">
        <ele>22</ele>
        <time>2026-02-28T11:28:54Z</time>
      </trkpt>
      <trkpt lat="43.39508" lon="-1.4561">
        <ele>22</ele>
        <time>2026-02-28T11:28:56Z</time>
      </trkpt>
      <trkpt lat="43.39497" lon="-1.45624">
        <ele>23</ele>
        <time>2026-02-28T11:28:59Z</time>
      </trkpt>
      <trkpt lat="43.39465" lon="-1.45691">
        <ele>24</ele>
        <time>2026-02-28T11:29:09Z</time>
      </trkpt>
      <trkpt lat="43.39449" lon="-1.45727">
        <ele>24</ele>
        <time>2026-02-28T11:29:14Z</time>
      </trkpt>
      <trkpt lat="43.39433" lon="-1.45774">
        <ele>26</ele>
        <time>2026-02-28T11:29:21Z</time>
      </trkpt>
      <trkpt lat="43.39426" lon="-1.45798">
        <ele>28</ele>
        <time>2026-02-28T11:29:24Z</time>
      </trkpt>
      <trkpt lat="43.39425" lon="-1.45802">
        <ele>28</ele>
        <time>2026-02-28T11:29:25Z</time>
      </trkpt>
      <trkpt lat="43.39423" lon="-1.45806">
        <ele>28</ele>
        <time>2026-02-28T11:29:26Z</time>
      </trkpt>
      <trkpt lat="43.39419" lon="-1.45815">
        <ele>29</ele>
        <time>2026-02-28T11:29:27Z</time>
      </trkpt>
      <trkpt lat="43.39418" lon="-1.45826">
        <ele>30</ele>
        <time>2026-02-28T11:29:28Z</time>
      </trkpt>
      <trkpt lat="43.39414" lon="-1.45838">
        <ele>31</ele>
        <time>2026-02-28T11:29:30Z</time>
      </trkpt>
      <trkpt lat="43.39412" lon="-1.45851">
        <ele>32</ele>
        <time>2026-02-28T11:29:32Z</time>
      </trkpt>
      <trkpt lat="43.39409" lon="-1.45882">
        <ele>36</ele>
        <time>2026-02-28T11:29:36Z</time>
      </trkpt>
      <trkpt lat="43.39407" lon="-1.45882">
        <ele>36</ele>
        <time>2026-02-28T11:29:36Z</time>
      </trkpt>
      <trkpt lat="43.39402" lon="-1.45901">
        <ele>39</ele>
        <time>2026-02-28T11:29:39Z</time>
      </trkpt>
      <trkpt lat="43.39362" lon="-1.4584">
        <ele>36</ele>
        <time>2026-02-28T11:29:49Z</time>
      </trkpt>
      <trkpt lat="43.39328" lon="-1.45839">
        <ele>40</ele>
        <time>2026-02-28T11:29:55Z</time>
      </trkpt>
      <trkpt lat="43.39318" lon="-1.45835">
        <ele>41</ele>
        <time>2026-02-28T11:29:57Z</time>
      </trkpt>
      <trkpt lat="43.39305" lon="-1.45822">
        <ele>42</ele>
        <time>2026-02-28T11:30:00Z</time>
      </trkpt>
      <trkpt lat="43.39294" lon="-1.4582">
        <ele>44</ele>
        <time>2026-02-28T11:30:02Z</time>
      </trkpt>
      <trkpt lat="43.39279" lon="-1.45822">
        <ele>47</ele>
        <time>2026-02-28T11:30:05Z</time>
      </trkpt>
      <trkpt lat="43.39276" lon="-1.45805">
        <ele>46</ele>
        <time>2026-02-28T11:30:07Z</time>
      </trkpt>
      <trkpt lat="43.39269" lon="-1.45797">
        <ele>46</ele>
        <time>2026-02-28T11:30:09Z</time>
      </trkpt>
      <trkpt lat="43.39254" lon="-1.45788">
        <ele>47</ele>
        <time>2026-02-28T11:30:12Z</time>
      </trkpt>
      <trkpt lat="43.39245" lon="-1.45828">
        <ele>54</ele>
        <time>2026-02-28T11:30:17Z</time>
      </trkpt>
      <trkpt lat="43.39251" lon="-1.45933">
        <ele>55</ele>
        <time>2026-02-28T11:30:31Z</time>
      </trkpt>
      <trkpt lat="43.39246" lon="-1.45947">
        <ele>54</ele>
        <time>2026-02-28T11:30:33Z</time>
      </trkpt>
      <trkpt lat="43.39149" lon="-1.45954">
        <ele>56</ele>
        <time>2026-02-28T11:30:50Z</time>
      </trkpt>
      <trkpt lat="43.39134" lon="-1.45958">
        <ele>56</ele>
        <time>2026-02-28T11:30:53Z</time>
      </trkpt>
      <trkpt lat="43.39119" lon="-1.45966">
        <ele>57</ele>
        <time>2026-02-28T11:30:56Z</time>
      </trkpt>
      <trkpt lat="43.39088" lon="-1.45996">
        <ele>58</ele>
        <time>2026-02-28T11:31:02Z</time>
      </trkpt>
      <trkpt lat="43.39052" lon="-1.46055">
        <ele>55</ele>
        <time>2026-02-28T11:31:12Z</time>
      </trkpt>
      <trkpt lat="43.39025" lon="-1.46092">
        <ele>57</ele>
        <time>2026-02-28T11:31:19Z</time>
      </trkpt>
      <trkpt lat="43.38993" lon="-1.46164">
        <ele>52</ele>
        <time>2026-02-28T11:31:30Z</time>
      </trkpt>
      <trkpt lat="43.38963" lon="-1.46201">
        <ele>51</ele>
        <time>2026-02-28T11:31:37Z</time>
      </trkpt>
      <trkpt lat="43.38929" lon="-1.46219">
        <ele>53</ele>
        <time>2026-02-28T11:31:44Z</time>
      </trkpt>
      <trkpt lat="43.38906" lon="-1.46253">
        <ele>48</ele>
        <time>2026-02-28T11:31:50Z</time>
      </trkpt>
      <trkpt lat="43.3887" lon="-1.46281">
        <ele>48</ele>
        <time>2026-02-28T11:31:57Z</time>
      </trkpt>
      <trkpt lat="43.38761" lon="-1.46327">
        <ele>46</ele>
        <time>2026-02-28T11:32:17Z</time>
      </trkpt>
      <trkpt lat="43.38738" lon="-1.46328">
        <ele>44</ele>
        <time>2026-02-28T11:32:21Z</time>
      </trkpt>
      <trkpt lat="43.38684" lon="-1.46285">
        <ele>44</ele>
        <time>2026-02-28T11:32:32Z</time>
      </trkpt>
      <trkpt lat="43.38653" lon="-1.46266">
        <ele>45</ele>
        <time>2026-02-28T11:32:38Z</time>
      </trkpt>
      <trkpt lat="43.38628" lon="-1.46268">
        <ele>44</ele>
        <time>2026-02-28T11:32:43Z</time>
      </trkpt>
      <trkpt lat="43.38591" lon="-1.463">
        <ele>39</ele>
        <time>2026-02-28T11:32:51Z</time>
      </trkpt>
      <trkpt lat="43.38558" lon="-1.46346">
        <ele>35</ele>
        <time>2026-02-28T11:32:59Z</time>
      </trkpt>
      <trkpt lat="43.38545" lon="-1.4636">
        <ele>35</ele>
        <time>2026-02-28T11:33:02Z</time>
      </trkpt>
      <trkpt lat="43.3853" lon="-1.46369">
        <ele>34</ele>
        <time>2026-02-28T11:33:05Z</time>
      </trkpt>
      <trkpt lat="43.38513" lon="-1.46373">
        <ele>34</ele>
        <time>2026-02-28T11:33:08Z</time>
      </trkpt>
      <trkpt lat="43.38476" lon="-1.4637">
        <ele>35</ele>
        <time>2026-02-28T11:33:15Z</time>
      </trkpt>
      <trkpt lat="43.38461" lon="-1.46373">
        <ele>36</ele>
        <time>2026-02-28T11:33:17Z</time>
      </trkpt>
      <trkpt lat="43.38446" lon="-1.46384">
        <ele>37</ele>
        <time>2026-02-28T11:33:20Z</time>
      </trkpt>
      <trkpt lat="43.3841" lon="-1.46418">
        <ele>38</ele>
        <time>2026-02-28T11:33:28Z</time>
      </trkpt>
      <trkpt lat="43.38411" lon="-1.4643">
        <ele>38</ele>
        <time>2026-02-28T11:33:30Z</time>
      </trkpt>
      <trkpt lat="43.38408" lon="-1.46435">
        <ele>38</ele>
        <time>2026-02-28T11:33:30Z</time>
      </trkpt>
      <trkpt lat="43.38401" lon="-1.46438">
        <ele>39</ele>
        <time>2026-02-28T11:33:32Z</time>
      </trkpt>
      <trkpt lat="43.38394" lon="-1.46433">
        <ele>39</ele>
        <time>2026-02-28T11:33:33Z</time>
      </trkpt>
      <trkpt lat="43.38389" lon="-1.46443">
        <ele>40</ele>
        <time>2026-02-28T11:33:35Z</time>
      </trkpt>
      <trkpt lat="43.38368" lon="-1.46483">
        <ele>41</ele>
        <time>2026-02-28T11:33:41Z</time>
      </trkpt>
      <trkpt lat="43.38359" lon="-1.46518">
        <ele>42</ele>
        <time>2026-02-28T11:33:46Z</time>
      </trkpt>
      <trkpt lat="43.38352" lon="-1.46552">
        <ele>43</ele>
        <time>2026-02-28T11:33:50Z</time>
      </trkpt>
      <trkpt lat="43.3835" lon="-1.46599">
        <ele>45</ele>
        <time>2026-02-28T11:33:57Z</time>
      </trkpt>
      <trkpt lat="43.38352" lon="-1.4663">
        <ele>45</ele>
        <time>2026-02-28T11:34:01Z</time>
      </trkpt>
      <trkpt lat="43.38358" lon="-1.46657">
        <ele>45</ele>
        <time>2026-02-28T11:34:04Z</time>
      </trkpt>
      <trkpt lat="43.3847" lon="-1.46856">
        <ele>54</ele>
        <time>2026-02-28T11:34:37Z</time>
      </trkpt>
      <trkpt lat="43.38527" lon="-1.4698">
        <ele>65</ele>
        <time>2026-02-28T11:34:56Z</time>
      </trkpt>
      <trkpt lat="43.38552" lon="-1.47046">
        <ele>70</ele>
        <time>2026-02-28T11:35:05Z</time>
      </trkpt>
      <trkpt lat="43.38578" lon="-1.47147">
        <ele>75</ele>
        <time>2026-02-28T11:35:19Z</time>
      </trkpt>
      <trkpt lat="43.38578" lon="-1.47162">
        <ele>75</ele>
        <time>2026-02-28T11:35:21Z</time>
      </trkpt>
      <trkpt lat="43.38574" lon="-1.47178">
        <ele>76</ele>
        <time>2026-02-28T11:35:23Z</time>
      </trkpt>
      <trkpt lat="43.38539" lon="-1.47212">
        <ele>76</ele>
        <time>2026-02-28T11:35:31Z</time>
      </trkpt>
      <trkpt lat="43.38534" lon="-1.47222">
        <ele>76</ele>
        <time>2026-02-28T11:35:33Z</time>
      </trkpt>
      <trkpt lat="43.38531" lon="-1.47234">
        <ele>77</ele>
        <time>2026-02-28T11:35:34Z</time>
      </trkpt>
      <trkpt lat="43.3853" lon="-1.47247">
        <ele>79</ele>
        <time>2026-02-28T11:35:36Z</time>
      </trkpt>
      <trkpt lat="43.38532" lon="-1.47259">
        <ele>79</ele>
        <time>2026-02-28T11:35:38Z</time>
      </trkpt>
      <trkpt lat="43.38538" lon="-1.47278">
        <ele>81</ele>
        <time>2026-02-28T11:35:40Z</time>
      </trkpt>
      <trkpt lat="43.38569" lon="-1.47397">
        <ele>86</ele>
        <time>2026-02-28T11:35:57Z</time>
      </trkpt>
      <trkpt lat="43.38581" lon="-1.4744">
        <ele>87</ele>
        <time>2026-02-28T11:36:02Z</time>
      </trkpt>
      <trkpt lat="43.38583" lon="-1.47472">
        <ele>86</ele>
        <time>2026-02-28T11:36:07Z</time>
      </trkpt>
      <trkpt lat="43.38578" lon="-1.47528">
        <ele>87</ele>
        <time>2026-02-28T11:36:14Z</time>
      </trkpt>
      <trkpt lat="43.38574" lon="-1.47586">
        <ele>89</ele>
        <time>2026-02-28T11:36:21Z</time>
      </trkpt>
      <trkpt lat="43.38574" lon="-1.47605">
        <ele>90</ele>
        <time>2026-02-28T11:36:24Z</time>
      </trkpt>
      <trkpt lat="43.38576" lon="-1.4763">
        <ele>90</ele>
        <time>2026-02-28T11:36:27Z</time>
      </trkpt>
      <trkpt lat="43.3859" lon="-1.47707">
        <ele>92</ele>
        <time>2026-02-28T11:36:37Z</time>
      </trkpt>
      <trkpt lat="43.38599" lon="-1.47742">
        <ele>94</ele>
        <time>2026-02-28T11:36:42Z</time>
      </trkpt>
      <trkpt lat="43.3861" lon="-1.4777">
        <ele>95</ele>
        <time>2026-02-28T11:36:46Z</time>
      </trkpt>
      <trkpt lat="43.38651" lon="-1.4784">
        <ele>99</ele>
        <time>2026-02-28T11:36:58Z</time>
      </trkpt>
      <trkpt lat="43.3869" lon="-1.47921">
        <ele>104</ele>
        <time>2026-02-28T11:37:11Z</time>
      </trkpt>
      <trkpt lat="43.38712" lon="-1.47953">
        <ele>106</ele>
        <time>2026-02-28T11:37:16Z</time>
      </trkpt>
      <trkpt lat="43.38723" lon="-1.47963">
        <ele>107</ele>
        <time>2026-02-28T11:37:19Z</time>
      </trkpt>
      <trkpt lat="43.38784" lon="-1.48006">
        <ele>109</ele>
        <time>2026-02-28T11:37:31Z</time>
      </trkpt>
      <trkpt lat="43.38791" lon="-1.48017">
        <ele>110</ele>
        <time>2026-02-28T11:37:33Z</time>
      </trkpt>
      <trkpt lat="43.38795" lon="-1.48032">
        <ele>110</ele>
        <time>2026-02-28T11:37:35Z</time>
      </trkpt>
      <trkpt lat="43.38797" lon="-1.48047">
        <ele>111</ele>
        <time>2026-02-28T11:37:37Z</time>
      </trkpt>
      <trkpt lat="43.38806" lon="-1.48158">
        <ele>113</ele>
        <time>2026-02-28T11:37:51Z</time>
      </trkpt>
      <trkpt lat="43.38806" lon="-1.48177">
        <ele>112</ele>
        <time>2026-02-28T11:37:54Z</time>
      </trkpt>
      <trkpt lat="43.38785" lon="-1.48321">
        <ele>111</ele>
        <time>2026-02-28T11:38:13Z</time>
      </trkpt>
      <trkpt lat="43.38777" lon="-1.48351">
        <ele>111</ele>
        <time>2026-02-28T11:38:17Z</time>
      </trkpt>
      <trkpt lat="43.38767" lon="-1.48371">
        <ele>112</ele>
        <time>2026-02-28T11:38:20Z</time>
      </trkpt>
      <trkpt lat="43.38729" lon="-1.48433">
        <ele>114</ele>
        <time>2026-02-28T11:38:30Z</time>
      </trkpt>
      <trkpt lat="43.3871" lon="-1.48454">
        <ele>114</ele>
        <time>2026-02-28T11:38:35Z</time>
      </trkpt>
      <trkpt lat="43.38686" lon="-1.48472">
        <ele>116</ele>
        <time>2026-02-28T11:38:40Z</time>
      </trkpt>
      <trkpt lat="43.38673" lon="-1.48484">
        <ele>116</ele>
        <time>2026-02-28T11:38:42Z</time>
      </trkpt>
      <trkpt lat="43.3866" lon="-1.48496">
        <ele>117</ele>
        <time>2026-02-28T11:38:45Z</time>
      </trkpt>
      <trkpt lat="43.38647" lon="-1.48516">
        <ele>116</ele>
        <time>2026-02-28T11:38:49Z</time>
      </trkpt>
      <trkpt lat="43.38636" lon="-1.48544">
        <ele>115</ele>
        <time>2026-02-28T11:38:53Z</time>
      </trkpt>
      <trkpt lat="43.38633" lon="-1.48568">
        <ele>114</ele>
        <time>2026-02-28T11:38:56Z</time>
      </trkpt>
      <trkpt lat="43.38642" lon="-1.48713">
        <ele>107</ele>
        <time>2026-02-28T11:39:15Z</time>
      </trkpt>
      <trkpt lat="43.38651" lon="-1.48743">
        <ele>108</ele>
        <time>2026-02-28T11:39:19Z</time>
      </trkpt>
      <trkpt lat="43.38696" lon="-1.4882">
        <ele>107</ele>
        <time>2026-02-28T11:39:32Z</time>
      </trkpt>
      <trkpt lat="43.38702" lon="-1.4886">
        <ele>107</ele>
        <time>2026-02-28T11:39:37Z</time>
      </trkpt>
      <trkpt lat="43.38734" lon="-1.49133">
        <ele>119</ele>
        <time>2026-02-28T11:40:13Z</time>
      </trkpt>
      <trkpt lat="43.38737" lon="-1.49263">
        <ele>126</ele>
        <time>2026-02-28T11:40:30Z</time>
      </trkpt>
      <trkpt lat="43.38735" lon="-1.49275">
        <ele>125</ele>
        <time>2026-02-28T11:40:31Z</time>
      </trkpt>
      <trkpt lat="43.38706" lon="-1.49424">
        <ele>126</ele>
        <time>2026-02-28T11:40:51Z</time>
      </trkpt>
      <trkpt lat="43.38685" lon="-1.49481">
        <ele>131</ele>
        <time>2026-02-28T11:40:59Z</time>
      </trkpt>
      <trkpt lat="43.38678" lon="-1.49501">
        <ele>133</ele>
        <time>2026-02-28T11:41:02Z</time>
      </trkpt>
      <trkpt lat="43.38685" lon="-1.49592">
        <ele>133</ele>
        <time>2026-02-28T11:41:14Z</time>
      </trkpt>
      <trkpt lat="43.3868" lon="-1.49636">
        <ele>134</ele>
        <time>2026-02-28T11:41:20Z</time>
      </trkpt>
      <trkpt lat="43.3866" lon="-1.49697">
        <ele>138</ele>
        <time>2026-02-28T11:41:28Z</time>
      </trkpt>
      <trkpt lat="43.38573" lon="-1.49898">
        <ele>141</ele>
        <time>2026-02-28T11:41:59Z</time>
      </trkpt>
      <trkpt lat="43.38555" lon="-1.49922">
        <ele>140</ele>
        <time>2026-02-28T11:42:03Z</time>
      </trkpt>
      <trkpt lat="43.38475" lon="-1.49994">
        <ele>136</ele>
        <time>2026-02-28T11:42:20Z</time>
      </trkpt>
      <trkpt lat="43.38468" lon="-1.50015">
        <ele>135</ele>
        <time>2026-02-28T11:42:23Z</time>
      </trkpt>
      <trkpt lat="43.38452" lon="-1.50137">
        <ele>131</ele>
        <time>2026-02-28T11:42:39Z</time>
      </trkpt>
      <trkpt lat="43.3844" lon="-1.50174">
        <ele>129</ele>
        <time>2026-02-28T11:42:44Z</time>
      </trkpt>
      <trkpt lat="43.38412" lon="-1.50226">
        <ele>128</ele>
        <time>2026-02-28T11:42:53Z</time>
      </trkpt>
      <trkpt lat="43.38359" lon="-1.50285">
        <ele>126</ele>
        <time>2026-02-28T11:43:05Z</time>
      </trkpt>
      <trkpt lat="43.38267" lon="-1.50443">
        <ele>127</ele>
        <time>2026-02-28T11:43:31Z</time>
      </trkpt>
      <trkpt lat="43.3826" lon="-1.50458">
        <ele>127</ele>
        <time>2026-02-28T11:43:33Z</time>
      </trkpt>
      <trkpt lat="43.3815" lon="-1.50433">
        <ele>127</ele>
        <time>2026-02-28T11:43:53Z</time>
      </trkpt>
      <trkpt lat="43.38125" lon="-1.5043">
        <ele>127</ele>
        <time>2026-02-28T11:43:58Z</time>
      </trkpt>
      <trkpt lat="43.38101" lon="-1.50431">
        <ele>128</ele>
        <time>2026-02-28T11:44:02Z</time>
      </trkpt>
      <trkpt lat="43.38017" lon="-1.50433">
        <ele>128</ele>
        <time>2026-02-28T11:44:17Z</time>
      </trkpt>
      <trkpt lat="43.37996" lon="-1.50438">
        <ele>128</ele>
        <time>2026-02-28T11:44:21Z</time>
      </trkpt>
      <trkpt lat="43.37963" lon="-1.50452">
        <ele>129</ele>
        <time>2026-02-28T11:44:27Z</time>
      </trkpt>
      <trkpt lat="43.37947" lon="-1.50456">
        <ele>129</ele>
        <time>2026-02-28T11:44:30Z</time>
      </trkpt>
      <trkpt lat="43.37933" lon="-1.50453">
        <ele>129</ele>
        <time>2026-02-28T11:44:32Z</time>
      </trkpt>
      <trkpt lat="43.37916" lon="-1.50444">
        <ele>130</ele>
        <time>2026-02-28T11:44:36Z</time>
      </trkpt>
      <trkpt lat="43.37906" lon="-1.50439">
        <ele>129</ele>
        <time>2026-02-28T11:44:37Z</time>
      </trkpt>
      <trkpt lat="43.3789" lon="-1.50437">
        <ele>128</ele>
        <time>2026-02-28T11:44:40Z</time>
      </trkpt>
      <trkpt lat="43.37878" lon="-1.50441">
        <ele>128</ele>
        <time>2026-02-28T11:44:42Z</time>
      </trkpt>
      <trkpt lat="43.37871" lon="-1.5045">
        <ele>127</ele>
        <time>2026-02-28T11:44:44Z</time>
      </trkpt>
      <trkpt lat="43.37867" lon="-1.50466">
        <ele>127</ele>
        <time>2026-02-28T11:44:46Z</time>
      </trkpt>
      <trkpt lat="43.37875" lon="-1.50531">
        <ele>128</ele>
        <time>2026-02-28T11:44:55Z</time>
      </trkpt>
      <trkpt lat="43.37872" lon="-1.50596">
        <ele>128</ele>
        <time>2026-02-28T11:45:03Z</time>
      </trkpt>
      <trkpt lat="43.37859" lon="-1.50665">
        <ele>129</ele>
        <time>2026-02-28T11:45:13Z</time>
      </trkpt>
      <trkpt lat="43.37847" lon="-1.50819">
        <ele>132</ele>
        <time>2026-02-28T11:45:33Z</time>
      </trkpt>
      <trkpt lat="43.37838" lon="-1.50848">
        <ele>132</ele>
        <time>2026-02-28T11:45:37Z</time>
      </trkpt>
      <trkpt lat="43.37815" lon="-1.50898">
        <ele>133</ele>
        <time>2026-02-28T11:45:44Z</time>
      </trkpt>
      <trkpt lat="43.37768" lon="-1.50997">
        <ele>135</ele>
        <time>2026-02-28T11:46:00Z</time>
      </trkpt>
      <trkpt lat="43.37737" lon="-1.51026">
        <ele>136</ele>
        <time>2026-02-28T11:46:06Z</time>
      </trkpt>
      <trkpt lat="43.37723" lon="-1.51051">
        <ele>137</ele>
        <time>2026-02-28T11:46:10Z</time>
      </trkpt>
      <trkpt lat="43.37704" lon="-1.51106">
        <ele>137</ele>
        <time>2026-02-28T11:46:18Z</time>
      </trkpt>
      <trkpt lat="43.37693" lon="-1.51128">
        <ele>136</ele>
        <time>2026-02-28T11:46:22Z</time>
      </trkpt>
      <trkpt lat="43.3768" lon="-1.51144">
        <ele>136</ele>
        <time>2026-02-28T11:46:25Z</time>
      </trkpt>
      <trkpt lat="43.37666" lon="-1.51152">
        <ele>136</ele>
        <time>2026-02-28T11:46:27Z</time>
      </trkpt>
      <trkpt lat="43.37641" lon="-1.51154">
        <ele>135</ele>
        <time>2026-02-28T11:46:32Z</time>
      </trkpt>
      <trkpt lat="43.37596" lon="-1.51133">
        <ele>136</ele>
        <time>2026-02-28T11:46:40Z</time>
      </trkpt>
      <trkpt lat="43.37576" lon="-1.51129">
        <ele>136</ele>
        <time>2026-02-28T11:46:44Z</time>
      </trkpt>
      <trkpt lat="43.37543" lon="-1.5113">
        <ele>136</ele>
        <time>2026-02-28T11:46:50Z</time>
      </trkpt>
      <trkpt lat="43.37523" lon="-1.51135">
        <ele>136</ele>
        <time>2026-02-28T11:46:53Z</time>
      </trkpt>
      <trkpt lat="43.37508" lon="-1.51147">
        <ele>136</ele>
        <time>2026-02-28T11:46:57Z</time>
      </trkpt>
      <trkpt lat="43.37498" lon="-1.51158">
        <ele>135</ele>
        <time>2026-02-28T11:46:59Z</time>
      </trkpt>
      <trkpt lat="43.37487" lon="-1.51176">
        <ele>134</ele>
        <time>2026-02-28T11:47:02Z</time>
      </trkpt>
      <trkpt lat="43.37462" lon="-1.51223">
        <ele>132</ele>
        <time>2026-02-28T11:47:09Z</time>
      </trkpt>
      <trkpt lat="43.37454" lon="-1.51254">
        <ele>132</ele>
        <time>2026-02-28T11:47:14Z</time>
      </trkpt>
      <trkpt lat="43.37452" lon="-1.51292">
        <ele>132</ele>
        <time>2026-02-28T11:47:19Z</time>
      </trkpt>
      <trkpt lat="43.37452" lon="-1.51326">
        <ele>131</ele>
        <time>2026-02-28T11:47:23Z</time>
      </trkpt>
      <trkpt lat="43.37449" lon="-1.51363">
        <ele>132</ele>
        <time>2026-02-28T11:47:28Z</time>
      </trkpt>
      <trkpt lat="43.37438" lon="-1.51436">
        <ele>133</ele>
        <time>2026-02-28T11:47:37Z</time>
      </trkpt>
      <trkpt lat="43.37427" lon="-1.51539">
        <ele>134</ele>
        <time>2026-02-28T11:47:51Z</time>
      </trkpt>
      <trkpt lat="43.37423" lon="-1.51565">
        <ele>134</ele>
        <time>2026-02-28T11:47:54Z</time>
      </trkpt>
      <trkpt lat="43.37411" lon="-1.51588">
        <ele>135</ele>
        <time>2026-02-28T11:47:58Z</time>
      </trkpt>
      <trkpt lat="43.374" lon="-1.51603">
        <ele>134</ele>
        <time>2026-02-28T11:48:01Z</time>
      </trkpt>
      <trkpt lat="43.37384" lon="-1.51611">
        <ele>134</ele>
        <time>2026-02-28T11:48:04Z</time>
      </trkpt>
      <trkpt lat="43.373" lon="-1.51641">
        <ele>137</ele>
        <time>2026-02-28T11:48:19Z</time>
      </trkpt>
      <trkpt lat="43.37279" lon="-1.51656">
        <ele>137</ele>
        <time>2026-02-28T11:48:23Z</time>
      </trkpt>
      <trkpt lat="43.37263" lon="-1.51685">
        <ele>138</ele>
        <time>2026-02-28T11:48:28Z</time>
      </trkpt>
      <trkpt lat="43.37249" lon="-1.51722">
        <ele>139</ele>
        <time>2026-02-28T11:48:34Z</time>
      </trkpt>
      <trkpt lat="43.37229" lon="-1.518">
        <ele>139</ele>
        <time>2026-02-28T11:48:44Z</time>
      </trkpt>
      <trkpt lat="43.37228" lon="-1.51845">
        <ele>139</ele>
        <time>2026-02-28T11:48:50Z</time>
      </trkpt>
      <trkpt lat="43.37239" lon="-1.51887">
        <ele>140</ele>
        <time>2026-02-28T11:48:56Z</time>
      </trkpt>
      <trkpt lat="43.37258" lon="-1.51934">
        <ele>139</ele>
        <time>2026-02-28T11:49:03Z</time>
      </trkpt>
      <trkpt lat="43.37275" lon="-1.52001">
        <ele>138</ele>
        <time>2026-02-28T11:49:12Z</time>
      </trkpt>
      <trkpt lat="43.37287" lon="-1.52055">
        <ele>138</ele>
        <time>2026-02-28T11:49:19Z</time>
      </trkpt>
      <trkpt lat="43.37289" lon="-1.52082">
        <ele>138</ele>
        <time>2026-02-28T11:49:23Z</time>
      </trkpt>
      <trkpt lat="43.37283" lon="-1.52118">
        <ele>138</ele>
        <time>2026-02-28T11:49:28Z</time>
      </trkpt>
      <trkpt lat="43.37271" lon="-1.52149">
        <ele>139</ele>
        <time>2026-02-28T11:49:32Z</time>
      </trkpt>
      <trkpt lat="43.37257" lon="-1.52177">
        <ele>139</ele>
        <time>2026-02-28T11:49:36Z</time>
      </trkpt>
      <trkpt lat="43.37235" lon="-1.52208">
        <ele>137</ele>
        <time>2026-02-28T11:49:42Z</time>
      </trkpt>
      <trkpt lat="43.37178" lon="-1.52275">
        <ele>134</ele>
        <time>2026-02-28T11:49:55Z</time>
      </trkpt>
      <trkpt lat="43.37147" lon="-1.52301">
        <ele>136</ele>
        <time>2026-02-28T11:50:02Z</time>
      </trkpt>
      <trkpt lat="43.37124" lon="-1.52316">
        <ele>138</ele>
        <time>2026-02-28T11:50:06Z</time>
      </trkpt>
      <trkpt lat="43.37089" lon="-1.52331">
        <ele>142</ele>
        <time>2026-02-28T11:50:13Z</time>
      </trkpt>
      <trkpt lat="43.37078" lon="-1.52342">
        <ele>143</ele>
        <time>2026-02-28T11:50:15Z</time>
      </trkpt>
      <trkpt lat="43.37071" lon="-1.52361">
        <ele>143</ele>
        <time>2026-02-28T11:50:18Z</time>
      </trkpt>
      <trkpt lat="43.37068" lon="-1.52455">
        <ele>141</ele>
        <time>2026-02-28T11:50:30Z</time>
      </trkpt>
      <trkpt lat="43.37064" lon="-1.52497">
        <ele>141</ele>
        <time>2026-02-28T11:50:36Z</time>
      </trkpt>
      <trkpt lat="43.37057" lon="-1.52524">
        <ele>141</ele>
        <time>2026-02-28T11:50:39Z</time>
      </trkpt>
      <trkpt lat="43.37046" lon="-1.52546">
        <ele>141</ele>
        <time>2026-02-28T11:50:43Z</time>
      </trkpt>
      <trkpt lat="43.3703" lon="-1.52563">
        <ele>141</ele>
        <time>2026-02-28T11:50:47Z</time>
      </trkpt>
      <trkpt lat="43.37005" lon="-1.52582">
        <ele>141</ele>
        <time>2026-02-28T11:50:52Z</time>
      </trkpt>
      <trkpt lat="43.36952" lon="-1.52605">
        <ele>142</ele>
        <time>2026-02-28T11:51:01Z</time>
      </trkpt>
      <trkpt lat="43.36908" lon="-1.52652">
        <ele>141</ele>
        <time>2026-02-28T11:51:11Z</time>
      </trkpt>
      <trkpt lat="43.36882" lon="-1.52658">
        <ele>139</ele>
        <time>2026-02-28T11:51:16Z</time>
      </trkpt>
      <trkpt lat="43.36867" lon="-1.52655">
        <ele>139</ele>
        <time>2026-02-28T11:51:19Z</time>
      </trkpt>
      <trkpt lat="43.36853" lon="-1.52645">
        <ele>139</ele>
        <time>2026-02-28T11:51:22Z</time>
      </trkpt>
      <trkpt lat="43.36841" lon="-1.52631">
        <ele>139</ele>
        <time>2026-02-28T11:51:24Z</time>
      </trkpt>
      <trkpt lat="43.36833" lon="-1.52616">
        <ele>139</ele>
        <time>2026-02-28T11:51:27Z</time>
      </trkpt>
      <trkpt lat="43.36833" lon="-1.52584">
        <ele>140</ele>
        <time>2026-02-28T11:51:31Z</time>
      </trkpt>
      <trkpt lat="43.36841" lon="-1.52544">
        <ele>141</ele>
        <time>2026-02-28T11:51:36Z</time>
      </trkpt>
      <trkpt lat="43.36831" lon="-1.52476">
        <ele>140</ele>
        <time>2026-02-28T11:51:45Z</time>
      </trkpt>
      <trkpt lat="43.36817" lon="-1.52434">
        <ele>140</ele>
        <time>2026-02-28T11:51:51Z</time>
      </trkpt>
      <trkpt lat="43.36799" lon="-1.52394">
        <ele>140</ele>
        <time>2026-02-28T11:51:57Z</time>
      </trkpt>
      <trkpt lat="43.36787" lon="-1.5235">
        <ele>142</ele>
        <time>2026-02-28T11:52:03Z</time>
      </trkpt>
      <trkpt lat="43.36779" lon="-1.52335">
        <ele>142</ele>
        <time>2026-02-28T11:52:06Z</time>
      </trkpt>
      <trkpt lat="43.36773" lon="-1.52329">
        <ele>142</ele>
        <time>2026-02-28T11:52:07Z</time>
      </trkpt>
      <trkpt lat="43.36764" lon="-1.52325">
        <ele>141</ele>
        <time>2026-02-28T11:52:09Z</time>
      </trkpt>
      <trkpt lat="43.36755" lon="-1.52327">
        <ele>140</ele>
        <time>2026-02-28T11:52:10Z</time>
      </trkpt>
      <trkpt lat="43.36717" lon="-1.52356">
        <ele>137</ele>
        <time>2026-02-28T11:52:18Z</time>
      </trkpt>
      <trkpt lat="43.36702" lon="-1.52364">
        <ele>137</ele>
        <time>2026-02-28T11:52:21Z</time>
      </trkpt>
      <trkpt lat="43.36668" lon="-1.52369">
        <ele>138</ele>
        <time>2026-02-28T11:52:27Z</time>
      </trkpt>
      <trkpt lat="43.36655" lon="-1.52375">
        <ele>137</ele>
        <time>2026-02-28T11:52:30Z</time>
      </trkpt>
      <trkpt lat="43.36641" lon="-1.52391">
        <ele>135</ele>
        <time>2026-02-28T11:52:33Z</time>
      </trkpt>
      <trkpt lat="43.3663" lon="-1.52398">
        <ele>134</ele>
        <time>2026-02-28T11:52:35Z</time>
      </trkpt>
      <trkpt lat="43.3662" lon="-1.52401">
        <ele>133</ele>
        <time>2026-02-28T11:52:37Z</time>
      </trkpt>
      <trkpt lat="43.36609" lon="-1.52398">
        <ele>132</ele>
        <time>2026-02-28T11:52:39Z</time>
      </trkpt>
      <trkpt lat="43.36599" lon="-1.52391">
        <ele>132</ele>
        <time>2026-02-28T11:52:41Z</time>
      </trkpt>
      <trkpt lat="43.36591" lon="-1.52379">
        <ele>132</ele>
        <time>2026-02-28T11:52:43Z</time>
      </trkpt>
      <trkpt lat="43.36555" lon="-1.52297">
        <ele>134</ele>
        <time>2026-02-28T11:52:55Z</time>
      </trkpt>
      <trkpt lat="43.36545" lon="-1.52284">
        <ele>134</ele>
        <time>2026-02-28T11:52:58Z</time>
      </trkpt>
      <trkpt lat="43.36534" lon="-1.52277">
        <ele>133</ele>
        <time>2026-02-28T11:53:00Z</time>
      </trkpt>
      <trkpt lat="43.36523" lon="-1.52274">
        <ele>133</ele>
        <time>2026-02-28T11:53:02Z</time>
      </trkpt>
      <trkpt lat="43.36506" lon="-1.52278">
        <ele>131</ele>
        <time>2026-02-28T11:53:05Z</time>
      </trkpt>
      <trkpt lat="43.36473" lon="-1.5229">
        <ele>130</ele>
        <time>2026-02-28T11:53:11Z</time>
      </trkpt>
      <trkpt lat="43.36446" lon="-1.52304">
        <ele>130</ele>
        <time>2026-02-28T11:53:16Z</time>
      </trkpt>
      <trkpt lat="43.36417" lon="-1.52323">
        <ele>131</ele>
        <time>2026-02-28T11:53:22Z</time>
      </trkpt>
      <trkpt lat="43.3638" lon="-1.52351">
        <ele>132</ele>
        <time>2026-02-28T11:53:29Z</time>
      </trkpt>
      <trkpt lat="43.36356" lon="-1.52376">
        <ele>132</ele>
        <time>2026-02-28T11:53:35Z</time>
      </trkpt>
      <trkpt lat="43.36352" lon="-1.52383">
        <ele>132</ele>
        <time>2026-02-28T11:53:36Z</time>
      </trkpt>
      <trkpt lat="43.36342" lon="-1.52397">
        <ele>132</ele>
        <time>2026-02-28T11:53:38Z</time>
      </trkpt>
      <trkpt lat="43.36335" lon="-1.52415">
        <ele>132</ele>
        <time>2026-02-28T11:53:41Z</time>
      </trkpt>
      <trkpt lat="43.36298" lon="-1.52625">
        <ele>125</ele>
        <time>2026-02-28T11:54:09Z</time>
      </trkpt>
      <trkpt lat="43.36299" lon="-1.52656">
        <ele>123</ele>
        <time>2026-02-28T11:54:13Z</time>
      </trkpt>
      <trkpt lat="43.36305" lon="-1.5269">
        <ele>120</ele>
        <time>2026-02-28T11:54:18Z</time>
      </trkpt>
      <trkpt lat="43.36322" lon="-1.52743">
        <ele>118</ele>
        <time>2026-02-28T11:54:25Z</time>
      </trkpt>
      <trkpt lat="43.36341" lon="-1.52783">
        <ele>117</ele>
        <time>2026-02-28T11:54:31Z</time>
      </trkpt>
      <trkpt lat="43.3639" lon="-1.52871">
        <ele>114</ele>
        <time>2026-02-28T11:54:46Z</time>
      </trkpt>
      <trkpt lat="43.36402" lon="-1.52897">
        <ele>114</ele>
        <time>2026-02-28T11:54:50Z</time>
      </trkpt>
      <trkpt lat="43.3641" lon="-1.52925">
        <ele>115</ele>
        <time>2026-02-28T11:54:53Z</time>
      </trkpt>
      <trkpt lat="43.36424" lon="-1.53">
        <ele>110</ele>
        <time>2026-02-28T11:55:03Z</time>
      </trkpt>
      <trkpt lat="43.36463" lon="-1.53252">
        <ele>108</ele>
        <time>2026-02-28T11:55:37Z</time>
      </trkpt>
      <trkpt lat="43.36496" lon="-1.53439">
        <ele>104</ele>
        <time>2026-02-28T11:56:02Z</time>
      </trkpt>
      <trkpt lat="43.36506" lon="-1.5357">
        <ele>97</ele>
        <time>2026-02-28T11:56:19Z</time>
      </trkpt>
      <trkpt lat="43.36506" lon="-1.53596">
        <ele>97</ele>
        <time>2026-02-28T11:56:22Z</time>
      </trkpt>
      <trkpt lat="43.36504" lon="-1.53627">
        <ele>97</ele>
        <time>2026-02-28T11:56:26Z</time>
      </trkpt>
      <trkpt lat="43.36494" lon="-1.53663">
        <ele>97</ele>
        <time>2026-02-28T11:56:31Z</time>
      </trkpt>
      <trkpt lat="43.36486" lon="-1.53691">
        <ele>98</ele>
        <time>2026-02-28T11:56:35Z</time>
      </trkpt>
      <trkpt lat="43.36458" lon="-1.5377">
        <ele>99</ele>
        <time>2026-02-28T11:56:46Z</time>
      </trkpt>
      <trkpt lat="43.36453" lon="-1.53796">
        <ele>99</ele>
        <time>2026-02-28T11:56:50Z</time>
      </trkpt>
      <trkpt lat="43.36451" lon="-1.53875">
        <ele>99</ele>
        <time>2026-02-28T11:57:00Z</time>
      </trkpt>
      <trkpt lat="43.3644" lon="-1.53977">
        <ele>96</ele>
        <time>2026-02-28T11:57:13Z</time>
      </trkpt>
      <trkpt lat="43.36438" lon="-1.54039">
        <ele>95</ele>
        <time>2026-02-28T11:57:21Z</time>
      </trkpt>
      <trkpt lat="43.36416" lon="-1.54232">
        <ele>99</ele>
        <time>2026-02-28T11:57:47Z</time>
      </trkpt>
      <trkpt lat="43.36416" lon="-1.54258">
        <ele>100</ele>
        <time>2026-02-28T11:57:50Z</time>
      </trkpt>
      <trkpt lat="43.36422" lon="-1.54278">
        <ele>101</ele>
        <time>2026-02-28T11:57:53Z</time>
      </trkpt>
      <trkpt lat="43.36434" lon="-1.54296">
        <ele>100</ele>
        <time>2026-02-28T11:57:56Z</time>
      </trkpt>
      <trkpt lat="43.3645" lon="-1.54307">
        <ele>99</ele>
        <time>2026-02-28T11:57:59Z</time>
      </trkpt>
      <trkpt lat="43.36468" lon="-1.54315">
        <ele>97</ele>
        <time>2026-02-28T11:58:03Z</time>
      </trkpt>
      <trkpt lat="43.36492" lon="-1.54318">
        <ele>95</ele>
        <time>2026-02-28T11:58:07Z</time>
      </trkpt>
      <trkpt lat="43.36522" lon="-1.54318">
        <ele>91</ele>
        <time>2026-02-28T11:58:12Z</time>
      </trkpt>
      <trkpt lat="43.36539" lon="-1.54346">
        <ele>90</ele>
        <time>2026-02-28T11:58:17Z</time>
      </trkpt>
      <trkpt lat="43.36534" lon="-1.54411">
        <ele>90</ele>
        <time>2026-02-28T11:58:25Z</time>
      </trkpt>
      <trkpt lat="43.36529" lon="-1.54476">
        <ele>90</ele>
        <time>2026-02-28T11:58:34Z</time>
      </trkpt>
      <trkpt lat="43.36384" lon="-1.54515">
        <ele>85</ele>
        <time>2026-02-28T11:59:00Z</time>
      </trkpt>
      <trkpt lat="43.3637" lon="-1.54515">
        <ele>84</ele>
        <time>2026-02-28T11:59:03Z</time>
      </trkpt>
      <trkpt lat="43.36347" lon="-1.54511">
        <ele>83</ele>
        <time>2026-02-28T11:59:07Z</time>
      </trkpt>
      <trkpt lat="43.36338" lon="-1.54516">
        <ele>82</ele>
        <time>2026-02-28T11:59:08Z</time>
      </trkpt>
      <trkpt lat="43.3632" lon="-1.54556">
        <ele>76</ele>
        <time>2026-02-28T11:59:15Z</time>
      </trkpt>
      <trkpt lat="43.36304" lon="-1.54576">
        <ele>72</ele>
        <time>2026-02-28T11:59:18Z</time>
      </trkpt>
      <trkpt lat="43.3629" lon="-1.54587">
        <ele>70</ele>
        <time>2026-02-28T11:59:21Z</time>
      </trkpt>
      <trkpt lat="43.36274" lon="-1.54596">
        <ele>69</ele>
        <time>2026-02-28T11:59:24Z</time>
      </trkpt>
      <trkpt lat="43.36233" lon="-1.54606">
        <ele>67</ele>
        <time>2026-02-28T11:59:32Z</time>
      </trkpt>
      <trkpt lat="43.36199" lon="-1.54619">
        <ele>67</ele>
        <time>2026-02-28T11:59:38Z</time>
      </trkpt>
      <trkpt lat="43.36068" lon="-1.54671">
        <ele>58</ele>
        <time>2026-02-28T12:00:02Z</time>
      </trkpt>
      <trkpt lat="43.36026" lon="-1.54699">
        <ele>55</ele>
        <time>2026-02-28T12:00:11Z</time>
      </trkpt>
      <trkpt lat="43.3601" lon="-1.54708">
        <ele>53</ele>
        <time>2026-02-28T12:00:14Z</time>
      </trkpt>
      <trkpt lat="43.35883" lon="-1.5476">
        <ele>39</ele>
        <time>2026-02-28T12:00:37Z</time>
      </trkpt>
      <trkpt lat="43.35856" lon="-1.54778">
        <ele>36</ele>
        <time>2026-02-28T12:00:43Z</time>
      </trkpt>
      <trkpt lat="43.35848" lon="-1.54788">
        <ele>35</ele>
        <time>2026-02-28T12:00:44Z</time>
      </trkpt>
      <trkpt lat="43.35784" lon="-1.54901">
        <ele>30</ele>
        <time>2026-02-28T12:01:03Z</time>
      </trkpt>
      <trkpt lat="43.35753" lon="-1.54939">
        <ele>27</ele>
        <time>2026-02-28T12:01:10Z</time>
      </trkpt>
      <trkpt lat="43.35697" lon="-1.54999">
        <ele>23</ele>
        <time>2026-02-28T12:01:23Z</time>
      </trkpt>
      <trkpt lat="43.35639" lon="-1.55061">
        <ele>22</ele>
        <time>2026-02-28T12:01:36Z</time>
      </trkpt>
      <trkpt lat="43.35659" lon="-1.551">
        <ele>21</ele>
        <time>2026-02-28T12:01:42Z</time>
      </trkpt>
      <trkpt lat="43.35676" lon="-1.55133">
        <ele>21</ele>
        <time>2026-02-28T12:01:48Z</time>
      </trkpt>
      <trkpt lat="43.35705" lon="-1.55184">
        <ele>22</ele>
        <time>2026-02-28T12:01:56Z</time>
      </trkpt>
      <trkpt lat="43.35725" lon="-1.55213">
        <ele>22</ele>
        <time>2026-02-28T12:02:01Z</time>
      </trkpt>
      <trkpt lat="43.3574" lon="-1.55234">
        <ele>22</ele>
        <time>2026-02-28T12:02:05Z</time>
      </trkpt>
      <trkpt lat="43.35757" lon="-1.55264">
        <ele>22</ele>
        <time>2026-02-28T12:02:10Z</time>
      </trkpt>
      <trkpt lat="43.35763" lon="-1.55276">
        <ele>22</ele>
        <time>2026-02-28T12:02:12Z</time>
      </trkpt>
      <trkpt lat="43.35766" lon="-1.55288">
        <ele>22</ele>
        <time>2026-02-28T12:02:13Z</time>
      </trkpt>
      <trkpt lat="43.35769" lon="-1.55301">
        <ele>22</ele>
        <time>2026-02-28T12:02:15Z</time>
      </trkpt>
      <trkpt lat="43.35798" lon="-1.55504">
        <ele>25</ele>
        <time>2026-02-28T12:02:42Z</time>
      </trkpt>
      <trkpt lat="43.35798" lon="-1.55532">
        <ele>25</ele>
        <time>2026-02-28T12:02:45Z</time>
      </trkpt>
      <trkpt lat="43.35793" lon="-1.55578">
        <ele>24</ele>
        <time>2026-02-28T12:02:51Z</time>
      </trkpt>
      <trkpt lat="43.35784" lon="-1.55615">
        <ele>23</ele>
        <time>2026-02-28T12:02:57Z</time>
      </trkpt>
      <trkpt lat="43.35781" lon="-1.55642">
        <ele>23</ele>
        <time>2026-02-28T12:03:00Z</time>
      </trkpt>
      <trkpt lat="43.3578" lon="-1.55666">
        <ele>23</ele>
        <time>2026-02-28T12:03:03Z</time>
      </trkpt>
      <trkpt lat="43.35785" lon="-1.55831">
        <ele>24</ele>
        <time>2026-02-28T12:03:25Z</time>
      </trkpt>
      <trkpt lat="43.35787" lon="-1.55898">
        <ele>20</ele>
        <time>2026-02-28T12:03:33Z</time>
      </trkpt>
      <trkpt lat="43.35785" lon="-1.55918">
        <ele>18</ele>
        <time>2026-02-28T12:03:36Z</time>
      </trkpt>
      <trkpt lat="43.35781" lon="-1.55938">
        <ele>18</ele>
        <time>2026-02-28T12:03:39Z</time>
      </trkpt>
      <trkpt lat="43.35774" lon="-1.55958">
        <ele>18</ele>
        <time>2026-02-28T12:03:41Z</time>
      </trkpt>
      <trkpt lat="43.35766" lon="-1.55989">
        <ele>18</ele>
        <time>2026-02-28T12:03:46Z</time>
      </trkpt>
      <trkpt lat="43.35767" lon="-1.55997">
        <ele>18</ele>
        <time>2026-02-28T12:03:47Z</time>
      </trkpt>
      <trkpt lat="43.35764" lon="-1.56008">
        <ele>19</ele>
        <time>2026-02-28T12:03:48Z</time>
      </trkpt>
      <trkpt lat="43.3576" lon="-1.56015">
        <ele>19</ele>
        <time>2026-02-28T12:03:49Z</time>
      </trkpt>
      <trkpt lat="43.35753" lon="-1.56017">
        <ele>19</ele>
        <time>2026-02-28T12:03:51Z</time>
      </trkpt>
      <trkpt lat="43.35747" lon="-1.56016">
        <ele>19</ele>
        <time>2026-02-28T12:03:52Z</time>
      </trkpt>
      <trkpt lat="43.3573" lon="-1.56032">
        <ele>19</ele>
        <time>2026-02-28T12:03:55Z</time>
      </trkpt>
      <trkpt lat="43.35721" lon="-1.56041">
        <ele>19</ele>
        <time>2026-02-28T12:03:57Z</time>
      </trkpt>
      <trkpt lat="43.35697" lon="-1.56057">
        <ele>18</ele>
        <time>2026-02-28T12:04:02Z</time>
      </trkpt>
      <trkpt lat="43.35652" lon="-1.56087">
        <ele>18</ele>
        <time>2026-02-28T12:04:11Z</time>
      </trkpt>
      <trkpt lat="43.35648" lon="-1.5608">
        <ele>17</ele>
        <time>2026-02-28T12:04:12Z</time>
      </trkpt>
      <trkpt lat="43.35642" lon="-1.56085">
        <ele>17</ele>
        <time>2026-02-28T12:04:13Z</time>
      </trkpt>
      <trkpt lat="43.35635" lon="-1.56094">
        <ele>18</ele>
        <time>2026-02-28T12:04:15Z</time>
      </trkpt>
      <trkpt lat="43.35618" lon="-1.56125">
        <ele>18</ele>
        <time>2026-02-28T12:04:20Z</time>
      </trkpt>
      <trkpt lat="43.35614" lon="-1.56149">
        <ele>19</ele>
        <time>2026-02-28T12:04:23Z</time>
      </trkpt>
      <trkpt lat="43.35609" lon="-1.56223">
        <ele>18</ele>
        <time>2026-02-28T12:04:33Z</time>
      </trkpt>
      <trkpt lat="43.3561" lon="-1.56297">
        <ele>18</ele>
        <time>2026-02-28T12:04:43Z</time>
      </trkpt>
      <trkpt lat="43.35612" lon="-1.56369">
        <ele>18</ele>
        <time>2026-02-28T12:04:52Z</time>
      </trkpt>
      <trkpt lat="43.35616" lon="-1.56498">
        <ele>18</ele>
        <time>2026-02-28T12:05:09Z</time>
      </trkpt>
      <trkpt lat="43.35622" lon="-1.56509">
        <ele>19</ele>
        <time>2026-02-28T12:05:10Z</time>
      </trkpt>
      <trkpt lat="43.35622" lon="-1.56558">
        <ele>19</ele>
        <time>2026-02-28T12:05:17Z</time>
      </trkpt>
      <trkpt lat="43.35624" lon="-1.56576">
        <ele>19</ele>
        <time>2026-02-28T12:05:19Z</time>
      </trkpt>
      <trkpt lat="43.35624" lon="-1.56587">
        <ele>19</ele>
        <time>2026-02-28T12:05:20Z</time>
      </trkpt>
      <trkpt lat="43.3563" lon="-1.56589">
        <ele>19</ele>
        <time>2026-02-28T12:05:22Z</time>
      </trkpt>
      <trkpt lat="43.35634" lon="-1.56595">
        <ele>19</ele>
        <time>2026-02-28T12:05:23Z</time>
      </trkpt>
      <trkpt lat="43.35635" lon="-1.56599">
        <ele>19</ele>
        <time>2026-02-28T12:05:23Z</time>
      </trkpt>
      <trkpt lat="43.35632" lon="-1.56611">
        <ele>19</ele>
        <time>2026-02-28T12:05:25Z</time>
      </trkpt>
      <trkpt lat="43.35627" lon="-1.56615">
        <ele>19</ele>
        <time>2026-02-28T12:05:26Z</time>
      </trkpt>
      <trkpt lat="43.35624" lon="-1.56615">
        <ele>19</ele>
        <time>2026-02-28T12:05:26Z</time>
      </trkpt>
      <trkpt lat="43.35625" lon="-1.56626">
        <ele>19</ele>
        <time>2026-02-28T12:05:28Z</time>
      </trkpt>
      <trkpt lat="43.35625" lon="-1.56642">
        <ele>19</ele>
        <time>2026-02-28T12:05:30Z</time>
      </trkpt>
      <trkpt lat="43.35619" lon="-1.56681">
        <ele>19</ele>
        <time>2026-02-28T12:05:35Z</time>
      </trkpt>
      <trkpt lat="43.35617" lon="-1.56692">
        <ele>19</ele>
        <time>2026-02-28T12:05:36Z</time>
      </trkpt>
      <trkpt lat="43.35608" lon="-1.56729">
        <ele>18</ele>
        <time>2026-02-28T12:05:42Z</time>
      </trkpt>
      <trkpt lat="43.35589" lon="-1.56787">
        <ele>17</ele>
        <time>2026-02-28T12:05:50Z</time>
      </trkpt>
      <trkpt lat="43.35585" lon="-1.56813">
        <ele>17</ele>
        <time>2026-02-28T12:05:53Z</time>
      </trkpt>
      <trkpt lat="43.35586" lon="-1.56839">
        <ele>17</ele>
        <time>2026-02-28T12:05:57Z</time>
      </trkpt>
      <trkpt lat="43.35588" lon="-1.56851">
        <ele>17</ele>
        <time>2026-02-28T12:05:58Z</time>
      </trkpt>
      <trkpt lat="43.35597" lon="-1.56872">
        <ele>17</ele>
        <time>2026-02-28T12:06:01Z</time>
      </trkpt>
      <trkpt lat="43.35617" lon="-1.5691">
        <ele>17</ele>
        <time>2026-02-28T12:06:07Z</time>
      </trkpt>
      <trkpt lat="43.35625" lon="-1.56922">
        <ele>17</ele>
        <time>2026-02-28T12:06:09Z</time>
      </trkpt>
      <trkpt lat="43.35664" lon="-1.57006">
        <ele>15</ele>
        <time>2026-02-28T12:06:22Z</time>
      </trkpt>
      <trkpt lat="43.35681" lon="-1.57042">
        <ele>15</ele>
        <time>2026-02-28T12:06:28Z</time>
      </trkpt>
      <trkpt lat="43.35723" lon="-1.57132">
        <ele>15</ele>
        <time>2026-02-28T12:06:42Z</time>
      </trkpt>
      <trkpt lat="43.35733" lon="-1.5716">
        <ele>15</ele>
        <time>2026-02-28T12:06:46Z</time>
      </trkpt>
      <trkpt lat="43.3574" lon="-1.57189">
        <ele>15</ele>
        <time>2026-02-28T12:06:50Z</time>
      </trkpt>
      <trkpt lat="43.35745" lon="-1.57225">
        <ele>14</ele>
        <time>2026-02-28T12:06:54Z</time>
      </trkpt>
      <trkpt lat="43.35751" lon="-1.57286">
        <ele>14</ele>
        <time>2026-02-28T12:07:02Z</time>
      </trkpt>
      <trkpt lat="43.35754" lon="-1.57323">
        <ele>13</ele>
        <time>2026-02-28T12:07:07Z</time>
      </trkpt>
      <trkpt lat="43.35756" lon="-1.57342">
        <ele>13</ele>
        <time>2026-02-28T12:07:10Z</time>
      </trkpt>
      <trkpt lat="43.35758" lon="-1.57366">
        <ele>13</ele>
        <time>2026-02-28T12:07:13Z</time>
      </trkpt>
      <trkpt lat="43.35763" lon="-1.57418">
        <ele>13</ele>
        <time>2026-02-28T12:07:20Z</time>
      </trkpt>
      <trkpt lat="43.35767" lon="-1.57433">
        <ele>13</ele>
        <time>2026-02-28T12:07:22Z</time>
      </trkpt>
      <trkpt lat="43.35781" lon="-1.57454">
        <ele>13</ele>
        <time>2026-02-28T12:07:25Z</time>
      </trkpt>
      <trkpt lat="43.35787" lon="-1.57459">
        <ele>13</ele>
        <time>2026-02-28T12:07:27Z</time>
      </trkpt>
      <trkpt lat="43.35789" lon="-1.57464">
        <ele>13</ele>
        <time>2026-02-28T12:07:27Z</time>
      </trkpt>
      <trkpt lat="43.35789" lon="-1.5747">
        <ele>13</ele>
        <time>2026-02-28T12:07:28Z</time>
      </trkpt>
      <trkpt lat="43.35785" lon="-1.5748">
        <ele>13</ele>
        <time>2026-02-28T12:07:30Z</time>
      </trkpt>
      <trkpt lat="43.35781" lon="-1.57496">
        <ele>13</ele>
        <time>2026-02-28T12:07:32Z</time>
      </trkpt>
      <trkpt lat="43.35779" lon="-1.57526">
        <ele>13</ele>
        <time>2026-02-28T12:07:36Z</time>
      </trkpt>
      <trkpt lat="43.35779" lon="-1.57552">
        <ele>13</ele>
        <time>2026-02-28T12:07:39Z</time>
      </trkpt>
      <trkpt lat="43.35783" lon="-1.57586">
        <ele>13</ele>
        <time>2026-02-28T12:07:44Z</time>
      </trkpt>
      <trkpt lat="43.35807" lon="-1.5772">
        <ele>12</ele>
        <time>2026-02-28T12:08:01Z</time>
      </trkpt>
      <trkpt lat="43.35838" lon="-1.57869">
        <ele>11</ele>
        <time>2026-02-28T12:08:21Z</time>
      </trkpt>
      <trkpt lat="43.35852" lon="-1.57913">
        <ele>12</ele>
        <time>2026-02-28T12:08:28Z</time>
      </trkpt>
      <trkpt lat="43.35882" lon="-1.57972">
        <ele>11</ele>
        <time>2026-02-28T12:08:37Z</time>
      </trkpt>
      <trkpt lat="43.35894" lon="-1.57993">
        <ele>11</ele>
        <time>2026-02-28T12:08:40Z</time>
      </trkpt>
      <trkpt lat="43.35991" lon="-1.58131">
        <ele>11</ele>
        <time>2026-02-28T12:09:05Z</time>
      </trkpt>
      <trkpt lat="43.36003" lon="-1.58148">
        <ele>11</ele>
        <time>2026-02-28T12:09:08Z</time>
      </trkpt>
      <trkpt lat="43.36109" lon="-1.58303">
        <ele>12</ele>
        <time>2026-02-28T12:09:36Z</time>
      </trkpt>
      <trkpt lat="43.36129" lon="-1.58341">
        <ele>12</ele>
        <time>2026-02-28T12:09:42Z</time>
      </trkpt>
      <trkpt lat="43.36139" lon="-1.58363">
        <ele>12</ele>
        <time>2026-02-28T12:09:45Z</time>
      </trkpt>
      <trkpt lat="43.36164" lon="-1.58429">
        <ele>12</ele>
        <time>2026-02-28T12:09:55Z</time>
      </trkpt>
      <trkpt lat="43.36232" lon="-1.58645">
        <ele>11</ele>
        <time>2026-02-28T12:10:25Z</time>
      </trkpt>
      <trkpt lat="43.36257" lon="-1.58723">
        <ele>14</ele>
        <time>2026-02-28T12:10:36Z</time>
      </trkpt>
      <trkpt lat="43.3628" lon="-1.58766">
        <ele>18</ele>
        <time>2026-02-28T12:10:43Z</time>
      </trkpt>
      <trkpt lat="43.36308" lon="-1.58801">
        <ele>19</ele>
        <time>2026-02-28T12:10:50Z</time>
      </trkpt>
      <trkpt lat="43.36402" lon="-1.58885">
        <ele>17</ele>
        <time>2026-02-28T12:11:10Z</time>
      </trkpt>
      <trkpt lat="43.36427" lon="-1.58913">
        <ele>13</ele>
        <time>2026-02-28T12:11:16Z</time>
      </trkpt>
      <trkpt lat="43.36444" lon="-1.58941">
        <ele>12</ele>
        <time>2026-02-28T12:11:20Z</time>
      </trkpt>
      <trkpt lat="43.3646" lon="-1.58976">
        <ele>11</ele>
        <time>2026-02-28T12:11:26Z</time>
      </trkpt>
      <trkpt lat="43.36482" lon="-1.59044">
        <ele>9</ele>
        <time>2026-02-28T12:11:35Z</time>
      </trkpt>
      <trkpt lat="43.36538" lon="-1.59228">
        <ele>10</ele>
        <time>2026-02-28T12:12:01Z</time>
      </trkpt>
      <trkpt lat="43.36581" lon="-1.59376">
        <ele>9</ele>
        <time>2026-02-28T12:12:22Z</time>
      </trkpt>
      <trkpt lat="43.36589" lon="-1.5943">
        <ele>9</ele>
        <time>2026-02-28T12:12:29Z</time>
      </trkpt>
      <trkpt lat="43.36592" lon="-1.59482">
        <ele>9</ele>
        <time>2026-02-28T12:12:36Z</time>
      </trkpt>
      <trkpt lat="43.36588" lon="-1.59546">
        <ele>11</ele>
        <time>2026-02-28T12:12:44Z</time>
      </trkpt>
      <trkpt lat="43.36567" lon="-1.59809">
        <ele>18</ele>
        <time>2026-02-28T12:13:18Z</time>
      </trkpt>
      <trkpt lat="43.36562" lon="-1.59843">
        <ele>18</ele>
        <time>2026-02-28T12:13:23Z</time>
      </trkpt>
      <trkpt lat="43.36549" lon="-1.59873">
        <ele>17</ele>
        <time>2026-02-28T12:13:27Z</time>
      </trkpt>
      <trkpt lat="43.36533" lon="-1.59897">
        <ele>16</ele>
        <time>2026-02-28T12:13:31Z</time>
      </trkpt>
      <trkpt lat="43.36504" lon="-1.59919">
        <ele>13</ele>
        <time>2026-02-28T12:13:37Z</time>
      </trkpt>
      <trkpt lat="43.36476" lon="-1.5994">
        <ele>14</ele>
        <time>2026-02-28T12:13:43Z</time>
      </trkpt>
      <trkpt lat="43.36447" lon="-1.59965">
        <ele>14</ele>
        <time>2026-02-28T12:13:49Z</time>
      </trkpt>
      <trkpt lat="43.36418" lon="-1.59996">
        <ele>13</ele>
        <time>2026-02-28T12:13:56Z</time>
      </trkpt>
      <trkpt lat="43.36404" lon="-1.60015">
        <ele>14</ele>
        <time>2026-02-28T12:13:59Z</time>
      </trkpt>
      <trkpt lat="43.36387" lon="-1.60042">
        <ele>15</ele>
        <time>2026-02-28T12:14:04Z</time>
      </trkpt>
      <trkpt lat="43.36371" lon="-1.60073">
        <ele>15</ele>
        <time>2026-02-28T12:14:09Z</time>
      </trkpt>
      <trkpt lat="43.36336" lon="-1.60166">
        <ele>16</ele>
        <time>2026-02-28T12:14:22Z</time>
      </trkpt>
      <trkpt lat="43.36316" lon="-1.60201">
        <ele>20</ele>
        <time>2026-02-28T12:14:28Z</time>
      </trkpt>
      <trkpt lat="43.36299" lon="-1.60225">
        <ele>21</ele>
        <time>2026-02-28T12:14:32Z</time>
      </trkpt>
      <trkpt lat="43.36264" lon="-1.60257">
        <ele>19</ele>
        <time>2026-02-28T12:14:40Z</time>
      </trkpt>
      <trkpt lat="43.36211" lon="-1.60302">
        <ele>16</ele>
        <time>2026-02-28T12:14:51Z</time>
      </trkpt>
      <trkpt lat="43.36173" lon="-1.60338">
        <ele>13</ele>
        <time>2026-02-28T12:14:59Z</time>
      </trkpt>
      <trkpt lat="43.36153" lon="-1.60362">
        <ele>14</ele>
        <time>2026-02-28T12:15:04Z</time>
      </trkpt>
      <trkpt lat="43.36138" lon="-1.60384">
        <ele>15</ele>
        <time>2026-02-28T12:15:08Z</time>
      </trkpt>
      <trkpt lat="43.36126" lon="-1.60409">
        <ele>15</ele>
        <time>2026-02-28T12:15:12Z</time>
      </trkpt>
      <trkpt lat="43.36116" lon="-1.60439">
        <ele>16</ele>
        <time>2026-02-28T12:15:16Z</time>
      </trkpt>
      <trkpt lat="43.36109" lon="-1.60462">
        <ele>16</ele>
        <time>2026-02-28T12:15:19Z</time>
      </trkpt>
      <trkpt lat="43.36103" lon="-1.60494">
        <ele>17</ele>
        <time>2026-02-28T12:15:23Z</time>
      </trkpt>
      <trkpt lat="43.36102" lon="-1.60519">
        <ele>17</ele>
        <time>2026-02-28T12:15:27Z</time>
      </trkpt>
      <trkpt lat="43.36102" lon="-1.60551">
        <ele>17</ele>
        <time>2026-02-28T12:15:31Z</time>
      </trkpt>
      <trkpt lat="43.36104" lon="-1.60585">
        <ele>18</ele>
        <time>2026-02-28T12:15:35Z</time>
      </trkpt>
      <trkpt lat="43.36107" lon="-1.60616">
        <ele>18</ele>
        <time>2026-02-28T12:15:39Z</time>
      </trkpt>
      <trkpt lat="43.36118" lon="-1.60724">
        <ele>18</ele>
        <time>2026-02-28T12:15:53Z</time>
      </trkpt>
      <trkpt lat="43.36119" lon="-1.6075">
        <ele>18</ele>
        <time>2026-02-28T12:15:57Z</time>
      </trkpt>
      <trkpt lat="43.36114" lon="-1.60831">
        <ele>16</ele>
        <time>2026-02-28T12:16:07Z</time>
      </trkpt>
      <trkpt lat="43.36113" lon="-1.60838">
        <ele>16</ele>
        <time>2026-02-28T12:16:08Z</time>
      </trkpt>
      <trkpt lat="43.36105" lon="-1.61018">
        <ele>17</ele>
        <time>2026-02-28T12:16:31Z</time>
      </trkpt>
      <trkpt lat="43.36101" lon="-1.61078">
        <ele>15</ele>
        <time>2026-02-28T12:16:39Z</time>
      </trkpt>
      <trkpt lat="43.36091" lon="-1.61139">
        <ele>13</ele>
        <time>2026-02-28T12:16:47Z</time>
      </trkpt>
      <trkpt lat="43.36075" lon="-1.61188">
        <ele>12</ele>
        <time>2026-02-28T12:16:54Z</time>
      </trkpt>
      <trkpt lat="43.36058" lon="-1.61226">
        <ele>11</ele>
        <time>2026-02-28T12:17:00Z</time>
      </trkpt>
      <trkpt lat="43.36051" lon="-1.61238">
        <ele>11</ele>
        <time>2026-02-28T12:17:02Z</time>
      </trkpt>
      <trkpt lat="43.36033" lon="-1.61268">
        <ele>11</ele>
        <time>2026-02-28T12:17:07Z</time>
      </trkpt>
      <trkpt lat="43.35992" lon="-1.61321">
        <ele>11</ele>
        <time>2026-02-28T12:17:17Z</time>
      </trkpt>
      <trkpt lat="43.35934" lon="-1.61396">
        <ele>16</ele>
        <time>2026-02-28T12:17:31Z</time>
      </trkpt>
      <trkpt lat="43.35913" lon="-1.61419">
        <ele>16</ele>
        <time>2026-02-28T12:17:36Z</time>
      </trkpt>
      <trkpt lat="43.35815" lon="-1.61503">
        <ele>12</ele>
        <time>2026-02-28T12:17:57Z</time>
      </trkpt>
      <trkpt lat="43.35787" lon="-1.61535">
        <ele>14</ele>
        <time>2026-02-28T12:18:03Z</time>
      </trkpt>
      <trkpt lat="43.35725" lon="-1.61633">
        <ele>17</ele>
        <time>2026-02-28T12:18:20Z</time>
      </trkpt>
      <trkpt lat="43.35609" lon="-1.61816">
        <ele>13</ele>
        <time>2026-02-28T12:18:51Z</time>
      </trkpt>
      <trkpt lat="43.35515" lon="-1.61963">
        <ele>18</ele>
        <time>2026-02-28T12:19:17Z</time>
      </trkpt>
      <trkpt lat="43.35486" lon="-1.62001">
        <ele>18</ele>
        <time>2026-02-28T12:19:24Z</time>
      </trkpt>
      <trkpt lat="43.35432" lon="-1.62045">
        <ele>21</ele>
        <time>2026-02-28T12:19:35Z</time>
      </trkpt>
      <trkpt lat="43.35407" lon="-1.6206">
        <ele>21</ele>
        <time>2026-02-28T12:19:40Z</time>
      </trkpt>
      <trkpt lat="43.35384" lon="-1.6207">
        <ele>21</ele>
        <time>2026-02-28T12:19:44Z</time>
      </trkpt>
      <trkpt lat="43.3524" lon="-1.62126">
        <ele>14</ele>
        <time>2026-02-28T12:20:11Z</time>
      </trkpt>
      <trkpt lat="43.35214" lon="-1.62143">
        <ele>12</ele>
        <time>2026-02-28T12:20:16Z</time>
      </trkpt>
      <trkpt lat="43.35201" lon="-1.62157">
        <ele>12</ele>
        <time>2026-02-28T12:20:19Z</time>
      </trkpt>
      <trkpt lat="43.35181" lon="-1.62185">
        <ele>11</ele>
        <time>2026-02-28T12:20:24Z</time>
      </trkpt>
      <trkpt lat="43.35127" lon="-1.62289">
        <ele>11</ele>
        <time>2026-02-28T12:20:40Z</time>
      </trkpt>
      <trkpt lat="43.35113" lon="-1.62319">
        <ele>10</ele>
        <time>2026-02-28T12:20:45Z</time>
      </trkpt>
      <trkpt lat="43.35109" lon="-1.62334">
        <ele>10</ele>
        <time>2026-02-28T12:20:47Z</time>
      </trkpt>
      <trkpt lat="43.35106" lon="-1.62363">
        <ele>10</ele>
        <time>2026-02-28T12:20:51Z</time>
      </trkpt>
      <trkpt lat="43.35103" lon="-1.62402">
        <ele>11</ele>
        <time>2026-02-28T12:20:56Z</time>
      </trkpt>
      <trkpt lat="43.35103" lon="-1.62461">
        <ele>10</ele>
        <time>2026-02-28T12:21:03Z</time>
      </trkpt>
      <trkpt lat="43.35111" lon="-1.62501">
        <ele>11</ele>
        <time>2026-02-28T12:21:09Z</time>
      </trkpt>
      <trkpt lat="43.35115" lon="-1.62516">
        <ele>12</ele>
        <time>2026-02-28T12:21:11Z</time>
      </trkpt>
      <trkpt lat="43.35118" lon="-1.62528">
        <ele>12</ele>
        <time>2026-02-28T12:21:13Z</time>
      </trkpt>
      <trkpt lat="43.35123" lon="-1.62544">
        <ele>12</ele>
        <time>2026-02-28T12:21:15Z</time>
      </trkpt>
      <trkpt lat="43.35142" lon="-1.62592">
        <ele>12</ele>
        <time>2026-02-28T12:21:22Z</time>
      </trkpt>
      <trkpt lat="43.3519" lon="-1.62714">
        <ele>8</ele>
        <time>2026-02-28T12:21:40Z</time>
      </trkpt>
      <trkpt lat="43.35207" lon="-1.62759">
        <ele>8</ele>
        <time>2026-02-28T12:21:46Z</time>
      </trkpt>
      <trkpt lat="43.35255" lon="-1.629">
        <ele>6</ele>
        <time>2026-02-28T12:22:07Z</time>
      </trkpt>
      <trkpt lat="43.35268" lon="-1.62932">
        <ele>6</ele>
        <time>2026-02-28T12:22:11Z</time>
      </trkpt>
      <trkpt lat="43.35289" lon="-1.62974">
        <ele>6</ele>
        <time>2026-02-28T12:22:18Z</time>
      </trkpt>
      <trkpt lat="43.35306" lon="-1.62998">
        <ele>6</ele>
        <time>2026-02-28T12:22:22Z</time>
      </trkpt>
      <trkpt lat="43.3535" lon="-1.63044">
        <ele>7</ele>
        <time>2026-02-28T12:22:32Z</time>
      </trkpt>
      <trkpt lat="43.35386" lon="-1.63073">
        <ele>7</ele>
        <time>2026-02-28T12:22:39Z</time>
      </trkpt>
      <trkpt lat="43.35403" lon="-1.63082">
        <ele>7</ele>
        <time>2026-02-28T12:22:43Z</time>
      </trkpt>
      <trkpt lat="43.35415" lon="-1.63087">
        <ele>7</ele>
        <time>2026-02-28T12:22:45Z</time>
      </trkpt>
      <trkpt lat="43.3544" lon="-1.63097">
        <ele>6</ele>
        <time>2026-02-28T12:22:50Z</time>
      </trkpt>
      <trkpt lat="43.3561" lon="-1.63147">
        <ele>5</ele>
        <time>2026-02-28T12:23:21Z</time>
      </trkpt>
      <trkpt lat="43.35614" lon="-1.63148">
        <ele>5</ele>
        <time>2026-02-28T12:23:21Z</time>
      </trkpt>
      <trkpt lat="43.3564" lon="-1.63144">
        <ele>6</ele>
        <time>2026-02-28T12:23:26Z</time>
      </trkpt>
      <trkpt lat="43.35647" lon="-1.63139">
        <ele>6</ele>
        <time>2026-02-28T12:23:27Z</time>
      </trkpt>
      <trkpt lat="43.35652" lon="-1.63132">
        <ele>7</ele>
        <time>2026-02-28T12:23:29Z</time>
      </trkpt>
      <trkpt lat="43.35657" lon="-1.63129">
        <ele>7</ele>
        <time>2026-02-28T12:23:30Z</time>
      </trkpt>
      <trkpt lat="43.35664" lon="-1.63131">
        <ele>7</ele>
        <time>2026-02-28T12:23:31Z</time>
      </trkpt>
      <trkpt lat="43.3567" lon="-1.63137">
        <ele>7</ele>
        <time>2026-02-28T12:23:32Z</time>
      </trkpt>
      <trkpt lat="43.35673" lon="-1.63149">
        <ele>7</ele>
        <time>2026-02-28T12:23:34Z</time>
      </trkpt>
      <trkpt lat="43.3568" lon="-1.63157">
        <ele>7</ele>
        <time>2026-02-28T12:23:35Z</time>
      </trkpt>
      <trkpt lat="43.35699" lon="-1.63173">
        <ele>6</ele>
        <time>2026-02-28T12:23:39Z</time>
      </trkpt>
      <trkpt lat="43.35728" lon="-1.63183">
        <ele>7</ele>
        <time>2026-02-28T12:23:45Z</time>
      </trkpt>
      <trkpt lat="43.3575" lon="-1.63192">
        <ele>7</ele>
        <time>2026-02-28T12:23:49Z</time>
      </trkpt>
      <trkpt lat="43.35789" lon="-1.63219">
        <ele>9</ele>
        <time>2026-02-28T12:23:57Z</time>
      </trkpt>
      <trkpt lat="43.35853" lon="-1.63275">
        <ele>9</ele>
        <time>2026-02-28T12:24:10Z</time>
      </trkpt>
      <trkpt lat="43.35859" lon="-1.6328">
        <ele>9</ele>
        <time>2026-02-28T12:24:11Z</time>
      </trkpt>
      <trkpt lat="43.35921" lon="-1.63341">
        <ele>8</ele>
        <time>2026-02-28T12:24:25Z</time>
      </trkpt>
      <trkpt lat="43.35935" lon="-1.63358">
        <ele>9</ele>
        <time>2026-02-28T12:24:28Z</time>
      </trkpt>
      <trkpt lat="43.35984" lon="-1.63434">
        <ele>8</ele>
        <time>2026-02-28T12:24:41Z</time>
      </trkpt>
      <trkpt lat="43.35995" lon="-1.63453">
        <ele>8</ele>
        <time>2026-02-28T12:24:44Z</time>
      </trkpt>
      <trkpt lat="43.36014" lon="-1.63501">
        <ele>6</ele>
        <time>2026-02-28T12:24:51Z</time>
      </trkpt>
      <trkpt lat="43.36029" lon="-1.63531">
        <ele>6</ele>
        <time>2026-02-28T12:24:56Z</time>
      </trkpt>
      <trkpt lat="43.36039" lon="-1.63549">
        <ele>6</ele>
        <time>2026-02-28T12:24:59Z</time>
      </trkpt>
      <trkpt lat="43.36061" lon="-1.63577">
        <ele>5</ele>
        <time>2026-02-28T12:25:04Z</time>
      </trkpt>
      <trkpt lat="43.36075" lon="-1.63589">
        <ele>5</ele>
        <time>2026-02-28T12:25:07Z</time>
      </trkpt>
      <trkpt lat="43.36097" lon="-1.63603">
        <ele>5</ele>
        <time>2026-02-28T12:25:12Z</time>
      </trkpt>
      <trkpt lat="43.36233" lon="-1.63657">
        <ele>6</ele>
        <time>2026-02-28T12:25:37Z</time>
      </trkpt>
      <trkpt lat="43.36254" lon="-1.63665">
        <ele>6</ele>
        <time>2026-02-28T12:25:41Z</time>
      </trkpt>
      <trkpt lat="43.36269" lon="-1.63668">
        <ele>6</ele>
        <time>2026-02-28T12:25:43Z</time>
      </trkpt>
      <trkpt lat="43.36288" lon="-1.63671">
        <ele>6</ele>
        <time>2026-02-28T12:25:47Z</time>
      </trkpt>
      <trkpt lat="43.36323" lon="-1.63671">
        <ele>7</ele>
        <time>2026-02-28T12:25:53Z</time>
      </trkpt>
      <trkpt lat="43.36365" lon="-1.63663">
        <ele>7</ele>
        <time>2026-02-28T12:26:01Z</time>
      </trkpt>
      <trkpt lat="43.36401" lon="-1.63651">
        <ele>7</ele>
        <time>2026-02-28T12:26:07Z</time>
      </trkpt>
      <trkpt lat="43.36595" lon="-1.63589">
        <ele>5</ele>
        <time>2026-02-28T12:26:43Z</time>
      </trkpt>
      <trkpt lat="43.36638" lon="-1.63578">
        <ele>7</ele>
        <time>2026-02-28T12:26:50Z</time>
      </trkpt>
      <trkpt lat="43.36658" lon="-1.63577">
        <ele>8</ele>
        <time>2026-02-28T12:26:54Z</time>
      </trkpt>
      <trkpt lat="43.36675" lon="-1.63576">
        <ele>8</ele>
        <time>2026-02-28T12:26:57Z</time>
      </trkpt>
      <trkpt lat="43.36709" lon="-1.63582">
        <ele>8</ele>
        <time>2026-02-28T12:27:03Z</time>
      </trkpt>
      <trkpt lat="43.36753" lon="-1.63597">
        <ele>7</ele>
        <time>2026-02-28T12:27:11Z</time>
      </trkpt>
      <trkpt lat="43.36893" lon="-1.63685">
        <ele>4</ele>
        <time>2026-02-28T12:27:39Z</time>
      </trkpt>
      <trkpt lat="43.37067" lon="-1.63794">
        <ele>6</ele>
        <time>2026-02-28T12:28:13Z</time>
      </trkpt>
      <trkpt lat="43.37085" lon="-1.63801">
        <ele>6</ele>
        <time>2026-02-28T12:28:16Z</time>
      </trkpt>
      <trkpt lat="43.37111" lon="-1.63806">
        <ele>5</ele>
        <time>2026-02-28T12:28:21Z</time>
      </trkpt>
      <trkpt lat="43.37124" lon="-1.63805">
        <ele>5</ele>
        <time>2026-02-28T12:28:23Z</time>
      </trkpt>
      <trkpt lat="43.37409" lon="-1.63788">
        <ele>4</ele>
        <time>2026-02-28T12:29:14Z</time>
      </trkpt>
      <trkpt lat="43.37444" lon="-1.63779">
        <ele>4</ele>
        <time>2026-02-28T12:29:20Z</time>
      </trkpt>
      <trkpt lat="43.37508" lon="-1.63778">
        <ele>4</ele>
        <time>2026-02-28T12:29:31Z</time>
      </trkpt>
      <trkpt lat="43.37526" lon="-1.63781">
        <ele>5</ele>
        <time>2026-02-28T12:29:35Z</time>
      </trkpt>
      <trkpt lat="43.37541" lon="-1.63773">
        <ele>5</ele>
        <time>2026-02-28T12:29:38Z</time>
      </trkpt>
      <trkpt lat="43.37607" lon="-1.63771">
        <ele>6</ele>
        <time>2026-02-28T12:29:49Z</time>
      </trkpt>
      <trkpt lat="43.37642" lon="-1.63776">
        <ele>6</ele>
        <time>2026-02-28T12:29:56Z</time>
      </trkpt>
      <trkpt lat="43.3772" lon="-1.63773">
        <ele>8</ele>
        <time>2026-02-28T12:30:09Z</time>
      </trkpt>
      <trkpt lat="43.37749" lon="-1.63773">
        <ele>8</ele>
        <time>2026-02-28T12:30:15Z</time>
      </trkpt>
      <trkpt lat="43.37767" lon="-1.63778">
        <ele>8</ele>
        <time>2026-02-28T12:30:18Z</time>
      </trkpt>
      <trkpt lat="43.37776" lon="-1.63786">
        <ele>8</ele>
        <time>2026-02-28T12:30:20Z</time>
      </trkpt>
      <trkpt lat="43.37802" lon="-1.63812">
        <ele>8</ele>
        <time>2026-02-28T12:30:25Z</time>
      </trkpt>
      <trkpt lat="43.37906" lon="-1.63917">
        <ele>6</ele>
        <time>2026-02-28T12:30:48Z</time>
      </trkpt>
      <trkpt lat="43.37908" lon="-1.63919">
        <ele>7</ele>
        <time>2026-02-28T12:30:49Z</time>
      </trkpt>
      <trkpt lat="43.37952" lon="-1.6396">
        <ele>7</ele>
        <time>2026-02-28T12:30:58Z</time>
      </trkpt>
      <trkpt lat="43.37994" lon="-1.63999">
        <ele>8</ele>
        <time>2026-02-28T12:31:07Z</time>
      </trkpt>
      <trkpt lat="43.37999" lon="-1.64003">
        <ele>8</ele>
        <time>2026-02-28T12:31:08Z</time>
      </trkpt>
      <trkpt lat="43.38049" lon="-1.64048">
        <ele>9</ele>
        <time>2026-02-28T12:31:19Z</time>
      </trkpt>
      <trkpt lat="43.38058" lon="-1.64061">
        <ele>9</ele>
        <time>2026-02-28T12:31:21Z</time>
      </trkpt>
      <trkpt lat="43.38109" lon="-1.64167">
        <ele>7</ele>
        <time>2026-02-28T12:31:38Z</time>
      </trkpt>
      <trkpt lat="43.38121" lon="-1.64194">
        <ele>6</ele>
        <time>2026-02-28T12:31:42Z</time>
      </trkpt>
      <trkpt lat="43.38124" lon="-1.64199">
        <ele>6</ele>
        <time>2026-02-28T12:31:43Z</time>
      </trkpt>
      <trkpt lat="43.38155" lon="-1.6423">
        <ele>6</ele>
        <time>2026-02-28T12:31:49Z</time>
      </trkpt>
      <trkpt lat="43.38212" lon="-1.64283">
        <ele>5</ele>
        <time>2026-02-28T12:32:02Z</time>
      </trkpt>
      <trkpt lat="43.38222" lon="-1.64295">
        <ele>5</ele>
        <time>2026-02-28T12:32:04Z</time>
      </trkpt>
      <trkpt lat="43.38233" lon="-1.64308">
        <ele>5</ele>
        <time>2026-02-28T12:32:07Z</time>
      </trkpt>
      <trkpt lat="43.38244" lon="-1.64328">
        <ele>5</ele>
        <time>2026-02-28T12:32:10Z</time>
      </trkpt>
      <trkpt lat="43.38257" lon="-1.64359">
        <ele>6</ele>
        <time>2026-02-28T12:32:15Z</time>
      </trkpt>
      <trkpt lat="43.38261" lon="-1.6437">
        <ele>6</ele>
        <time>2026-02-28T12:32:16Z</time>
      </trkpt>
      <trkpt lat="43.38272" lon="-1.64424">
        <ele>8</ele>
        <time>2026-02-28T12:32:23Z</time>
      </trkpt>
      <trkpt lat="43.38277" lon="-1.64488">
        <ele>10</ele>
        <time>2026-02-28T12:32:32Z</time>
      </trkpt>
      <trkpt lat="43.38278" lon="-1.64501">
        <ele>10</ele>
        <time>2026-02-28T12:32:33Z</time>
      </trkpt>
      <trkpt lat="43.3828" lon="-1.64566">
        <ele>9</ele>
        <time>2026-02-28T12:32:42Z</time>
      </trkpt>
      <trkpt lat="43.38279" lon="-1.64626">
        <ele>7</ele>
        <time>2026-02-28T12:32:50Z</time>
      </trkpt>
      <trkpt lat="43.38274" lon="-1.64685">
        <ele>7</ele>
        <time>2026-02-28T12:32:57Z</time>
      </trkpt>
      <trkpt lat="43.38273" lon="-1.64701">
        <ele>7</ele>
        <time>2026-02-28T12:32:59Z</time>
      </trkpt>
      <trkpt lat="43.3827" lon="-1.64732">
        <ele>7</ele>
        <time>2026-02-28T12:33:03Z</time>
      </trkpt>
      <trkpt lat="43.38264" lon="-1.64796">
        <ele>9</ele>
        <time>2026-02-28T12:33:12Z</time>
      </trkpt>
      <trkpt lat="43.38255" lon="-1.6488">
        <ele>9</ele>
        <time>2026-02-28T12:33:23Z</time>
      </trkpt>
      <trkpt lat="43.38252" lon="-1.64928">
        <ele>8</ele>
        <time>2026-02-28T12:33:29Z</time>
      </trkpt>
      <trkpt lat="43.38254" lon="-1.64945">
        <ele>8</ele>
        <time>2026-02-28T12:33:31Z</time>
      </trkpt>
      <trkpt lat="43.3826" lon="-1.64971">
        <ele>8</ele>
        <time>2026-02-28T12:33:35Z</time>
      </trkpt>
      <trkpt lat="43.38276" lon="-1.65016">
        <ele>9</ele>
        <time>2026-02-28T12:33:41Z</time>
      </trkpt>
      <trkpt lat="43.38302" lon="-1.65087">
        <ele>11</ele>
        <time>2026-02-28T12:33:51Z</time>
      </trkpt>
      <trkpt lat="43.38333" lon="-1.65173">
        <ele>12</ele>
        <time>2026-02-28T12:34:04Z</time>
      </trkpt>
      <trkpt lat="43.38343" lon="-1.652">
        <ele>12</ele>
        <time>2026-02-28T12:34:08Z</time>
      </trkpt>
      <trkpt lat="43.38356" lon="-1.65227">
        <ele>13</ele>
        <time>2026-02-28T12:34:12Z</time>
      </trkpt>
      <trkpt lat="43.38363" lon="-1.65232">
        <ele>13</ele>
        <time>2026-02-28T12:34:13Z</time>
      </trkpt>
      <trkpt lat="43.38379" lon="-1.65254">
        <ele>14</ele>
        <time>2026-02-28T12:34:17Z</time>
      </trkpt>
      <trkpt lat="43.38403" lon="-1.65273">
        <ele>14</ele>
        <time>2026-02-28T12:34:22Z</time>
      </trkpt>
      <trkpt lat="43.38412" lon="-1.65283">
        <ele>13</ele>
        <time>2026-02-28T12:34:24Z</time>
      </trkpt>
      <trkpt lat="43.38412" lon="-1.65303">
        <ele>10</ele>
        <time>2026-02-28T12:34:27Z</time>
      </trkpt>
      <trkpt lat="43.38407" lon="-1.65318">
        <ele>8</ele>
        <time>2026-02-28T12:34:29Z</time>
      </trkpt>
      <trkpt lat="43.38404" lon="-1.65322">
        <ele>7</ele>
        <time>2026-02-28T12:34:30Z</time>
      </trkpt>
      <trkpt lat="43.3838" lon="-1.65372">
        <ele>5</ele>
        <time>2026-02-28T12:34:38Z</time>
      </trkpt>
      <trkpt lat="43.38376" lon="-1.6538">
        <ele>5</ele>
        <time>2026-02-28T12:34:39Z</time>
      </trkpt>
      <trkpt lat="43.38372" lon="-1.65388">
        <ele>5</ele>
        <time>2026-02-28T12:34:40Z</time>
      </trkpt>
      <trkpt lat="43.38346" lon="-1.6544">
        <ele>5</ele>
        <time>2026-02-28T12:34:48Z</time>
      </trkpt>
      <trkpt lat="43.38344" lon="-1.65446">
        <ele>5</ele>
        <time>2026-02-28T12:34:49Z</time>
      </trkpt>
      <trkpt lat="43.38341" lon="-1.65462">
        <ele>4</ele>
        <time>2026-02-28T12:34:51Z</time>
      </trkpt>
      <trkpt lat="43.38363" lon="-1.65495">
        <ele>4</ele>
        <time>2026-02-28T12:34:57Z</time>
      </trkpt>
      <trkpt lat="43.38364" lon="-1.655">
        <ele>4</ele>
        <time>2026-02-28T12:34:58Z</time>
      </trkpt>
      <trkpt lat="43.38362" lon="-1.65506">
        <ele>4</ele>
        <time>2026-02-28T12:34:59Z</time>
      </trkpt>
      <trkpt lat="43.3836" lon="-1.65509">
        <ele>4</ele>
        <time>2026-02-28T12:34:59Z</time>
      </trkpt>
      <trkpt lat="43.38357" lon="-1.65509">
        <ele>4</ele>
        <time>2026-02-28T12:35:00Z</time>
      </trkpt>
      <trkpt lat="43.38352" lon="-1.65519">
        <ele>4</ele>
        <time>2026-02-28T12:35:01Z</time>
      </trkpt>
      <trkpt lat="43.38329" lon="-1.65551">
        <ele>3</ele>
        <time>2026-02-28T12:35:07Z</time>
      </trkpt>
      <trkpt lat="43.38307" lon="-1.65581">
        <ele>3</ele>
        <time>2026-02-28T12:35:13Z</time>
      </trkpt>
      <trkpt lat="43.383" lon="-1.65591">
        <ele>3</ele>
        <time>2026-02-28T12:35:14Z</time>
      </trkpt>
      <trkpt lat="43.38296" lon="-1.65596">
        <ele>3</ele>
        <time>2026-02-28T12:35:15Z</time>
      </trkpt>
      <trkpt lat="43.38286" lon="-1.65609">
        <ele>3</ele>
        <time>2026-02-28T12:35:18Z</time>
      </trkpt>
      <trkpt lat="43.3828" lon="-1.65617">
        <ele>3</ele>
        <time>2026-02-28T12:35:19Z</time>
      </trkpt>
      <trkpt lat="43.38252" lon="-1.65655">
        <ele>4</ele>
        <time>2026-02-28T12:35:26Z</time>
      </trkpt>
      <trkpt lat="43.38236" lon="-1.65679">
        <ele>4</ele>
        <time>2026-02-28T12:35:30Z</time>
      </trkpt>
      <trkpt lat="43.38233" lon="-1.65687">
        <ele>4</ele>
        <time>2026-02-28T12:35:32Z</time>
      </trkpt>
      <trkpt lat="43.38233" lon="-1.65695">
        <ele>4</ele>
        <time>2026-02-28T12:35:33Z</time>
      </trkpt>
      <trkpt lat="43.38234" lon="-1.65703">
        <ele>4</ele>
        <time>2026-02-28T12:35:34Z</time>
      </trkpt>
      <trkpt lat="43.38262" lon="-1.65781">
        <ele>4</ele>
        <time>2026-02-28T12:35:45Z</time>
      </trkpt>
      <trkpt lat="43.38275" lon="-1.65815">
        <ele>3</ele>
        <time>2026-02-28T12:35:50Z</time>
      </trkpt>
      <trkpt lat="43.38298" lon="-1.65877">
        <ele>4</ele>
        <time>2026-02-28T12:35:59Z</time>
      </trkpt>
      <trkpt lat="43.38305" lon="-1.65894">
        <ele>4</ele>
        <time>2026-02-28T12:36:01Z</time>
      </trkpt>
      <trkpt lat="43.38304" lon="-1.65895">
        <ele>4</ele>
        <time>2026-02-28T12:36:02Z</time>
      </trkpt>
    </trkseg>
  </trk>
</gpx>